[[{"header":{"parameterUnit":"m.s-1","parameterCategory":1,"la1":30.6,"la2":29.2853,"lo1":-89.7004,"lo2":-87.6739,"dy":0.0162,"dx":0.0183,"nx":112,"ny":82,"refTime":"2024-08-16T06:00:00:Z","depth":0,"parameterNumber":2,"parameterNumberName":"U-component_of_WINDS"},"data":[0.0,0.0,0.0,0.0,0.0,0.0,0.0,0.0,0.0,0.0,0.0,0.0,0.0,0.0,0.0,0.0,0.0,0.0,0.0,0.0,0.0,0.0,0.0,0.0,0.0,0.0,0.0,0.0,0.0,0.0,0.0,0.0,0.0,0.0,0.0,0.0,0.0,0.0,0.0,0.0,0.0,0.0,0.0,0.0,0.0,0.0,0.0,0.0,0.0,0.0,0.0,0.0,0.0,0.0,0.0,0.0,0.0,0.0,0.0,0.0,0.0,0.0,0.0,0.0,0.0,0.0,0.0,0.0,0.0,0.0,0.0,0.0,0.0,0.0,0.0,0.0,0.0,0.0,0.0,0.0,0.0,0.0,0.0,0.0,0.0,0.0,0.0,0.0,0.0,0.0,2.2765,2.3205,2.3283,2.3107,2.2604,2.3333,2.3185,2.1714,0.0,0.0,0.0,0.0,0.0,0.0,0.0,0.0,0.0,0.0,0.0,0.0,0.0,0.0,0.0,0.0,0.0,0.0,0.0,0.0,0.0,0.0,0.0,0.0,0.0,0.0,0.0,0.0,0.0,0.0,0.0,0.0,0.0,0.0,0.0,0.0,0.0,0.0,0.0,0.0,0.0,0.0,0.0,0.0,0.0,0.0,0.0,0.0,0.0,0.0,0.0,0.0,0.0,0.0,0.0,0.0,0.0,0.0,0.0,0.0,0.0,0.0,0.0,0.0,0.0,0.0,0.0,0.0,0.0,0.0,0.0,0.0,0.0,0.0,0.0,0.0,0.0,0.0,0.0,0.0,0.0,0.0,0.0,0.0,0.0,0.0,0.0,0.0,0.0,0.0,0.0,0.0,0.0,0.0,0.0,0.0,0.0,0.0,0.0,0.0,0.0,0.0,0.0,0.0,2.281,2.3396,2.283,2.2527,2.2815,2.237,2.1977,2.1693,0.0,0.0,0.0,0.0,0.0,0.0,0.0,0.0,0.0,0.0,0.0,0.0,0.0,0.0,0.0,0.0,0.0,0.0,0.0,0.0,0.0,0.0,0.0,0.0,0.0,0.0,0.0,0.0,0.0,0.0,0.0,0.0,0.0,0.0,0.0,0.0,0.0,0.0,0.0,0.0,0.0,0.0,0.0,0.0,0.0,0.0,0.0,0.0,0.0,0.0,0.0,0.0,0.0,0.0,0.0,0.0,0.0,0.0,0.0,0.0,0.0,0.0,0.0,0.0,0.0,0.0,0.0,0.0,0.0,0.0,0.0,0.0,0.0,0.0,0.0,0.0,0.0,0.0,0.0,0.0,0.0,0.0,0.0,0.0,0.0,0.0,0.0,0.0,0.0,0.0,0.0,0.0,0.0,0.0,0.0,0.0,0.0,0.0,0.0,0.0,0.0,0.0,0.0,2.2031,2.2891,2.2801,2.2434,2.1997,2.1528,2.1617,2.1476,2.0975,2.1717,0.0,0.0,0.0,0.0,0.0,0.0,0.0,0.0,0.0,0.0,0.0,0.0,0.0,0.0,0.0,0.0,0.0,0.0,0.0,0.0,0.0,0.0,0.0,0.0,0.0,0.0,0.0,0.0,0.0,0.0,0.0,0.0,0.0,0.0,0.0,0.0,0.0,0.0,0.0,0.0,0.0,0.0,0.0,0.0,0.0,0.0,0.0,0.0,0.0,0.0,0.0,0.0,0.0,0.0,0.0,0.0,0.0,0.0,0.0,0.0,0.0,0.0,0.0,0.0,0.0,0.0,0.0,0.0,0.0,0.0,0.0,0.0,0.0,0.0,0.0,0.0,0.0,0.0,0.0,0.0,0.0,0.0,0.0,0.0,0.0,0.0,0.0,0.0,0.0,0.0,0.0,0.0,0.0,0.0,0.0,0.0,0.0,0.0,0.0,0.0,0.0,0.0,2.2548,2.2805,2.2152,2.2149,2.1694,2.0422,2.0973,2.1061,2.0318,2.0804,0.0,0.0,0.0,0.0,0.0,0.0,0.0,0.0,0.0,0.0,0.0,0.0,0.0,0.0,0.0,0.0,0.0,0.0,0.0,0.0,0.0,0.0,0.0,0.0,0.0,0.0,0.0,0.0,0.0,0.0,0.0,0.0,0.0,0.0,0.0,0.0,0.0,0.0,0.0,0.0,0.0,0.0,0.0,0.0,0.0,0.0,0.0,0.0,0.0,0.0,0.0,0.0,0.0,0.0,0.0,0.0,0.0,0.0,0.0,0.0,0.0,0.0,0.0,0.0,0.0,0.0,0.0,0.0,0.0,0.0,0.0,0.0,0.0,0.0,0.0,0.0,0.0,0.0,0.0,0.0,0.0,0.0,0.0,0.0,0.0,0.0,0.0,0.0,0.0,0.0,0.0,0.0,0.0,0.0,0.0,0.0,0.0,0.0,0.0,0.0,0.0,0.0,2.2177,2.2405,2.1808,2.2009,2.1713,2.0499,2.0396,2.0334,2.0211,2.0072,0.0,0.0,0.0,0.0,0.0,0.0,0.0,0.0,0.0,0.0,0.0,0.0,0.0,0.0,0.0,0.0,0.0,0.0,0.0,0.0,0.0,0.0,0.0,0.0,0.0,0.0,0.0,0.0,0.0,0.0,0.0,0.0,0.0,0.0,0.0,0.0,0.0,0.0,0.0,0.0,0.0,0.0,0.0,0.0,0.0,0.0,0.0,0.0,0.0,0.0,0.0,0.0,0.0,0.0,0.0,0.0,0.0,0.0,0.0,0.0,0.0,0.0,0.0,0.0,0.0,0.0,0.0,0.0,0.0,0.0,0.0,0.0,0.0,0.0,0.0,0.0,0.0,0.0,0.0,0.0,0.0,0.0,0.0,0.0,0.0,0.0,0.0,0.0,0.0,0.0,0.0,0.0,0.0,0.0,0.0,0.0,0.0,0.0,0.0,0.0,0.0,0.0,2.1501,2.1779,2.1605,2.1502,2.1111,2.0288,2.0303,2.0293,2.0144,0.0,0.0,0.0,0.0,0.0,0.0,0.0,0.0,0.0,0.0,0.0,0.0,0.0,0.0,0.0,0.0,0.0,0.0,0.0,0.0,0.0,0.0,0.0,0.0,0.0,0.0,0.0,0.0,0.0,0.0,0.0,0.0,0.0,0.0,0.0,0.0,0.0,0.0,0.0,0.0,0.0,0.0,0.0,0.0,0.0,0.0,0.0,0.0,0.0,0.0,0.0,0.0,0.0,0.0,0.0,0.0,0.0,0.0,0.0,0.0,0.0,0.0,0.0,0.0,0.0,0.0,0.0,0.0,0.0,0.0,0.0,0.0,0.0,0.0,0.0,0.0,0.0,0.0,0.0,0.0,0.0,0.0,0.0,0.0,0.0,0.0,0.0,0.0,0.0,0.0,0.0,0.0,0.0,0.0,0.0,0.0,0.0,0.0,0.0,0.0,0.0,0.0,2.0256,2.0841,2.116,2.1314,2.1071,2.0554,1.9742,2.0119,2.017,1.9716,0.0,0.0,0.0,0.0,0.0,0.0,0.0,0.0,0.0,0.0,0.0,0.0,0.0,0.0,0.0,0.0,0.0,0.0,0.0,0.0,0.0,0.0,0.0,0.0,0.0,0.0,0.0,0.0,0.0,0.0,0.0,0.0,0.0,0.0,0.0,0.0,0.0,0.0,0.0,0.0,0.0,0.0,0.0,0.0,0.0,0.0,0.0,0.0,0.0,0.0,0.0,0.0,0.0,0.0,0.0,0.0,0.0,0.0,0.0,0.0,0.0,0.0,0.0,0.0,0.0,0.0,0.0,0.0,0.0,0.0,0.0,0.0,0.0,0.0,0.0,0.0,0.0,0.0,0.0,0.0,0.0,0.0,0.0,0.0,0.0,0.0,0.0,0.0,0.0,0.0,0.0,0.0,0.0,0.0,0.0,0.0,0.0,0.0,0.0,0.0,0.0,0.0,1.9851,2.0315,2.0524,2.0963,2.0759,2.0101,1.8897,1.972,1.9863,0.0,0.0,0.0,0.0,0.0,0.0,0.0,0.0,0.0,0.0,0.0,0.0,0.0,0.0,0.0,0.0,0.0,0.0,0.0,0.0,0.0,0.0,0.0,0.0,0.0,0.0,0.0,0.0,0.0,0.0,0.0,0.0,0.0,0.0,0.0,0.0,0.0,0.0,0.0,0.0,0.0,0.0,0.0,0.0,0.0,0.0,0.0,0.0,0.0,0.0,0.0,0.0,0.0,0.0,0.0,0.0,0.0,0.0,0.0,0.0,0.0,0.0,0.0,0.0,0.0,0.0,0.0,0.0,0.0,0.0,0.0,0.0,0.0,0.0,0.0,0.0,0.0,0.0,0.0,0.0,0.0,0.0,0.0,0.0,0.0,0.0,0.0,0.0,0.0,0.0,0.0,0.0,0.0,0.0,0.0,0.0,0.0,0.0,0.0,0.0,0.0,0.0,0.0,1.9306,1.9233,1.9356,2.0454,2.0011,1.9277,1.8448,1.8947,1.9169,1.8818,0.0,0.0,0.0,0.0,0.0,0.0,0.0,0.0,0.0,0.0,0.0,0.0,0.0,0.0,0.0,0.0,0.0,0.0,0.0,0.0,0.0,0.0,0.0,0.0,0.0,0.0,0.0,0.0,0.0,0.0,0.0,0.0,0.0,0.0,0.0,0.0,0.0,0.0,0.0,0.0,0.0,0.0,0.0,0.0,0.0,0.0,0.0,0.0,0.0,0.0,0.0,0.0,0.0,0.0,0.0,0.0,0.0,0.0,0.0,0.0,0.0,0.0,0.0,0.0,0.0,0.0,0.0,0.0,0.0,0.0,0.0,0.0,0.0,0.0,0.0,0.0,0.0,0.0,0.0,0.0,0.0,0.0,0.0,0.0,0.0,0.0,0.0,0.0,0.0,0.0,0.0,0.0,0.0,0.0,0.0,0.0,0.0,0.0,0.0,0.0,0.0,0.0,1.8856,1.8467,1.8527,2.0,1.9365,1.8526,1.7744,1.8411,1.8736,1.8416,0.0,0.0,0.0,0.0,0.0,0.0,0.0,0.0,0.0,0.0,0.0,0.0,0.0,0.0,0.0,0.0,0.0,0.0,0.0,0.0,0.0,0.0,0.0,0.0,0.0,0.0,0.0,0.0,0.0,0.0,0.0,0.0,0.0,0.0,0.0,0.0,0.0,0.0,0.0,0.0,0.0,0.0,0.0,0.0,0.0,0.0,0.0,0.0,0.0,0.0,0.0,0.0,0.0,0.0,0.0,0.0,0.0,0.0,0.0,0.0,0.0,0.0,0.0,0.0,0.0,0.0,0.0,0.0,0.0,0.0,0.0,0.0,0.0,0.0,0.0,0.0,0.0,0.0,0.0,0.0,0.0,0.0,0.0,0.0,0.0,0.0,0.0,0.0,0.0,0.0,0.0,0.0,0.0,0.0,0.0,0.0,0.0,0.0,0.0,0.0,0.0,0.0,1.8309,1.7914,1.8007,1.9458,1.8737,1.7771,1.6907,1.7937,1.8391,1.7792,0.0,0.0,0.0,0.0,0.0,0.0,0.0,0.0,0.0,0.0,0.0,0.0,0.0,0.0,0.0,0.0,0.0,0.0,0.0,0.0,0.0,0.0,0.0,0.0,0.0,0.0,0.0,0.0,0.0,0.0,0.0,0.0,0.0,0.0,0.0,0.0,0.0,0.0,0.0,0.0,0.0,0.0,0.0,0.0,0.0,0.0,0.0,0.0,0.0,0.0,0.0,0.0,0.0,0.0,0.0,0.0,0.0,0.0,0.0,0.0,-0.2134,-0.1778,0.0,0.0,0.0,0.0,0.0,0.0,0.0,0.0,0.0,0.0,0.0,0.0,0.0,0.0,0.0,0.0,0.0,0.0,0.0,0.0,0.0,0.0,0.0,0.0,0.0,0.0,0.0,0.0,0.0,0.0,0.0,0.0,0.0,0.0,0.0,0.0,0.0,0.0,0.0,0.0,1.6582,1.6816,1.723,1.8135,1.7461,1.6786,1.6314,1.7,1.747,1.748,1.823,0.0,0.0,0.0,0.0,0.0,0.0,0.0,0.0,0.0,0.0,0.0,0.0,0.0,0.0,0.0,0.0,0.0,0.0,0.0,0.0,0.0,0.0,0.0,0.0,0.0,0.0,0.0,0.0,0.0,0.0,0.0,0.0,0.0,0.0,0.0,0.0,0.0,0.0,0.0,0.0,0.0,0.0,0.0,0.0,0.0,0.0,0.0,0.0,0.0,0.0,0.0,0.0,0.0,0.0,0.0,0.0,0.0,0.0,0.0,-0.3595,-0.3072,0.0,0.0,0.0,0.0,0.0,0.0,0.0,0.0,0.0,0.0,0.0,0.0,0.0,0.0,0.0,0.0,0.0,0.0,0.0,0.0,0.0,0.0,0.0,0.0,0.0,0.0,0.0,0.0,0.0,0.0,0.0,0.0,0.0,0.0,0.0,0.0,0.0,0.0,0.0,0.0,1.6218,1.6221,1.6392,1.7144,1.6406,1.584,1.58,1.5944,1.6394,1.7202,1.7592,0.0,0.0,0.0,0.0,0.0,0.0,0.0,0.0,0.0,0.0,0.0,0.0,0.0,0.0,0.0,0.0,0.0,0.0,0.0,0.0,0.0,0.0,0.0,0.0,0.0,0.0,0.0,0.0,0.0,0.0,0.0,0.0,0.0,0.0,0.0,0.0,0.0,0.0,0.0,0.0,0.0,0.0,0.0,0.0,0.0,0.0,0.0,0.0,0.0,0.0,0.0,0.0,0.0,-0.6003,-0.6128,-0.6199,-0.539,-0.5132,-0.5253,-0.4458,-0.3862,-0.3498,-0.3409,0.0,0.0,0.0,0.0,0.0,0.0,0.0,0.0,0.0,0.0,0.0,0.0,0.0,0.0,0.0,0.0,0.0,0.0,0.0,0.0,0.0,0.0,0.3559,0.4323,0.4579,0.4941,0.5908,0.0,0.0,0.0,0.0,0.0,0.0,0.0,0.0,0.0,0.0,0.0,1.5926,1.5749,1.573,1.6279,1.5342,1.4837,1.5224,1.4967,1.5392,1.6862,1.6963,1.7751,0.0,0.0,0.0,0.0,0.0,0.0,0.0,0.0,0.0,0.0,0.0,0.0,0.0,0.0,0.0,0.0,0.0,0.0,0.0,0.0,0.0,0.0,0.0,0.0,0.0,0.0,0.0,0.0,0.0,0.0,0.0,0.0,0.1739,0.0991,0.0,0.0,0.0,0.0,0.0,0.0,0.0,0.0,0.0,0.0,0.0,0.0,0.0,-0.6711,-0.678,-0.625,-0.5935,-0.5772,-0.5182,-0.4872,-0.4791,-0.4659,-0.4608,-0.4622,-0.4474,0.0,-0.4346,-0.431,0.0,0.0,0.0,0.0,0.0,0.0,0.0,0.0,0.0,0.0,0.0,0.0,0.0,0.0,0.0,0.0,0.0,0.0,0.0,0.0,0.0,0.0,0.4326,0.4457,0.4579,0.4742,0.4894,0.5518,0.6447,0.7963,0.8282,0.8739,0.0,0.0,0.0,0.0,0.0,0.0,1.4221,1.4983,1.5491,1.5405,1.4155,1.3604,1.4233,1.4288,1.491,1.6317,1.7461,1.8474,1.9309,1.8537,0.0,0.0,0.0,0.0,0.0,0.0,0.0,0.0,0.0,0.0,0.0,0.0,0.0,0.0,0.0,0.0,0.0,0.0,0.0,0.0,0.0,0.0,0.0,0.0,0.0,0.0,0.0,0.0,0.0,0.064,0.032,-0.1271,-0.1315,-0.1944,0.0,0.0,0.0,0.0,0.0,0.0,0.0,0.0,0.0,-0.6452,-0.6856,-0.6728,-0.5872,-0.5514,-0.5314,-0.5204,-0.4861,-0.4609,-0.4519,-0.4519,-0.4519,-0.4519,-0.4519,-0.4519,-0.4519,-0.4519,-0.4734,-0.5035,0.0,0.0,0.0,0.0,-0.36,-0.2653,-0.1927,-0.1121,-0.037,0.0,0.0,0.0,0.0,0.0,0.0,0.0,0.0,0.16,0.241,0.2899,0.3287,0.3735,0.4292,0.4691,0.4691,0.5047,0.5783,0.7244,0.7564,0.8056,0.971,1.0339,0.0,0.0,0.0,1.3807,1.3952,1.4357,1.46,1.4493,1.3595,1.3137,1.3498,1.3222,1.3771,1.5514,1.5887,1.6652,1.795,1.7378,1.5044,0.0,0.0,0.0,0.0,0.0,0.0,0.0,0.0,0.0,0.0,0.0,0.0,0.0,0.0,0.0,0.0,0.0,0.0,0.0,0.0,0.0,0.0,0.0,0.0,0.0,0.0,0.0,0.0,-0.0626,-0.0941,-0.2799,-0.2565,-0.2982,0.0,0.0,0.0,0.0,0.0,0.0,-0.6818,-0.7413,-0.7176,-0.5755,-0.6344,-0.6108,-0.4918,-0.4918,-0.4843,-0.4691,-0.4691,-0.4609,-0.4519,-0.4519,-0.4519,-0.4463,-0.4294,-0.4184,-0.4236,-0.4405,-0.464,-0.4912,-0.4912,-0.4868,-0.4736,-0.4534,-0.4391,-0.4198,-0.343,-0.2748,-0.2103,-0.1489,-0.071,0.0127,0.0626,0.0,0.0,0.0,0.0,0.0462,0.1181,0.1952,0.2619,0.3176,0.3978,0.4633,0.4633,0.4721,0.5258,0.6712,0.6989,0.7593,0.9358,1.0038,0.0,1.2101,1.2822,1.3453,1.3921,1.3987,1.3992,1.396,1.3253,1.2843,1.3039,1.2504,1.2976,1.4794,1.4511,1.471,1.5757,1.533,1.2354,0.6661,0.0,0.0,0.0,0.0,0.0,0.0,0.0,0.0,0.0,0.0,0.0,0.0,0.0,0.0,0.0,0.0,0.0,0.0,0.0,0.0,0.0,0.0,0.0,0.0,0.0,0.0,0.0,0.0,0.0,-0.2169,-0.2418,0.0,0.0,0.0,0.0,-0.604,-0.669,-0.6813,-0.6113,-0.6113,-0.5755,-0.4979,-0.4979,-0.4979,-0.4918,-0.4918,-0.4843,-0.4691,-0.4691,-0.4609,-0.4519,-0.4519,-0.4519,-0.446,-0.3735,-0.34,-0.34,-0.4181,-0.4901,-0.5445,-0.5445,-0.5058,-0.4356,-0.3629,-0.304,-0.2532,-0.172,-0.1391,-0.137,-0.1315,-0.0711,0.0,0.0064,0.0061,0.0,0.0,0.1034,0.1231,0.1953,0.2676,0.3231,0.3287,0.3907,0.4529,0.4529,0.4536,0.5069,0.69,0.7274,0.7672,0.8981,0.0,0.9641,1.0761,1.1431,1.233,1.3718,1.3951,1.4021,1.4061,1.3078,1.2552,1.2865,1.2597,1.2954,1.4345,1.4232,1.3628,1.2589,1.1467,0.8512,0.344,0.0943,0.0,0.0,0.0,0.0,0.0,0.0,0.0,0.0,0.0,0.0,0.0,0.0,0.0,0.0,0.0,0.0,0.0,0.0,0.0,0.0,0.0,0.0,0.0,0.0,0.0,0.0,0.0,0.0,-0.2911,-0.2714,0.0,-0.4953,-0.5239,-0.5498,-0.6088,-0.5876,-0.562,-0.5417,-0.5868,-0.5751,-0.4918,-0.5453,-0.54,-0.4772,-0.4772,-0.4697,-0.4545,-0.4545,-0.4287,-0.3732,-0.379,-0.3511,-0.301,-0.2732,-0.2619,-0.2619,-0.2899,-0.3215,-0.3561,-0.3561,-0.3432,-0.3264,-0.3002,-0.2796,-0.2586,-0.2304,-0.18,-0.1236,-0.0632,-0.0251,0.0,0.0,0.0,0.006,0.0295,0.0408,0.0575,0.1292,0.2063,0.273,0.3176,0.3901,0.4519,0.4519,0.4519,0.499,0.6561,0.6875,0.7295,0.8702,0.9676,1.035,1.0736,1.1774,1.2666,1.3228,1.3065,1.304,1.3442,1.2866,1.2365,1.2144,1.2304,1.2546,1.2907,1.2376,1.1761,1.1182,0.9215,0.6636,0.3423,0.0889,-0.1643,0.0,0.0,0.0,0.0,0.0,0.0,0.0,0.0,0.0,0.0,0.0,0.0,0.0,0.0,0.0,0.0,0.0,0.0,0.0,0.0,0.0,0.0,0.0,0.0,0.0,-0.0666,-0.1055,-0.2909,-0.2509,-0.2908,-0.4963,-0.4799,-0.4961,-0.5742,-0.5289,-0.5033,-0.5125,-0.554,-0.5487,-0.4843,-0.5366,-0.5342,-0.4616,-0.4613,-0.4562,-0.4519,-0.4239,-0.3846,-0.3345,-0.3121,-0.2676,-0.2174,-0.1952,-0.184,-0.1786,-0.1563,-0.1528,-0.1732,-0.2192,-0.2281,-0.2145,-0.2145,-0.2159,-0.2241,-0.2241,-0.1831,-0.1168,-0.0305,0.0,0.0,0.0,0.0182,0.0358,0.0354,0.0525,0.0863,0.1348,0.2009,0.2732,0.3231,0.3956,0.4519,0.4519,0.4519,0.4901,0.6317,0.6588,0.7074,0.8533,0.9718,1.0517,1.0771,1.1783,1.2638,1.2969,1.259,1.2454,1.2808,1.2659,1.2365,1.1986,1.2268,1.2386,1.2238,1.1262,1.0453,0.9992,0.7606,0.5226,0.3031,0.0047,-0.2535,-0.4697,0.0,0.0,0.0,0.0,0.0,0.0,0.0,0.0,0.0,0.0,0.0,0.0,0.0,0.0,0.0,0.0,0.0,0.0,0.0,0.0,0.0,0.0,0.0,-0.0986,-0.1075,-0.1323,-0.2072,-0.1676,-0.1885,-0.3424,-0.3776,-0.4226,-0.4994,-0.5055,-0.5055,-0.5055,-0.4921,-0.4777,-0.4687,-0.4622,-0.4555,-0.4408,-0.4408,-0.4408,-0.4405,-0.368,-0.3345,-0.3289,-0.2508,-0.2174,-0.2119,-0.1396,-0.1062,-0.1006,-0.028,0.0,-0.0168,-0.1563,-0.1675,-0.1062,-0.1062,-0.1142,-0.1232,-0.1232,-0.1257,-0.11,-0.0237,0.0059,0.0059,0.0061,0.0589,0.1125,0.1162,0.166,0.223,0.2232,0.2788,0.34,0.34,0.3959,0.4519,0.4515,0.4515,0.4952,0.6372,0.6642,0.7074,0.8533,0.9361,1.0064,1.0712,1.1366,0.0,1.2888,1.2567,1.2309,1.2401,1.2461,1.2484,1.2473,1.2508,1.2473,1.2496,1.1073,0.9867,0.9037,0.6551,0.4178,0.2027,-0.1879,-0.4898,-0.6873,0.0,0.0,0.0,0.0,0.0,0.0,0.0,0.0,0.0,0.0,0.0,0.0,0.0,0.0,0.0,0.0,0.0,0.0,0.0,0.0,0.0,0.0,-0.0064,-0.0255,-0.0321,-0.0641,-0.1447,-0.1403,-0.1712,-0.2863,-0.3018,-0.3171,-0.3359,-0.3774,-0.4028,-0.4028,-0.3909,-0.3767,-0.3674,-0.3166,-0.2871,-0.2843,-0.2843,-0.2843,-0.2843,-0.2619,-0.2232,-0.173,-0.1507,-0.1118,-0.0616,-0.0392,-0.028,-0.028,-0.0056,0.0,-0.0056,-0.0448,-0.0504,-0.028,-0.028,-0.0338,-0.0341,-0.0341,-0.0343,-0.023,0.0569,0.0794,0.0909,0.1431,0.1755,0.19,0.1919,0.2023,0.2343,0.2899,0.3176,0.3456,0.407,0.4349,0.4625,0.5109,0.5218,0.5651,0.7128,0.7396,0.7723,0.8646,0.9762,1.0568,1.0762,1.1841,1.2667,1.2887,1.2536,1.2256,1.233,1.2384,1.2306,1.2027,1.2282,1.2325,1.1931,1.1175,1.0178,0.8964,0.6936,0.443,0.1396,-0.0553,-0.2309,0.0,0.0,0.0,0.0,0.0,0.0,0.0,0.0,0.0,0.0,0.0,0.0,0.0,0.0,0.0,0.0,0.0,0.0,0.0,0.0,0.0,0.0,0.0,0.0,0.0,0.0,-0.0193,-0.0697,-0.0751,-0.1103,-0.1957,-0.2095,-0.2232,-0.2592,-0.2962,-0.3163,-0.3163,-0.301,-0.2899,-0.2843,-0.2397,-0.2174,-0.2174,-0.2174,-0.2174,-0.2174,-0.1898,-0.1507,-0.1118,-0.0783,-0.0392,0.0,0.0,0.0168,0.0448,0.0448,0.0615,0.0838,0.0,0.0,0.0,0.0,0.0448,0.0504,0.0839,0.0895,0.1006,0.1396,0.1563,0.1619,0.2063,0.2454,0.2676,0.2676,0.2899,0.3289,0.3735,0.3846,0.4012,0.4728,0.4893,0.5113,0.5819,0.5982,0.6308,0.745,0.7723,0.0,0.9054,1.0115,1.0914,1.1166,1.2197,1.2881,1.2881,1.25,1.222,1.2246,1.2182,1.199,1.1768,1.2001,0.0,0.0,0.0,1.0188,0.8629,0.6821,0.0,0.0,0.0,0.0,0.0,0.0,0.0,0.0,-0.7978,-0.8665,0.0,0.0,0.0,0.0,0.0,0.0,0.0,0.0,0.0,0.0,0.0,0.0,0.0,0.0,0.0,0.0,0.0,0.0,0.0,0.0,0.0,0.0,0.0,-0.0232,-0.0898,-0.1091,-0.146,-0.2159,-0.2276,-0.2332,-0.2332,-0.2154,0.0,0.0,0.0,-0.1839,-0.1839,-0.1728,-0.1728,-0.1839,-0.106,-0.0726,-0.0726,-0.0056,0.0224,0.0224,0.0224,0.0615,0.1229,0.1229,0.1619,0.2063,0.0783,0.0224,0.0336,0.1006,0.1229,0.134,0.1953,0.0,0.0,0.2286,0.2343,0.2343,0.2454,0.2954,0.3511,0.3456,0.3959,0.4515,0.457,0.4625,0.4787,0.5487,0.5651,0.5814,0.6583,0.6799,0.7069,0.7771,0.7984,0.8448,0.9814,1.0466,1.1015,1.1715,1.2452,1.2881,1.2881,1.2549,1.2239,1.219,1.1991,0.0,1.1755,1.1783,1.1794,1.1828,1.1175,1.0031,0.8329,0.655,0.4632,0.2419,0.1058,-0.0324,-0.1728,-0.255,-0.2607,-0.2173,-0.5869,-0.74,0.0,0.0,0.0,0.0,0.0,0.0,0.0,0.0,0.0,0.0,0.0,0.0,0.0,0.0,0.0,0.0,0.0,0.0,0.0,0.0,0.0,0.0,0.0,-0.0058,-0.0225,-0.0225,-0.034,-0.0452,-0.1016,-0.1353,-0.1353,-0.1345,-0.106,-0.0445,0.0167,0.0447,0.0447,0.1059,0.1059,0.0447,0.1227,0.0,0.1561,0.1729,0.1786,0.1786,0.1786,0.1842,0.2009,0.2009,0.2063,0.2174,0.1898,0.1786,0.1786,0.1952,0.2009,0.2009,0.2174,0.2174,0.2286,0.2899,0.3065,0.3231,0.3846,0.4181,0.0,0.4294,0.4405,0.4625,0.5164,0.5328,0.5487,0.6204,0.6367,0.6583,0.7343,0.7913,0.8534,0.9235,0.985,1.0458,1.1292,1.1082,1.1015,1.1715,1.2452,1.2881,1.2881,1.2812,1.2617,1.2219,1.255,1.2622,1.2215,1.2235,1.2384,1.2728,1.1506,1.0392,0.9444,0.7466,0.5914,0.4819,0.3408,0.2211,0.1336,0.0,-0.089,-0.1396,-0.3929,-0.4422,0.0,0.0,0.0,0.0,0.0,0.0,0.0,0.0,0.0,0.0,0.0,0.0,0.0,0.0,0.0,0.0,0.0,0.0128,0.0495,0.054,0.0412,0.0059,0.0,0.0171,0.0505,0.056,0.0727,0.1062,0.0781,0.0557,0.0557,0.0557,0.0724,0.1113,0.1449,0.1675,0.1675,0.2009,0.2009,0.1675,0.2009,0.2174,0.2174,0.2174,0.2174,0.2174,0.2174,0.2452,0.2843,0.3176,0.3345,0.3345,0.3345,0.2899,0.2232,0.2619,0.2732,0.2788,0.3231,0.3345,0.34,0.379,0.3901,0.4012,0.4783,0.5003,0.5058,0.5445,0.5555,0.5609,0.5982,0.6036,0.6253,0.6966,0.7128,0.7343,0.8103,0.8514,0.8981,0.9658,1.0064,1.0618,1.1633,1.1525,1.1525,1.2246,1.2666,1.2881,1.2881,1.2881,1.2803,1.2578,1.2594,1.2487,1.2277,1.2292,1.2348,1.2385,1.1402,1.0501,0.9769,0.7741,0.6249,0.5521,0.4051,0.2954,0.2174,0.1448,0.0891,0.0502,-0.0607,-0.1492,0.0,0.0,0.0,0.0,0.0,0.0,0.0,0.0,0.0718,0.0124,0.0,0.0063,0.0194,0.0259,0.0258,0.0452,0.0447,0.0623,0.1242,0.1342,0.1106,0.0524,0.0455,0.0671,0.1229,0.134,0.1563,0.2174,0.2174,0.2174,0.2174,0.2174,0.2286,0.2397,0.2397,0.2397,0.2397,0.2565,0.2565,0.2454,0.2565,0.2621,0.2621,0.2621,0.2621,0.2676,0.2783,0.3226,0.384,0.4622,0.4897,0.4897,0.4897,0.4171,0.3116,0.3398,0.3511,0.3622,0.4294,0.457,0.4677,0.4677,0.4787,0.5007,0.5546,0.5706,0.5814,0.6421,0.6588,0.6642,0.6804,0.6804,0.7015,0.7931,0.809,0.8302,0.9047,0.9309,0.9562,1.0064,1.032,1.0728,1.1832,1.2021,1.2236,1.2822,1.2881,1.2881,1.2881,1.2881,1.2881,1.2881,1.2575,1.2355,1.2355,1.2351,1.2244,1.2003,1.1266,1.0568,1.0012,0.7966,0.646,0.5725,0.4433,0.3284,0.2454,0.2454,0.2343,0.2174,0.2174,0.0946,0.2695,0.1832,0.107,0.0986,0.0528,0.0119,0.0,0.0,0.0124,0.0,0.0,0.0259,0.0996,0.1047,0.1223,0.2059,0.209,0.2009,0.2053,0.2058,0.202,0.1964,0.1958,0.2009,0.2063,0.2063,0.212,0.2174,0.2174,0.2174,0.2174,0.2174,0.2508,0.3176,0.3176,0.3176,0.3176,0.3901,0.3901,0.3289,0.3901,0.4236,0.4236,0.4236,0.4236,0.4291,0.4886,0.521,0.532,0.6041,0.6372,0.6372,0.6372,0.6258,0.5977,0.4783,0.4349,0.4405,0.446,0.4893,0.5378,0.5378,0.5819,0.6372,0.648,0.6475,0.648,0.6588,0.6588,0.675,0.7396,0.7557,0.7931,0.9242,0.9555,0.9755,1.0415,1.1065,1.1466,1.1566,1.2098,1.2618,1.2774,1.2774,1.2822,1.2881,1.2881,1.2881,1.2881,1.2881,1.2881,1.2881,1.2929,1.2917,1.2917,1.2852,1.2822,1.2774,1.1534,1.0771,1.0712,0.8705,0.7235,0.6475,0.5651,0.4608,0.3289,0.3289,0.2899,0.2174,0.2174,0.2007,0.2677,0.2436,0.2349,0.0,0.1584,0.1926,0.1378,0.17,0.1913,0.1376,0.1399,0.1541,0.1787,0.1768,0.1869,0.0,0.2266,0.2387,0.2853,0.2925,0.3065,0.3511,0.3566,0.3345,0.2954,0.2843,0.301,0.3511,0.3566,0.3566,0.3566,0.3566,0.368,0.4012,0.4012,0.4012,0.4012,0.4349,0.4349,0.407,0.4725,0.5058,0.5109,0.555,0.5719,0.5714,0.6041,0.6145,0.6145,0.6475,0.6588,0.6588,0.6588,0.6588,0.6534,0.5937,0.5719,0.5719,0.5719,0.5932,0.6145,0.6145,0.6367,0.6696,0.7128,0.7235,0.7343,0.7777,0.7883,0.7937,0.8262,0.8321,0.858,0.9555,0.9814,0.9961,1.0661,1.1015,1.1316,1.1733,1.2039,1.2393,1.2832,1.2881,1.2881,1.2881,1.2881,1.2881,1.2881,1.2881,1.2881,1.2881,1.2944,1.2919,1.2919,1.2918,1.2725,1.2295,1.1325,1.0618,1.021,0.8606,0.7563,0.7235,0.6529,0.5651,0.4608,0.4608,0.4223,0.3566,0.3566,0.3566,0.3128,0.0,0.0,0.1999,0.2461,0.3021,0.2383,0.272,0.3009,0.2334,0.2313,0.246,0.259,0.2561,0.2587,0.2821,0.2849,0.3037,0.3635,0.368,0.3956,0.4677,0.4787,0.4673,0.4336,0.4058,0.4171,0.4732,0.4952,0.5062,0.5062,0.5062,0.5062,0.5062,0.5062,0.5062,0.5062,0.5062,0.5062,0.5062,0.5546,0.5814,0.5814,0.6367,0.6588,0.6588,0.6804,0.6912,0.6912,0.7128,0.7182,0.7182,0.7182,0.7182,0.7182,0.7182,0.6966,0.6588,0.6588,0.675,0.6912,0.6912,0.702,0.7289,0.783,0.7996,0.8156,0.8896,0.9061,0.9106,0.9316,0.9361,0.951,1.021,1.0364,1.0517,1.1225,1.1384,1.1534,1.2008,1.2089,1.2295,1.2822,1.2881,1.2881,1.2881,1.2881,1.2881,1.2881,1.2881,1.2881,1.2881,1.2881,1.2881,1.2881,1.2881,1.2666,1.2138,1.1475,1.0864,1.0364,0.902,0.819,0.7972,0.7283,0.6529,0.5814,0.5814,0.5546,0.5062,0.5062,0.5062,0.0,0.0,0.3322,0.3249,0.2753,0.2248,0.2193,0.221,0.2211,0.2211,0.2213,0.246,0.3378,0.3473,0.3635,0.4513,0.4509,0.4411,0.4463,0.446,0.4732,0.5378,0.5487,0.576,0.6421,0.5873,0.5429,0.5487,0.6145,0.6534,0.6534,0.6534,0.6534,0.6534,0.6534,0.6534,0.6534,0.6534,0.6534,0.6534,0.6534,0.6588,0.6588,0.6588,0.6588,0.6642,0.7343,0.767,0.7723,0.8427,0.8752,0.8752,0.8752,0.8752,0.8752,0.8752,0.783,0.6588,0.6588,0.7074,0.767,0.767,0.8156,0.8752,0.8752,0.8752,0.8903,0.9562,0.9762,0.9917,1.0559,1.0762,1.0914,1.1566,1.1765,1.1922,1.2666,1.2832,1.2822,1.2881,1.2881,1.2881,1.2881,1.2881,1.2881,1.2881,1.2881,1.2881,1.2881,1.2881,1.2881,1.2881,1.2881,1.2881,1.2881,1.2881,1.2881,1.2881,1.2187,1.1765,1.1765,1.0466,0.9384,0.8678,0.8025,0.7289,0.6588,0.6588,0.6534,0.6534,0.6534,0.6534,0.4563,0.0,0.4083,0.3468,0.3574,0.3854,0.3757,0.3809,0.3845,0.3762,0.3812,0.3904,0.4168,0.4172,0.4254,0.4538,0.4553,0.468,0.5109,0.5164,0.5437,0.615,0.6433,0.6636,0.6921,0.6504,0.6258,0.6258,0.648,0.6588,0.6588,0.6588,0.6588,0.6588,0.6588,0.6588,0.6588,0.6588,0.6588,0.6588,0.7074,0.7563,0.8049,0.8049,0.8049,0.8049,0.8321,0.8427,0.8427,0.8699,0.8804,0.8804,0.8804,0.8804,0.8804,0.8804,0.848,0.8049,0.8049,0.8209,0.8427,0.8427,0.8593,0.8804,0.8804,0.8804,0.8857,0.9061,0.9465,0.9865,1.0064,1.0466,1.0965,1.1665,1.1814,1.1972,1.2725,1.2881,1.2881,1.2881,1.2881,1.2881,1.2881,1.2881,1.2881,1.2881,1.2881,1.2881,1.2881,1.2881,1.2881,1.2881,1.2881,1.2881,1.2881,1.2881,1.2881,1.2881,1.2187,1.1814,1.1814,1.0517,0.9703,0.9436,0.8784,0.8049,0.7343,0.7343,0.7074,0.6588,0.6588,0.6588,0.5311,0.5072,0.4914,0.4581,0.4745,0.5027,0.5199,0.5314,0.5381,0.5441,0.5418,0.5381,0.5441,0.5429,0.5409,0.5293,0.5333,0.5516,0.5828,0.5873,0.6228,0.7083,0.7338,0.7632,0.8006,0.7813,0.7605,0.7327,0.7466,0.7526,0.7526,0.7447,0.7402,0.7402,0.7402,0.7402,0.7402,0.7402,0.7402,0.7396,0.7883,0.8321,0.8804,0.8804,0.8804,0.8804,0.8804,0.8804,0.8804,0.8804,0.8962,0.9159,0.9159,0.9316,0.951,0.951,0.951,0.9465,0.8962,0.8804,0.8857,0.9061,0.9159,0.9211,0.9465,0.951,0.9562,0.9814,1.0174,1.0584,1.083,1.1233,1.1683,1.2089,1.2187,1.2344,1.2774,1.2881,1.2881,1.2881,1.2881,1.2881,1.2881,1.2881,1.2881,1.2881,1.2881,1.2881,1.2881,1.2881,1.2968,1.32,1.3238,1.3238,1.3238,1.3238,1.3152,1.2929,1.2452,1.2187,1.2187,1.0872,1.0167,1.0167,0.9263,0.8586,0.8103,0.8103,0.783,0.7402,0.7402,0.7402,0.6642,0.6091,0.5706,0.6421,0.6091,0.576,0.6421,0.6598,0.6718,0.7043,0.6859,0.6728,0.7064,0.71,0.7023,0.6708,0.691,0.7033,0.6763,0.6668,0.7072,0.0,0.0,0.0,0.0,0.0,0.9428,0.877,0.9016,0.9183,0.9183,0.8965,0.8804,0.8804,0.8804,0.8804,0.8804,0.8804,0.8804,0.8804,0.8857,0.8857,0.8804,0.8857,0.891,0.8857,0.891,0.891,0.891,0.891,0.9256,0.9865,0.9865,1.0269,1.0813,1.0813,1.0813,1.0618,0.9361,0.891,0.9008,0.9666,0.9865,0.9969,1.0618,1.0813,1.0914,1.1566,1.1783,1.1959,1.2666,1.2881,1.2881,1.2881,1.2881,1.2881,1.2881,1.2881,1.2881,1.2881,1.2881,1.2881,1.2881,1.2881,1.2881,1.2881,1.2881,1.2881,1.2881,1.2881,1.3104,1.3684,1.3732,1.3732,1.3732,1.3732,1.3505,1.2929,1.2881,1.2881,1.2881,1.1584,1.0864,1.0864,0.951,0.8857,0.8857,0.8804,0.8804,0.8804,0.8804,0.8804,0.7402,0.6853,0.6367,0.6534,0.648,0.6367,0.6534,0.6769,0.7018,0.7079,0.7043,0.7069,0.7353,0.726,0.0,0.7233,0.7359,0.0,0.8011,0.7903,0.0,0.9189,0.0,0.9505,0.998,1.0207,0.0,1.0079,0.9537,0.9183,0.9183,0.8965,0.8804,0.8804,0.8804,0.8804,0.8804,0.8804,0.8804,0.8811,0.9316,0.9263,0.8857,0.9814,1.0012,0.9562,1.0064,1.0312,1.0312,1.0312,1.0415,1.0568,1.0568,1.0669,1.0813,1.0813,1.0813,1.0762,1.0415,1.0312,1.0312,1.0466,1.0568,1.0568,1.0771,1.0813,1.0864,1.1015,1.1416,1.1823,1.203,1.2501,1.2881,1.2881,1.2881,1.2881,1.2881,1.2881,1.2881,1.2881,1.2881,1.2881,1.2881,1.2881,1.2881,1.2881,1.2881,1.2881,1.2881,1.2881,1.2968,1.3104,1.3152,1.3152,1.3152,1.3152,1.3055,1.2929,1.2881,1.2881,1.2881,1.2039,1.1566,1.1566,1.0218,0.9562,0.9562,0.9061,0.8804,0.8804,0.8804,0.8804,0.8156,0.767,0.7182,0.7509,0.7343,0.7209,0.764,0.7888,0.8113,0.834,0.83,0.83,0.861,0.8634,0.8622,0.0,0.0,0.0,0.9219,0.9028,0.9131,0.0,0.9873,0.0,1.0281,1.0461,1.0744,1.1108,1.0089,0.9432,0.9432,0.9038,0.8804,0.8804,0.8804,0.8804,0.8804,0.9106,0.9263,0.9263,0.9917,1.0064,0.9718,1.0466,1.061,1.0261,1.0669,1.0813,1.0813,1.0813,1.0965,1.1266,1.1266,1.1425,1.1742,1.1742,1.1742,1.1742,1.1742,1.1742,1.1683,1.1316,1.1266,1.1316,1.1633,1.1742,1.1742,1.1742,1.199,1.2286,1.2286,1.2608,1.2881,1.2881,1.2881,1.2881,1.2881,1.2881,1.2881,1.2881,1.3104,1.319,1.2978,1.3104,1.319,1.2929,1.2881,1.2881,1.2881,1.2881,1.3017,1.3286,1.3286,1.3286,1.3286,1.3286,1.32,1.2929,1.2881,1.2881,1.2881,1.2187,1.1814,1.1814,1.0762,1.0115,0.9814,0.9413,0.9113,0.8804,0.8804,0.8804,0.8804,0.8321,0.7996,0.8646,0.8321,0.8063,0.9007,0.9216,0.9396,1.0,0.0,0.9833,1.012,1.0354,1.0441,1.0261,0.0,1.0541,1.0321,1.0007,0.9907,1.02,1.0167,1.0234,1.0598,1.0681,1.1045,1.1772,1.0709,1.002,1.002,0.948,0.9155,0.9061,0.9061,0.9061,0.9061,0.9666,0.9909,0.9969,1.061,1.0864,1.0813,1.0973,1.1023,1.0965,1.1023,1.1074,1.1074,1.1074,1.1425,1.1972,1.1972,1.2344,1.2881,1.2881,1.2881,1.2881,1.2881,1.2881,1.2774,1.2129,1.1972,1.208,1.2715,1.2881,1.2881,1.2881,1.2881,1.2881,1.2881,1.2881,1.2881,1.2881,1.2881,1.2881,1.2881,1.2968,1.3065,1.3113,1.3552,1.3732,1.3248,1.3552,1.3732,1.32,1.3162,1.3113,1.3017,1.2978,1.3104,1.3637,1.3684,1.3684,1.3684,1.3684,1.3467,1.292,1.2881,1.2881,1.2881,1.2295,1.1972,1.1972,1.1266,1.0669,1.0064,0.9961,0.9614,0.9061,0.9061,0.9061,0.8804,0.8699,0.8646,0.8752,0.8699,0.8718,0.9117,0.9426,0.0,0.0,1.0074,1.0134,1.0428,1.0321,1.0334,1.0768,1.0882,1.0982,1.1169,1.0742,1.0514,0.0,1.0414,1.0234,1.0598,1.1226,0.0,1.1772,1.162,1.1511,1.1511,1.1229,1.0874,1.0474,1.0466,1.0466,1.0466,1.0568,1.0618,1.061,1.1316,1.1366,1.0864,1.1999,1.2197,1.1665,1.2246,1.252,1.252,1.252,1.2618,1.2715,1.2715,1.2774,1.2881,1.2881,1.2881,1.2881,1.2881,1.2881,1.2881,1.2764,1.2715,1.2715,1.2871,1.2881,1.2881,1.2881,1.2881,1.2881,1.2881,1.2881,1.2881,1.2881,1.2881,1.2881,1.2881,1.3286,1.3779,1.4294,1.4468,1.4514,1.4433,1.4468,1.4514,1.4387,1.4387,1.4201,1.3684,1.319,1.2929,1.3065,1.3065,1.3065,1.3065,1.3065,1.3017,1.2929,1.2881,1.2881,1.2881,1.2774,1.2715,1.2715,1.1981,1.1566,1.1458,1.0914,1.0568,1.0466,1.0466,1.0466,0.9865,0.9865,0.9865,0.9865,0.9693,0.9634,0.9946,0.0,0.0,0.0,1.0347,1.0388,1.0598,1.0568,0.0,1.0942,1.0995,1.1096,1.1383,1.1511,1.1532,1.1609,1.1799,1.1919,1.1849,1.2212,1.2626,1.3053,1.3075,1.2757,1.1967,1.1428,1.1046,1.0821,1.0813,1.0813,1.0813,1.1166,1.1316,1.1316,1.2039,1.2197,1.19,1.2569,1.2715,1.2393,1.2774,1.2881,1.2881,1.2881,1.2881,1.2881,1.2881,1.2881,1.2881,1.2881,1.2881,1.2881,1.2881,1.2881,1.2881,1.2881,1.2881,1.2881,1.2881,1.2881,1.2881,1.2881,1.2881,1.2881,1.2881,1.2881,1.2881,1.2881,1.2881,1.2968,1.3286,1.36,1.3956,1.456,1.4971,1.505,1.4744,1.4971,1.505,1.4744,1.4698,1.4606,1.4329,1.4014,1.3621,1.2978,1.2881,1.2881,1.2881,1.2881,1.2881,1.2881,1.2881,1.2881,1.2881,1.2881,1.2881,1.2881,1.2559,1.2187,1.1814,1.1466,1.1166,1.0813,1.0813,1.0813,1.0813,1.0813,1.0813,1.0813,1.0685,1.0608,1.0887,1.0763,0.0,0.0,1.1115,1.1115,1.1115,0.0,1.143,0.0,1.1629,1.1776,1.2011,1.2513,1.2868,0.0,1.3244,0.0,1.3149,1.3233,1.3545,1.4145,1.4309,1.3807,1.2603,1.1799,1.1395,1.1395,1.1267,1.1225,1.1225,1.1774,1.203,1.203,1.2608,1.2881,1.2881,1.2881,1.2881,1.2881,1.2881,1.2881,1.2881,1.2881,1.2881,1.2881,1.2881,1.2881,1.2881,1.2881,1.2881,1.2881,1.2881,1.2881,1.2881,1.2881,1.2881,1.2881,1.2881,1.2881,1.2881,1.2881,1.2881,1.2881,1.2881,1.3027,1.3104,1.3248,1.3296,1.3467,1.405,1.4179,1.4365,1.4971,1.5466,1.5644,1.5152,1.5466,1.5644,1.5152,1.5107,1.5017,1.4926,1.488,1.4468,1.3382,1.3296,1.3248,1.3104,1.3104,1.3065,1.2929,1.2881,1.2881,1.2881,1.2881,1.2881,1.2881,1.2881,1.2608,1.203,1.203,1.1774,1.1225,1.1225,1.1225,1.0813,1.0813,1.0813,1.0813,1.1094,1.1457,1.1757,0.0,0.0,1.2692,1.2765,1.2765,1.2765,1.2789,1.2919,1.3171,0.0,1.3891,1.4179,1.44,1.4511,1.4443,0.0,0.0,1.3559,1.3865,1.4145,1.4204,1.4525,1.4693,1.455,1.3695,1.3234,1.3234,1.2918,1.2725,1.2725,1.2774,1.2774,1.2774,1.2881,1.2881,1.2881,1.2881,1.2881,1.2881,1.2881,1.2881,1.2881,1.2881,1.2881,1.2881,1.2881,1.2881,1.2881,1.2881,1.2881,1.2881,1.2881,1.2881,1.2881,1.2881,1.2881,1.2881,1.2881,1.2881,1.2881,1.2881,1.2881,1.2881,1.2881,1.3334,1.3873,1.4387,1.4525,1.4698,1.532,1.5443,1.5588,1.6194,1.638,1.638,1.6337,1.638,1.638,1.6337,1.6337,1.6151,1.5588,1.5543,1.5276,1.4606,1.4525,1.4294,1.3779,1.3732,1.3457,1.292,1.2881,1.2881,1.2881,1.2881,1.2881,1.2881,1.2881,1.2881,1.2774,1.2774,1.2774,1.2725,1.2725,1.2725,1.2049,1.2049,1.2104,1.2342,1.2386,1.2453,1.2837,0.0,1.2895,1.2976,1.3009,1.3009,1.3009,1.3009,1.3124,1.3479,1.3661,1.4023,1.4536,1.5369,1.5841,1.5451,1.5918,0.0,0.0,1.5224,1.5207,1.4951,1.5081,1.5156,1.5156,1.4346,1.3769,1.3516,1.335,1.3135,1.2881,1.2881,1.2881,1.2881,1.2881,1.2881,1.2881,1.2881,1.2881,1.2881,1.2881,1.2881,1.2881,1.2881,1.2881,1.2881,1.2881,1.2881,1.2881,1.2881,1.2881,1.2881,1.2881,1.3152,1.3372,1.3017,1.3614,1.4253,1.3242,1.2881,1.2881,1.2881,1.2881,1.2881,1.2881,1.3324,1.3862,1.4097,1.4422,1.496,1.5901,1.5846,1.5872,1.6873,1.676,1.6522,1.6522,1.6522,1.6522,1.6522,1.6522,1.6423,1.6194,1.6139,1.6051,1.5788,1.5107,1.4606,1.4376,1.4329,1.4097,1.3457,1.342,1.3286,1.2929,1.2881,1.2881,1.2881,1.2881,1.2881,1.2881,1.2881,1.2881,1.2881,1.2881,1.2881,1.3213,1.3252,1.332,1.3623,1.3578,1.3562,0.0,1.3817,1.3734,1.3734,1.3734,1.3734,1.3734,1.3734,1.3813,1.4083,1.4381,1.4766,1.5414,1.6578,1.7209,1.6945,0.0,1.7734,1.6562,1.6103,1.5742,1.543,1.541,1.541,1.541,1.4844,1.4316,1.3896,1.3643,1.3359,1.3066,1.2939,1.2881,1.2881,1.2881,1.2881,1.2881,1.3008,1.2998,1.2891,1.3018,1.2998,1.2881,1.2881,1.2881,1.2881,1.2881,1.2959,1.3066,1.3066,1.3283,1.3581,1.3581,1.4003,1.4478,1.4063,1.4763,1.5545,1.4314,1.3834,1.3603,1.3278,1.3152,1.32,1.3382,1.3873,1.4351,1.454,1.505,1.5717,1.6544,1.6417,1.6325,1.6985,1.6798,1.6522,1.6522,1.6522,1.6522,1.6522,1.6522,1.6522,1.6522,1.6522,1.6522,1.6522,1.5744,1.5152,1.4971,1.4971,1.4641,1.3862,1.3815,1.3552,1.2929,1.2881,1.2881,1.2881,1.2881,1.2881,1.2881,1.2881,1.2881,1.2881,1.2881,1.2881,1.3951,1.4068,1.4068,1.4077,1.4453,1.4775,0.0,1.5107,1.5352,1.5352,1.5352,1.5352,1.5352,1.5352,1.5352,1.5362,1.6091,1.6811,1.7324,1.8105,1.8718,0.0,1.8887,1.8301,1.7451,1.6191,1.542,1.541,1.541,1.541,1.541,1.54,1.5205,1.4785,1.3945,1.3506,1.3496,1.3086,1.2881,1.2881,1.2881,1.2881,1.2891,1.3311,1.3271,1.29,1.332,1.3262,1.2881,1.2881,1.2881,1.2881,1.2881,1.3135,1.3496,1.3496,1.4205,1.5174,1.5174,1.5698,1.6389,1.6389,1.6389,1.64,1.6389,1.5928,1.523,1.4084,1.3779,1.392,1.4525,1.5152,1.5718,1.6242,1.6858,1.7375,1.7388,1.7375,1.72,1.6635,1.6522,1.6522,1.6522,1.6522,1.6522,1.6522,1.6522,1.6522,1.6522,1.6522,1.6522,1.6522,1.6479,1.6238,1.5632,1.5588,1.5084,1.3862,1.3815,1.3552,1.2929,1.2881,1.2881,1.2881,1.2881,1.2881,1.2881,1.2881,1.2881,1.2881,1.2881,1.2881,1.397,1.4077,1.4209,1.4502,1.4687,1.4863,1.5146,1.5312,1.541,1.541,1.541,1.541,1.541,1.541,1.5703,1.6611,1.6992,0.0,1.8545,0.0,0.0,1.8896,1.8213,1.7559,1.6992,1.6279,1.5732,1.543,1.541,1.541,1.541,1.541,1.5215,1.4795,1.4521,1.4102,1.3516,1.3662,1.3447,1.2891,1.3467,1.3584,1.332,1.375,1.3857,1.375,1.3824,1.3691,1.3311,1.3311,1.3311,1.3311,1.3311,1.3564,1.3936,1.3936,1.4467,1.5184,1.5184,1.6003,1.6936,1.655,1.7193,1.803,1.725,1.6573,1.6029,1.5675,1.5277,1.5089,1.5736,1.5985,1.63,1.6884,1.748,1.794,1.794,1.7652,1.7438,1.7639,1.7375,1.7225,1.7601,1.7363,1.7112,1.7112,1.6773,1.6522,1.6522,1.6522,1.6522,1.6522,1.6522,1.6423,1.6238,1.6238,1.5864,1.5084,1.5039,1.4595,1.3552,1.3505,1.3324,1.2929,1.2881,1.2881,1.2881,1.2881,1.2881,1.2881,1.2881,1.2881,0.0,1.4619,1.4678,1.4951,1.5029,1.5088,1.5352,1.541,1.541,1.541,1.541,1.5459,1.5625,1.5654,1.5986,1.6973,1.7412,1.7949,0.0,0.0,0.0,1.918,1.8232,1.7451,1.7021,1.6426,1.5879,1.5449,1.541,1.5526,1.5806,1.5816,1.5847,1.5842,1.5189,1.4531,1.3994,1.4082,1.3877,1.3359,1.3887,1.3941,1.376,1.4189,1.4287,1.4087,1.4307,1.4141,0.0,1.375,1.3886,1.4133,1.4133,1.4551,1.5204,1.5204,1.5775,1.6536,1.6536,1.7271,1.8177,1.7814,1.8408,1.9146,1.8486,1.754,1.6799,1.7008,1.6653,1.6284,1.6657,1.6895,1.7157,1.7495,1.8044,1.8518,1.8518,1.8078,1.779,1.8141,1.7765,1.7551,1.8103,1.7915,1.7614,1.7413,1.7074,1.6773,1.6547,1.6522,1.6522,1.6522,1.6522,1.6522,1.6522,1.6522,1.6238,1.5632,1.5588,1.5174,1.419,1.4143,1.3967,1.361,1.3382,1.3238,1.3238,1.3017,1.2881,1.2881,1.2881,1.2881,0.0,1.541,1.541,1.541,1.541,1.541,1.541,1.5439,0.0,1.5459,1.5478,1.5644,1.6135,1.6194,1.6279,1.6787,1.7529,0.0,0.0,1.9385,0.0,0.0,1.8769,1.7832,1.7383,1.6592,1.5978,1.5498,1.541,1.5748,1.6539,1.6549,1.681,1.7578,1.5898,1.4972,1.4887,1.4459,1.4189,1.4077,1.4145,1.4155,1.4199,1.4629,1.4609,1.4248,1.4714,1.4635,1.4233,1.4277,1.4734,1.533,1.533,1.6046,1.7025,1.7025,1.7721,1.8715,1.8715,1.9202,1.9798,1.9798,1.9798,1.9798,1.9798,1.8721,1.7593,1.8161,1.7872,1.7448,1.7484,1.7872,1.8248,1.8248,1.8658,1.907,1.8983,1.8631,1.8267,1.8267,1.7852,1.7664,1.8229,1.8292,1.8078,1.7526,1.74,1.7174,1.6597,1.6522,1.6522,1.6522,1.6522,1.6522,1.6522,1.6522,1.6238,1.572,1.5676,1.5365,1.4789,1.4744,1.4744,1.4698,1.4097,1.3779,1.3732,1.3152,1.2881,1.2881,1.2881,1.2881,1.5293,0.0,1.541,1.541,1.541,1.541,0.0,1.5674,1.5908,1.5908,0.0,1.6553,1.6992,1.6797,1.6924,1.8018,1.8359,1.875,1.9512,1.9512,0.0,1.9434,1.8594,1.7715,1.6953,1.6699,1.6495,1.6269,1.57,1.5968,1.7246,1.6821,1.681,1.7578,1.7192,1.6524,1.5628,1.5821,1.533,1.4087,1.4795,1.4941,1.4648,1.5078,1.5205,1.5117,1.5843,1.5842,1.5517,1.6105,1.6422,1.658,1.658,1.6922,1.7465,1.7465,1.7966,1.8715,1.8715,1.9202,1.9798,1.9798,1.9798,1.9798,1.9798,1.952,1.9257,1.9371,1.9033,1.871,1.9107,1.9021,1.8908,1.9332,1.9508,1.951,1.912,1.8883,1.8832,1.8832,1.8731,1.8807,1.9334,1.9095,1.8643,1.8091,1.7652,1.7174,1.6597,1.6522,1.6522,1.6522,1.6522,1.6522,1.6522,1.6522,1.6423,1.6293,1.6281,1.6008,1.541,1.541,1.5186,1.4698,1.4097,1.3552,1.3104,1.2978,1.2881,1.2881,1.2881,1.2881,1.5293,1.5557,1.5703,1.5703,1.5703,1.5703,1.5703,0.0,0.0,0.0,0.0,0.0,0.0,0.0,0.0,0.0,1.8965,0.0,0.0,0.0,1.9287,1.9287,1.8535,1.7676,1.6753,1.6665,1.6665,1.6498,1.6151,1.6528,1.8015,1.7743,1.7852,1.8608,1.8608,1.7986,1.6689,1.6905,1.6554,1.5729,1.6175,1.629,1.6061,1.5971,1.5921,1.5921,1.5979,1.5894,1.5716,1.6492,1.6982,1.7295,1.7668,1.8095,1.8608,1.8608,1.8874,1.9202,1.9202,1.9475,1.9798,1.9798,1.9798,1.9798,1.9798,1.9798,1.9798,1.9798,1.9597,1.9447,1.9723,1.9597,1.9459,1.9736,1.9798,1.9723,1.9447,1.9146,1.9046,1.9334,1.9196,1.9196,1.971,1.9572,1.9208,1.8668,1.8329,1.784,1.7024,1.6911,1.681,1.6547,1.6522,1.6522,1.6522,1.6522,1.6522,1.6522,1.6522,1.6337,1.6008,1.5996,1.5732,1.5096,1.4503,1.392,1.3334,1.3065,1.2881,1.2881,1.2881,1.2881,1.5361,1.5879,1.6282,1.6016,1.6076,1.6125,1.6125,0.0,0.0,0.0,0.0,0.0,0.0,1.791,0.0,0.0,0.0,0.0,2.042,1.9785,1.9268,1.9199,1.8626,1.7866,1.6933,1.6971,1.7012,1.6828,1.6708,1.7302,1.8768,1.8768,1.9044,1.9798,1.9798,1.9202,1.7961,1.7852,1.7688,1.7578,1.7578,1.7578,1.7578,1.6922,1.6652,1.6652,1.614,1.5911,1.5968,1.6698,1.7357,1.8015,1.8608,1.9254,1.9798,1.9798,1.9798,1.9798,1.9798,1.9798,1.9798,1.9798,1.9798,1.9798,1.9798,1.9798,1.9798,1.9798,1.9798,1.9798,1.9798,1.9798,1.9798,1.9798,1.9798,1.9798,1.9798,1.9459,1.9284,1.971,1.9447,1.9284,1.9723,1.9798,1.9623,1.9058,1.8983,1.8656,1.7639,1.7438,1.7187,1.6697,1.6572,1.6522,1.6522,1.6522,1.6522,1.6522,1.6522,1.6522,1.6522,1.6522,1.6238,1.5632,1.5096,1.4514,1.3815,1.3286,1.2968,1.2881,1.2881,1.2881,1.5644,1.6562,1.6914,1.5791,1.5791,1.6125,1.6125,0.0,0.0,0.0,0.0,0.0,0.0,1.875,1.8916,0.0,0.0,2.0361,2.0059,1.96,1.915,1.8779,1.8968,1.8682,1.7709,1.828,1.8639,1.8356,1.7797,1.8058,1.9527,1.9044,1.9044,1.9798,1.9798,1.9695,1.9475,1.8821,1.8232,1.7578,1.7578,1.7578,1.7578,1.7468,1.7413,1.7468,1.795,1.8221,1.8274,1.8992,1.9371,1.9475,1.9579,1.9695,1.9798,1.9798,1.9798,1.9798,1.9798,1.9798,1.9798,1.9798,1.9798,1.9798,1.9798,1.9798,1.9798,1.9798,1.9798,1.9798,1.9798,1.9798,1.9798,1.9798,1.9798,1.9798,1.9798,1.9748,1.971,1.9786,1.9736,1.971,1.9786,1.9798,1.9623,1.9058,1.8983,1.8794,1.8166,1.7664,1.735,1.7262,1.681,1.6522,1.6522,1.6522,1.6522,1.6522,1.6522,1.6522,1.6522,1.6522,1.6238,1.5632,1.5499,1.4903,1.3815,1.3732,1.342,1.2881,1.2881,1.2881,1.5146,1.6182,1.6885,1.6279,1.6797,1.7393,1.7168,0.0,0.0,0.0,0.0,0.0,0.0,0.0,1.96,2.043,2.0566,2.041,1.9971,1.9551,1.9131,1.8691,1.8387,1.8175,1.7802,1.7995,1.8245,1.8667,1.8394,1.8661,1.9747,1.9475,1.9475,1.9798,1.9798,1.9798,1.9798,1.9475,1.915,1.8768,1.8768,1.8768,1.8768,1.8394,1.8167,1.8167,1.8112,1.8124,1.8167,1.8874,1.9202,1.9254,1.9631,1.9798,1.9798,1.9798,1.9798,1.9798,1.9798,1.9798,1.9798,1.9798,1.9798,1.9798,1.9798,1.9798,1.9798,1.9798,1.9798,1.9798,1.9798,1.9798,1.9798,1.9798,1.9798,1.9798,1.9798,1.9798,1.9798,1.9798,1.9798,1.9798,1.9798,1.9798,1.9723,1.9484,1.9447,1.9258,1.8719,1.843,1.8041,1.7451,1.7137,1.6861,1.6547,1.6522,1.6522,1.6522,1.6522,1.6522,1.6522,1.6522,1.638,1.6095,1.6053,1.5775,1.5219,1.4568,1.4098,1.3826,1.3174,1.2881,1.4785,1.5811,1.6665,1.6665,0.0,1.8184,1.8164,0.0,0.0,0.0,0.0,0.0,0.0,1.9717,0.0,2.0381,2.0498,2.0381,1.9844,1.9404,1.8936,1.8408,1.7965,1.7718,1.793,1.7787,1.8114,1.8922,1.898,1.9202,1.9747,1.9798,1.9798,1.9798,1.9798,1.9798,1.9798,1.9798,1.9798,1.9798,1.9798,1.9798,1.9798,1.9202,1.898,1.8939,1.834,1.8124,1.8167,1.8715,1.898,1.898,1.9579,1.9798,1.9798,1.9798,1.9798,1.9798,1.9798,1.9798,1.9798,1.9798,1.9798,1.9798,1.9798,1.9798,1.9798,1.9798,1.9798,1.9798,1.9798,1.9798,1.9798,1.9798,1.9798,1.9798,1.9798,1.9798,1.9798,1.9798,1.9798,1.9798,1.9798,1.9798,1.9798,1.9798,1.9798,1.966,1.9258,1.9058,1.8706,1.7852,1.7652,1.74,1.6948,1.6911,1.6911,1.6911,1.6785,1.6722,1.6722,1.6835,1.6848,1.6722,1.6773,1.675,1.661,1.5691,1.5165,1.5017,1.4146,1.3646,1.5137,1.6035,1.6665,1.6665,0.0,0.0,1.8251,1.8008,0.0,1.8994,0.0,0.0,0.0,1.9961,2.0391,2.0019,2.0303,2.0273,1.9453,1.8955,1.8379,1.7568,1.809,1.8436,1.8286,1.8975,1.9528,1.9733,1.9695,1.9747,1.9798,1.9798,1.9798,1.9798,1.9798,1.9798,1.9798,1.9798,1.9798,1.9798,1.9798,1.9798,1.9798,1.9747,1.9695,1.9695,1.9643,1.9643,1.9643,1.9695,1.9695,1.9747,1.9798,1.9798,1.9798,1.9798,1.9798,1.9798,1.9798,1.9798,1.9798,1.9798,1.9798,1.9798,1.9798,1.9798,1.9798,1.9798,1.9798,1.9798,1.9798,1.9798,1.9798,1.9798,1.9798,1.9798,1.9798,1.9798,1.9798,1.9798,1.9798,1.9798,1.9798,1.9798,1.9798,1.9798,1.9798,1.9786,1.9748,1.9334,1.8945,1.887,1.8455,1.8129,1.8091,1.8091,1.8091,1.8091,1.7601,1.7325,1.7325,1.7815,1.784,1.7325,1.7806,1.7784,1.7219,1.717,1.6828,1.6243,1.621,1.5841,1.4476,1.585,1.7139,1.7139,0.0,0.0,0.0,0.0,0.0,0.0,2.0088,0.0,0.0,0.0,2.0332,1.9639,1.9883,1.9863,1.9004,1.8516,1.8163,1.8066,1.7864,1.8089,1.8918,1.905,1.9262,1.9759,1.9798,1.9798,1.9798,1.9798,1.9798,1.9798,1.9798,1.9798,1.9798,1.9798,1.9798,1.9798,1.9798,1.9798,1.9798,1.9798,1.9798,1.9798,1.9798,1.9798,1.9798,1.9798,1.9798,1.9798,1.9798,1.9798,1.9798,1.9798,1.9798,1.9798,1.9798,2.0037,2.0275,1.9924,2.0037,2.0275,1.9911,1.9798,1.9798,1.9798,1.9798,1.9798,1.9798,1.9798,1.9798,1.9798,1.9798,1.9798,1.9798,1.9798,1.9798,1.9798,1.9798,1.9798,1.9798,1.9798,1.9798,1.9798,1.9798,1.9798,1.9798,1.9623,1.9384,1.907,1.853,1.8204,1.8204,1.8204,1.8355,1.8694,1.8191,1.789,1.789,1.8091,1.8103,1.7903,1.843,1.8609,1.8351,1.798,1.7668,1.7455,1.675,1.6079,1.4502,1.583,1.7207,0.0,0.0,0.0,0.0,0.0,0.0,2.0215,2.0254,0.0,0.0,0.0,0.0,1.918,1.9326,1.9258,1.8545,1.8271,1.8162,1.8072,1.78,1.7972,1.9042,1.8875,1.8992,1.9747,1.9798,1.9798,1.9798,1.9798,1.9798,1.9798,1.9798,1.9798,1.9798,1.9798,1.9798,1.9798,1.9798,1.9798,1.9798,1.9798,1.9798,1.9798,1.9798,1.9798,1.9798,1.9798,1.9798,1.9798,1.9798,1.9798,1.9798,1.9798,1.9798,1.9798,1.9798,2.0062,2.0351,2.015,2.0338,2.0668,2.0401,2.0213,2.0075,2.0075,1.9936,1.9798,1.9798,1.9798,1.9798,1.9798,1.9798,1.9798,1.9798,1.9798,1.9798,1.9798,1.9798,1.9798,1.9798,1.9798,1.9798,1.9798,1.9798,1.9798,1.9798,1.9798,1.966,1.9309,1.8932,1.8706,1.8706,1.8706,1.8869,1.9246,1.892,1.8631,1.8468,1.8631,1.8631,1.8468,1.8995,1.9271,1.9271,1.8843,1.8615,1.8615,1.7835,1.7147,1.5293,1.6055,1.6836,0.0,0.0,0.0,0.0,0.0,0.0,1.9648,0.0,1.9287,1.9277,1.8936,0.0,1.8633,1.8633,1.8486,1.8066,1.8258,1.8208,1.7298,1.7865,1.8396,1.8655,1.8715,1.898,1.9747,1.9798,1.9798,1.9798,1.9798,1.9798,1.9798,1.9798,1.9798,1.9798,1.9798,1.9798,1.9798,1.9798,1.9798,1.9798,1.9798,1.9798,1.9798,1.9798,1.9798,1.9798,1.9798,1.9798,1.9798,1.9798,1.9798,1.9798,1.9798,1.9798,1.9798,1.9798,1.9811,1.9911,2.0489,2.0731,2.0832,2.133,2.1104,2.0718,2.0718,2.025,1.9798,1.9811,1.9798,1.9798,1.9798,1.9798,1.9798,1.9798,1.9811,1.9811,1.9798,1.9811,1.9811,1.9798,1.9811,1.9811,1.9798,1.9798,1.9798,1.9798,1.9798,1.9798,1.9798,1.9798,1.9798,1.9798,1.9798,1.9798,1.9798,1.9798,1.9572,1.9008,1.9522,1.956,1.8995,1.9547,1.9798,1.9798,1.9798,1.9798,1.9798,1.9798,1.9522,1.5019,1.583,0.0,1.6894,0.0,0.0,0.0,1.8662,0.0,0.0,1.9375,1.9189,1.8887,1.8975,1.8896,1.8291,1.8903,1.9233,1.8486,1.8669,1.8862,1.8737,1.8629,1.8839,1.9436,1.9475,1.9579,1.9798,1.9798,1.9798,1.9798,1.9798,1.9798,1.9798,1.9798,1.9798,1.9798,1.9798,1.9798,1.9798,1.9798,1.9798,1.9798,1.9798,1.9798,1.9798,1.9798,1.9798,1.9798,1.9798,1.9798,1.9798,1.9798,1.9798,1.9798,1.9798,1.9798,1.9798,1.9798,2.0326,2.0953,2.074,2.1192,2.1782,2.1556,2.1104,2.0718,2.0718,2.025,1.9899,2.03,2.0112,1.9798,1.9798,1.9798,1.9798,1.9798,2.0125,2.0288,1.9874,2.0439,2.074,1.9936,2.0137,2.0275,1.9861,1.9798,1.9798,1.9798,1.9798,1.9798,1.9798,1.9798,1.9798,1.9798,1.9798,1.9798,1.9798,1.9798,1.9736,1.9572,1.9723,1.9736,1.9572,1.9723,1.9798,1.9798,1.9798,1.9798,1.9798,1.9798,1.9522,1.5791,1.6514,0.0,1.7385,1.7881,1.8262,1.8262,0.0,0.0,0.0,1.9023,1.8955,1.8682,1.8711,1.8555,1.7871,1.868,1.9055,1.8145,1.8714,1.9206,1.914,1.9131,1.9319,1.9747,1.9798,1.9798,1.9798,1.9798,1.9798,1.9798,1.9798,1.9798,1.9798,1.9798,1.9798,1.9798,1.9798,1.9798,1.9798,1.9798,1.9798,1.9798,1.9798,1.9798,1.9798,1.9798,1.9798,1.9798,1.9798,1.9798,1.9798,1.9798,1.9798,1.9798,1.9798,1.9798,1.9798,1.9798,2.025,2.084,2.0953,2.1443,2.2008,2.2108,2.1757,2.128,2.1054,2.074,2.0501,2.068,2.0577,2.0413,2.02,1.9962,1.9798,1.9798,2.0075,2.0213,1.9874,2.0539,2.0878,1.9962,2.0288,2.0517,1.9886,1.9798,1.9798,1.9798,1.9798,1.9798,1.9798,1.9798,1.9798,1.9798,1.9798,1.9798,1.9798,1.9798,1.9798,1.9798,1.9798,1.9798,1.9798,1.9798,1.9798,1.9798,1.9798,1.9798,1.9798,1.9798,1.9635,1.7061,0.0,0.0,1.8418,1.8555,0.0,1.8584,1.8555,1.8535,1.8574,0.0,1.8494,1.8525,1.8213,1.7812,1.7514,1.8063,1.8301,1.7487,1.8601,1.9309,1.8881,1.9371,1.9798,1.9798,1.9798,1.9798,1.9798,1.9798,1.9798,1.9798,1.9798,1.9798,1.9798,1.9798,1.9798,1.9798,1.9798,1.9798,1.9798,1.9798,1.9798,1.9798,1.9798,1.9798,1.9798,1.9798,1.9798,1.9798,1.9798,1.9798,1.9798,1.9798,1.9798,1.9798,1.9798,1.9798,1.9798,1.9798,1.9836,2.0049,2.1079,2.1443,2.1681,2.2686,2.2598,2.2058,2.1556,2.1418,2.1305,2.0907,2.1104,2.138,2.097,2.0376,1.9949,1.9949,1.9999,2.0012,1.9962,2.0426,2.0639,2.0062,2.0388,2.0592,1.9962,1.9836,1.9798,1.9798,1.9798,1.9798,1.9798,1.9798,1.9798,1.9798,1.9798,1.9798,1.9798,1.9798,1.9798,1.9798,1.9798,1.9798,1.9798,1.9798,1.9798,1.9798,1.9798,1.9798,1.9798,1.9798,1.9798,1.6387,1.667,0.0,0.0,1.79,1.8144,1.8144,1.7891,1.7744,1.8076,1.8144,1.8047,1.7715,1.7578,1.756,1.7665,1.843,1.8937,1.8908,1.9799,2.0225,1.9654,1.9695,1.9798,1.9798,1.9798,1.9798,1.9798,1.9798,1.9798,1.9798,1.9798,1.9798,1.9798,1.9798,1.9798,1.9798,1.9798,1.9798,1.9798,1.9798,1.9798,1.9798,1.9798,1.9798,1.9798,1.9798,1.9798,1.9798,1.9798,1.9798,1.9798,1.9798,1.9798,1.9798,1.9798,1.9798,1.9798,1.9798,2.01,2.0567,2.0819,2.1142,2.1531,2.1769,2.1455,2.0991,2.0878,2.084,2.097,2.123,2.1393,2.1568,2.1882,2.1531,2.1129,2.1129,2.1468,2.1644,2.1204,2.1581,2.1782,2.123,2.123,2.1129,2.0564,2.0087,1.9798,1.9798,1.9798,1.9798,1.9798,1.9798,1.9798,1.9798,1.9798,1.9798,1.9798,1.9798,1.9798,1.9798,1.9798,1.9798,1.9798,1.9798,1.9798,1.9798,1.9798,1.9798,1.9798,1.9798,1.9798,1.6641,0.0,0.0,1.7578,0.0,1.8008,1.8008,1.7686,1.7451,1.7666,1.7539,1.7334,1.7109,1.707,1.7169,1.7429,1.8175,1.8816,1.9038,1.9748,2.0137,1.9836,1.9798,1.9798,1.9798,1.9798,1.9798,1.9798,1.9798,1.9798,1.9798,1.9798,1.9798,1.9798,1.9798,1.9798,1.9798,1.9798,1.9798,1.9798,1.9798,1.9798,1.9798,1.9798,1.9798,1.9798,1.9798,1.9798,1.9798,1.9798,1.9798,1.9798,1.9798,1.9798,1.9798,1.9798,1.9798,1.9798,1.9798,1.9999,2.03,2.063,2.092,2.1142,2.1405,2.1468,2.1393,2.1142,2.1443,2.1845,2.1882,2.2083,2.2347,2.2636,2.2083,2.1493,2.1493,2.1707,2.1832,2.1543,2.1933,2.2133,2.1581,2.153,2.1345,2.081,2.0475,2.0144,1.985,1.9798,1.9911,2.0188,1.9962,1.9911,2.0188,1.9962,1.9798,1.9798,1.9798,1.9798,1.9798,1.9798,1.9798,1.9798,1.9798,1.9798,1.9798,1.9798,1.9798,1.9798,1.9798,1.9798,1.6758,0.0,1.7393,1.7881,1.8008,0.0,1.8008,1.7627,1.7275,1.7275,1.6982,1.6709,1.6631,1.6674,1.6898,1.72,1.7906,1.8496,1.8827,1.9423,1.9798,1.9798,1.9798,1.9798,1.9798,1.9798,1.9798,1.9798,1.9798,1.9798,1.9798,1.9798,1.9798,1.9798,1.9798,1.9798,1.9798,1.9798,1.9798,1.9798,1.9798,1.9798,1.9798,1.9798,1.9798,1.9798,1.9798,1.9798,1.9798,1.9798,1.9798,1.9798,1.9798,1.9798,1.9798,1.9798,1.9798,1.9798,1.9798,1.9798,1.9899,2.0476,2.0718,2.0819,2.133,2.1807,2.2071,2.1619,2.2221,2.2887,2.2435,2.2723,2.3078,2.3078,2.2435,2.1782,2.1782,2.1782,2.1782,2.1782,2.2248,2.2445,2.1932,2.1966,2.1904,2.1253,2.1121,2.0847,2.0191,2.01,2.0275,2.0752,2.0376,2.025,2.0693,2.0225,1.9911,1.9811,1.9798,1.9798,1.9798,1.9798,1.9798,1.9798,1.9798,1.9798,1.9798,1.9798,1.9798,1.9798,1.9798,1.9798,0.0,0.0,1.7012,0.0,1.8008,1.8008,0.0,0.0,1.6816,0.0,1.6714,1.6611,1.6221,1.6688,1.7238,1.7478,1.8162,1.8905,1.954,1.9747,1.9798,1.9798,1.9798,1.9798,1.9798,1.9798,1.9798,1.9798,1.9798,1.9798,1.9798,1.9798,1.9798,1.9798,1.9798,1.9798,1.9798,1.9798,1.9798,1.9798,1.9798,1.9798,1.9798,1.9798,1.9798,1.9798,1.9798,1.9798,1.9798,1.9798,1.9798,1.9798,1.9798,1.9798,1.9798,1.9798,1.9798,1.9798,1.9798,1.9798,1.9899,2.0476,2.0718,2.0819,2.133,2.1543,2.1581,2.1506,2.1945,2.2397,2.2334,2.2723,2.3078,2.3078,2.2965,2.2912,2.2912,2.2912,2.2912,2.2912,2.3495,2.3861,2.327,2.3676,2.3891,2.3157,2.2656,2.2086,2.1365,2.1255,2.1292,2.1368,2.1305,2.1104,2.0756,2.0655,2.0338,1.9836,1.9798,1.9798,1.9798,1.9798,1.9798,1.9798,1.9798,1.9798,1.9798,1.9798,1.9798,1.9798,1.9798,1.9798,1.5352,1.6279,1.7246,0.0,1.8008,1.8008,1.8008,1.7539,1.71,1.71,1.7014,1.682,1.6422,1.6564,1.7113,1.805,1.8501,1.898,1.9695,1.9798,1.9798,1.9798,1.9798,1.9798,1.9798,1.9798,1.9798,1.9798,1.9798,1.9798,1.9798,1.9798,1.9798,1.9798,1.9798,1.9798,1.9798,1.9798,1.9798,1.9798,1.9798,1.9798,1.9798,1.9798,1.9798,1.9798,1.9798,1.9798,1.9798,1.9798,1.9798,1.9798,1.9798,1.9798,1.9798,1.9798,1.9798,1.9849,2.0175,2.0288,2.0376,2.0941,2.1129,2.1179,2.1418,2.1707,2.1945,2.1945,2.2347,2.2774,2.2774,2.289,2.3078,2.3078,2.3078,2.3078,2.3078,2.3078,2.3078,2.3078,2.3365,2.369,2.3879,2.4204,2.4338,2.4082,2.354,2.291,2.2213,2.1746,2.1606,2.192,2.1669,2.1673,2.2153,2.1568,2.1094,2.0901,2.0525,2.0137,1.9811,1.9798,1.9798,1.9798,1.9798,1.9798,1.9798,1.9798,1.9798,1.9798,1.9798,1.9798,0.0,0.0,1.7061,1.7822,1.8008,1.8037,0.0,0.0,1.7448,1.769,1.7564,1.7423,1.7467,1.7253,1.7413,1.8501,1.8886,1.915,1.9695,1.9798,1.9798,1.9798,1.9798,1.9798,1.9798,1.9798,1.9798,1.9798,1.9798,1.9798,1.9798,1.9798,1.9798,1.9798,1.9798,1.9798,1.9798,1.9798,1.9798,1.9798,1.9798,1.9798,1.9798,1.9798,1.9798,1.9798,1.9798,1.9798,1.9798,1.9798,1.9798,1.9798,1.9798,1.9798,1.9798,1.9798,1.9798,1.9886,2.0464,2.0718,2.0832,2.1468,2.1694,2.1732,2.187,2.2196,2.2523,2.2523,2.2811,2.3078,2.3078,2.3078,2.3078,2.3078,2.3078,2.3078,2.3078,2.3078,2.3125,2.3365,2.3531,2.393,2.4724,2.5052,2.5173,2.5015,2.4493,2.3781,2.3136,2.239,2.2115,2.275,2.2433,2.2549,2.33,2.2515,2.1928,2.1707,2.123,2.0614,2.0037,2.0024,1.9949,1.9798,1.9798,1.9798,1.9798,1.9798,1.9798,1.9798,1.9798,1.9798,0.0,1.5478,0.0,1.7598,1.8008,1.8115,0.0,1.7969,1.7635,1.835,1.8228,1.843,1.9936,1.9282,1.8608,1.8715,1.9307,1.9747,1.9798,1.9798,1.9798,1.9798,1.9798,1.9798,1.9798,1.9798,1.9798,1.9798,1.9798,1.9798,1.9798,1.9798,1.9798,1.9798,1.9798,1.9798,1.9798,1.9798,1.9798,1.9798,1.9798,1.9798,1.9798,1.9798,1.9798,1.9798,1.9798,1.9798,1.9798,1.9798,1.9798,1.9798,1.9798,1.9798,1.9798,1.9798,1.9798,1.9886,2.0464,2.0718,2.084,2.192,2.2272,2.2372,2.2887,2.3015,2.3027,2.3027,2.3053,2.3078,2.3078,2.3078,2.3078,2.3078,2.3078,2.3078,2.3078,2.3078,2.3305,2.4118,2.4781,2.5508,2.6283,2.6953,2.7195,2.6505,2.5767,2.5024,2.4315,2.3513,2.3348,2.4124,2.4155,2.3975,2.3421,2.3355,2.2773,2.1579,2.1499,2.1204,2.0706,2.0668,2.0363,1.9811,1.9798,1.9798,1.9798,1.9798,1.9798,1.9798,1.9798,1.9798,0.0,0.0,0.0,1.7338,1.793,1.8334,1.8487,1.8573,1.8674,1.8992,1.9493,2.0128,2.0677,1.9939,1.9401,1.9912,1.988,1.9798,1.9798,1.9798,1.9798,1.9798,1.9798,1.9798,1.9798,1.9798,1.9798,1.9798,1.9798,1.9798,1.9798,1.9798,1.9798,1.9798,1.9798,1.9798,1.9798,1.9798,1.9798,1.9798,1.9798,1.9798,1.9798,1.9798,1.9798,1.9798,1.9798,1.9798,1.9798,1.9798,1.9798,1.9798,1.9798,1.9798,1.9798,1.9798,1.9798,1.9936,2.0865,2.1192,2.138,2.2485,2.2836,2.2874,2.3015,2.3078,2.3078,2.3078,2.3078,2.3078,2.3078,2.3078,2.3245,2.3767,2.3884,2.3989,2.4496,2.4221,2.4118,2.4851,2.5231,2.5618,2.6336,2.6721,2.6982,2.7188,2.6602,2.6014,2.5728,2.5063,2.4509,2.435,2.4292,2.42,2.3989,2.3515,2.3097,2.2743,2.228,2.1606,2.0756,2.0718,2.0441,1.9811,1.9798,1.9798,1.9798,1.9798,1.9798,1.9798,1.9798,1.9798,1.4168,0.0,0.0,0.0,1.8041,1.8552,1.9244,1.9447,1.9555,2.0041,2.0762,2.1391,2.1644,2.1049,2.0569,2.0673,2.0338,2.0024,1.9823,1.9798,1.9798,1.9798,1.9798,1.9798,1.9798,1.9798,1.9798,1.9798,1.9798,1.9798,1.9798,1.9798,1.9798,1.9798,1.9798,1.9798,1.9798,1.9798,1.9798,1.9798,1.9798,1.9798,1.9798,1.9798,1.9798,1.9798,1.9798,1.9798,1.9798,1.9798,1.9798,1.9798,1.9798,1.9798,1.9798,1.9798,1.9798,1.9962,2.1091,2.1493,2.1669,2.2774,2.3078,2.3078,2.3078,2.3078,2.3078,2.3078,2.3078,2.3078,2.3078,2.3305,2.3662,2.4176,2.4509,2.4851,2.5618,2.5175,2.4908,2.5618,2.5783,2.6,2.6721,2.6878,2.7049,2.7524,2.6982,2.651,2.651,2.5837,2.5231,2.4738,2.4681,2.4567,2.435,2.3826,2.3423,2.3314,2.2687,2.1895,2.1033,2.0819,2.0441,1.9811,1.9798,1.9798,1.9798,1.9798,1.9798,1.9798,1.9798,1.9798,0.0,0.0,0.0,0.0,0.0,0.0,2.0716,2.0415,2.0138,2.1572,2.1928,2.2175,2.2944,2.2698,2.1983,2.0945,2.0743,2.0517,1.9911,1.9811,1.9798,1.9798,1.9798,1.9798,1.9798,1.9798,1.9798,1.9798,1.9798,1.9798,1.9798,1.9798,1.9798,1.9798,1.9798,1.9798,1.9798,1.9798,1.9798,1.9798,1.9798,1.9798,1.9798,1.9798,1.9798,1.9798,1.9798,1.9798,1.9798,1.9798,1.9798,1.9798,1.9798,1.9798,1.9798,1.9798,1.9798,1.9962,2.1079,2.1481,2.1669,2.2761,2.3065,2.3078,2.3078,2.3078,2.3078,2.3078,2.3078,2.3138,2.3138,2.3708,2.435,2.435,2.4894,2.5618,2.639,2.596,2.5673,2.639,2.651,2.6774,2.7458,2.7625,2.7625,2.7625,2.6982,2.651,2.651,2.5892,2.5398,2.5398,2.5398,2.5063,2.435,2.4292,2.3943,2.3125,2.2623,2.2071,2.1506,2.0953,2.0441,1.9811,1.9798,1.9798,1.9798,1.9798,1.9798,1.9798,1.9798,1.9798,1.4098,0.0,0.0,0.0,0.0,0.0,1.9762,1.9959,2.0404,2.1625,2.208,2.2352,2.3002,2.2952,2.2673,2.197,2.1192,2.0668,2.0451,2.0075,1.9798,1.9798,1.9798,1.9798,1.9798,1.9798,1.9798,1.9798,1.9798,1.9798,1.9798,1.9798,1.9798,1.9798,1.9798,1.9798,1.9798,1.9798,1.9798,1.9798,1.9798,1.9798,1.9798,1.9798,1.9798,1.9798,1.9798,1.9798,1.9798,1.9798,1.9798,1.9798,1.9798,1.9798,1.9798,1.9798,1.9798,1.9911,2.0639,2.1154,2.1606,2.2309,2.2811,2.3078,2.3078,2.3078,2.3078,2.3078,2.3078,2.3245,2.3826,2.4509,2.5231,2.5728,2.6068,2.639,2.7137,2.7137,2.7034,2.7255,2.7306,2.7357,2.756,2.7625,2.7625,2.7625,2.7408,2.7306,2.7306,2.6654,2.6014,2.5453,2.5398,2.4894,2.3531,2.3943,2.3943,2.3125,2.2623,2.2071,2.1506,2.0953,2.0441,1.9811,1.9798,1.9798,1.9798,1.9798,1.9798,1.9798,1.9798,1.9798,0.0,0.0,0.0,0.0,0.0,0.0,2.0043,2.031,2.0742,2.1824,2.2355,2.2761,2.3015,2.3078,2.3025,2.2711,2.192,2.128,2.1041,2.0526,2.025,2.0476,2.0087,1.9899,2.0137,1.9936,1.9798,1.9798,1.9798,1.9798,1.9798,1.9798,1.9798,1.9798,1.9798,1.9798,1.9798,1.9798,1.9798,1.9798,1.9798,1.9798,1.9798,1.9798,1.9798,1.9798,1.9798,1.9798,1.9798,1.9798,1.9798,1.9798,1.9798,1.9798,1.9798,1.9798,1.9798,1.9886,2.0464,2.1029,2.1581,2.2133,2.2686,2.3078,2.3078,2.3078,2.3078,2.3078,2.3365,2.3767,2.4567,2.5287,2.5892,2.6014,2.6496,2.6982,2.7086,2.7357,2.7625,2.7625,2.7625,2.7625,2.7625,2.7625,2.7625,2.7625,2.7625,2.7625,2.7625,2.7203,2.6654,2.596,2.5563,2.4894,2.3708,2.3489,2.3257,2.2799,2.2058,2.1481,2.1154,2.0602,2.015,1.9811,1.9798,1.9798,1.9798,1.9798,1.9798,1.9798,1.9798,1.9798,0.0,1.7229,0.0,0.0,1.9095,0.0,2.0815,2.0928,2.0941,2.1933,2.2523,2.2874,2.2937,2.294,2.2965,2.2902,2.2636,2.2209,2.1656,2.1104,2.0995,2.143,2.0602,2.0175,2.0668,2.02,1.9874,1.9811,1.9798,1.9798,1.9798,1.9798,1.9798,1.9798,1.9798,1.9798,1.9798,1.9798,1.9798,1.9798,1.9798,1.9798,1.9798,1.9798,1.9798,1.9798,1.9798,1.9798,1.9798,1.9798,1.9798,1.9798,1.9798,1.9798,1.9798,1.9798,1.9798,1.9874,2.0388,2.0941,2.1481,2.197,2.2548,2.2977,2.2977,2.3027,2.3078,2.3078,2.3767,2.4567,2.5119,2.596,2.6443,2.5673,2.6587,2.7408,2.6774,2.7137,2.7625,2.7625,2.7625,2.7625,2.7625,2.7625,2.7625,2.7625,2.7625,2.7625,2.7625,2.7458,2.7086,2.6457,2.5728,2.4951,2.4234,2.3141,2.243,2.2322,2.133,2.0781,2.0718,2.0112,1.9798,1.9798,1.9798,1.9798,1.9798,1.9798,1.9798,1.9798,1.9798,1.9798,1.7164,1.8602,1.988,1.877,1.9698,0.0,1.971,2.0112,2.0781,2.0941,2.1121,2.128,2.1732,2.2171,2.2322,2.1882,2.2472,2.2786,2.2234,2.1681,2.1368,2.1481,2.1292,2.1029,2.0756,2.0618,2.03,1.9836,1.9798,1.9798,1.9798,1.9798,1.9798,1.9798,1.9798,1.9798,1.9798,1.9798,1.9798,1.9798,1.9798,1.9798,1.9798,1.9798,1.9798,1.9798,1.9798,1.9798,1.9798,1.9798,1.9798,1.9798,1.9798,1.9798,1.9798,1.9798,1.9798,1.9823,1.9924,2.0338,2.084,2.0953,2.1656,2.2472,2.2472,2.2786,2.3078,2.3078,2.4105,2.5063,2.4624,2.5932,2.7188,2.6443,2.6982,2.756,2.7408,2.7509,2.7625,2.7625,2.7625,2.7625,2.7625,2.7625,2.7625,2.7625,2.7625,2.7625,2.7625,2.6534,2.5783,2.5618,2.4951,2.4163,2.3424,2.3664,2.3463,2.2405,2.1694,2.1129,2.0743,2.0112,1.9798,1.9798,1.9798,1.9798,1.9798,1.9798,1.9798,1.9798,1.9798,1.9798,1.8064,1.9111,2.0112,1.9572,1.9849,0.0,0.0,2.0049,2.0388,2.0953,2.0907,2.0936,2.1754,2.1703,2.1504,2.1473,2.2166,2.264,2.2398,2.2109,2.1995,2.2284,2.1832,2.1493,2.1493,2.1242,2.0953,2.0665,2.0639,2.0526,2.025,2.0238,2.01,1.9811,1.9798,1.9798,1.9798,1.9798,1.9798,1.9798,1.9798,1.9798,1.9798,1.9798,1.9798,1.9798,1.9798,1.9798,1.9798,1.9798,1.9798,1.9798,1.9798,1.9798,1.9798,1.9798,1.9798,1.9798,1.9798,2.0188,2.0718,2.0718,2.1418,2.2309,2.2309,2.2698,2.3185,2.3603,2.4279,2.4951,2.5287,2.6215,2.693,2.6616,2.7034,2.7509,2.7137,2.7357,2.7625,2.7625,2.7625,2.7625,2.7625,2.7625,2.7625,2.7625,2.7625,2.7458,2.71,2.639,2.5783,2.5453,2.4738,2.4118,2.3708,2.3451,2.3007,2.2334,2.1543,2.0953,2.0731,2.0112,1.9798,1.9798,1.9798,1.9798,1.9798,1.9798,1.9798,1.9798,1.9798,1.9798,1.8927,1.9445,2.0049,2.0401,1.9999,1.9648,0.0,0.0,0.0,2.0865,2.074,2.0787,2.1637,2.11,2.0648,2.1095,2.1648,2.2046,2.2217,2.2275,2.2521,2.3077,2.2342,2.1945,2.2284,2.1807,2.1493,2.1493,2.1493,2.1292,2.0907,2.0781,2.0504,1.9987,1.9861,1.9798,1.9798,1.9798,1.9798,1.9798,1.9798,1.9798,1.9798,1.9798,1.9798,1.9798,1.9798,1.9798,1.9798,1.9798,1.9798,1.9798,1.9798,1.9798,1.9798,1.9798,1.9798,1.9798,1.9798,2.0112,2.0555,2.0555,2.1179,2.2033,2.2246,2.2623,2.3106,2.3859,2.4292,2.4738,2.5783,2.639,2.6669,2.651,2.7034,2.7458,2.6826,2.7203,2.7625,2.7625,2.7625,2.7625,2.7625,2.7625,2.7625,2.7625,2.7458,2.7152,2.6563,2.6229,2.5837,2.5231,2.4509,2.406,2.406,2.3063,2.2385,2.2171,2.1317,2.0781,2.0567,2.0049,1.9798,1.9798,1.9798,1.9798,1.9798,1.9798,1.9798,1.9798,1.9798,1.9798,0.0,0.0,2.0517,2.0012,2.0564,2.0865,1.9522,0.0,2.0326,1.9484,0.0,1.9924,2.0078,0.0,0.0,1.9989,2.0479,2.1085,2.1616,2.2101,2.2622,2.3197,2.3051,2.2786,2.2347,2.1807,2.1493,2.1493,2.1493,2.1455,2.1393,2.0983,2.0693,2.0618,2.0075,1.9798,1.9798,1.9798,1.9798,1.9798,1.9798,1.9798,1.9798,1.9798,1.9798,1.9798,1.9798,1.9798,1.9798,1.9798,1.9798,1.9798,1.9798,1.9798,1.9798,1.9798,1.9798,1.9798,1.9798,1.9849,1.9899,1.9899,2.0338,2.1041,2.202,2.2347,2.251,2.3059,2.4208,2.5175,2.4681,2.5986,2.7306,2.6669,2.7034,2.7575,2.7509,2.756,2.7625,2.7625,2.7625,2.7625,2.7625,2.7625,2.7625,2.7625,2.7034,2.6616,2.651,2.5342,2.4509,2.4452,2.3708,2.3258,2.3258,2.3075,2.2623,2.1644,2.1468,2.0941,1.9936,1.9836,1.9798,1.9798,1.9798,1.9798,1.9798,1.9798,1.9798,1.9798,1.9798,1.9798,0.0,1.9974,2.0188,2.0275,2.0413,2.0413,2.0062,2.0075,2.0125,1.9999,0.0,0.0,0.0,0.0,0.0,0.0,2.1209,2.1891,2.218,2.2651,2.307,2.3326,2.2939,2.2585,2.2309,2.2108,2.2096,2.2422,2.2146,2.197,2.197,2.1744,2.133,2.0743,2.0426,2.0137,1.9798,1.9798,1.9798,1.9798,1.9798,1.9798,1.9798,1.9798,1.9798,1.9798,1.9798,1.9798,1.9798,1.9798,1.9798,1.9798,1.9798,1.9798,1.9798,1.9798,1.9798,1.9798,1.9798,1.9798,1.9861,2.0188,2.0464,2.092,2.197,2.2083,2.2122,2.3405,2.4028,2.4448,2.5356,2.6283,2.6982,2.7086,2.7357,2.7625,2.7625,2.7625,2.7625,2.7625,2.7625,2.7625,2.7625,2.7625,2.7625,2.7625,2.7357,2.6982,2.6563,2.5563,2.4794,2.435,2.3603,2.3078,2.3078,2.3078,2.2799,2.202,2.1368,2.0639,1.9836,1.9798,1.9798,1.9798,1.9798,1.9798,1.9798,1.9798,1.9798,1.9798,1.9798,1.9798,1.9798,1.9798,1.9911,2.0326,2.0112,1.9874,2.0162,1.9999,1.9925,2.0398,2.0367,0.0,0.0,0.0,0.0,0.0,0.0,2.2261,2.2646,2.2856,2.3039,2.3372,2.2976,2.2561,2.2329,2.2309,2.2535,2.3027,2.2623,2.2372,2.2523,2.2397,2.1945,2.1142,2.0869,2.0464,2.0037,1.9874,1.9798,1.9798,1.9798,1.9798,1.9798,1.9798,1.9798,1.9798,1.9798,1.9798,1.9798,1.9798,1.9798,1.9798,1.9798,1.9798,1.9798,1.9798,1.9798,1.9798,1.9798,1.9798,1.9874,2.0288,2.0426,2.0602,2.1568,2.1693,2.1831,2.3358,2.3872,2.434,2.583,2.6524,2.693,2.7458,2.7625,2.7625,2.7625,2.7625,2.7625,2.7625,2.7625,2.7625,2.7625,2.7625,2.7625,2.7625,2.7408,2.7034,2.6283,2.5563,2.4781,2.406,2.3424,2.3078,2.3078,2.3,2.2611,2.1907,2.0966,2.0238,1.9823,1.9798,1.9798,1.9798,1.9798,1.9798,1.9798,1.9798,1.9798,1.9798,1.9798,1.9798,1.9798,1.9798,1.9811,1.9823,1.9811,1.9673,1.9196,1.9459,1.9851,2.0,2.0413,2.0966,2.1554,0.0,0.0,0.0,0.0,0.0,0.0,2.216,2.2202,2.3374,2.3348,2.3046,2.2355,2.2309,2.2535,2.3027,2.2623,2.2548,2.3075,2.2598,2.2297,2.2259,2.123,2.0706,2.0693,2.0075,1.9798,1.9798,1.9798,1.9798,1.9798,1.9798,1.9798,1.9798,1.9798,1.9798,1.9798,1.9798,1.9798,1.9798,1.9798,1.9798,1.9798,1.9798,1.9798,1.9798,1.9798,1.9798,1.9798,1.9823,1.9823,1.9936,2.0539,2.1157,2.1721,2.2311,2.3912,2.5466,2.5494,2.6549,2.7575,2.7575,2.7625,2.7625,2.7625,2.7625,2.7625,2.7625,2.7625,2.7625,2.7625,2.7625,2.7625,2.7625,2.6982,2.6283,2.5508,2.4794,2.4002,2.3185,2.3138,2.3078,2.3078,2.2648,2.1882,2.0844,2.0162,1.9823,1.9798,1.9798,1.9798,1.9798,1.9798,1.9798,1.9798,1.9798,1.9798,1.9798,1.9798,1.9798,1.8744,1.8744,1.8832,1.9196,1.9007,1.8794,1.8933,1.9171,1.9433,1.9882,2.0758,2.1472,2.1649,0.0,0.0,0.0,0.0,0.0,0.0,2.2123,2.1852,2.2246,2.292,0.0,2.1925,2.1809,2.1995,2.2548,2.2422,2.2548,2.304,2.3326,2.3088,2.2334,2.1594,2.1041,2.0718,2.0087,1.9798,1.9798,1.9798,1.9798,1.9798,1.9798,1.9798,1.9798,1.9798,1.9798,1.9798,1.9798,1.9798,1.9798,1.9798,1.9798,1.9798,1.9798,1.9798,1.9798,1.9798,1.9798,1.9798,1.9798,1.9798,1.9911,2.0542,2.0849,2.1284,2.226,2.3049,2.3858,2.4733,2.5625,2.6373,2.6817,2.726,2.7625,2.7625,2.7625,2.7625,2.7625,2.7625,2.7625,2.7625,2.7625,2.7625,2.7625,2.6982,2.6404,2.6176,2.4709,2.373,2.3904,2.3094,2.2585,2.2585,2.1744,2.1066,2.0743,2.0125,1.9798,1.9798,1.9798,1.9798,1.9798,1.9798,1.9798,1.9798,1.9798,1.9798,1.9798,1.9798,1.9798,1.8204,1.8204,1.8292,1.8643,1.8468,1.8292,1.8656,1.9065,1.9533,2.0161,2.1263,2.2146,2.2317,0.0,0.0,0.0,0.0,0.0,0.0,2.2353,2.223,2.1739,2.2325,0.0,0.0,2.146,2.1594,2.2535,2.2422,2.2648,2.3401,2.3803,2.3665,2.2937,2.1983,2.1317,2.0966,2.0188,1.9798,1.9798,1.9798,1.9798,1.9798,1.9798,1.9798,1.9798,1.961,1.9522,1.9522,1.9522,1.9522,1.9547,1.9736,1.9798,1.9798,1.9798,1.9798,1.9798,1.9798,1.9798,1.9798,1.9798,1.9798,1.9874,2.0238,2.0553,2.0954,2.1744,2.2487,2.3237,2.4134,2.497,2.5712,2.6132,2.6752,2.7215,2.7215,2.741,2.7625,2.7625,2.7625,2.755,2.726,2.7208,2.7203,2.7203,2.6622,2.5993,2.5446,2.4217,2.3405,2.3319,2.2687,2.2159,2.1757,2.1079,2.063,2.0376,2.0012,1.9798,1.9798,1.9798,1.9798,1.9798,1.9798,1.9798,1.9798,1.9798,1.9798,1.9798,1.9798,1.9798]},{"header":{"parameterUnit":"m.s-1","parameterCategory":1,"la1":30.6,"la2":29.2853,"lo1":-89.7004,"lo2":-87.6739,"dy":0.0162,"dx":0.0183,"nx":112,"ny":82,"refTime":"2024-08-16T06:00:00:Z","depth":0,"parameterNumber":3,"parameterNumberName":"V-component_of_WINDS"},"data":[0.0,0.0,0.0,0.0,0.0,0.0,0.0,0.0,0.0,0.0,0.0,0.0,0.0,0.0,0.0,0.0,0.0,0.0,0.0,0.0,0.0,0.0,0.0,0.0,0.0,0.0,0.0,0.0,0.0,0.0,0.0,0.0,0.0,0.0,0.0,0.0,0.0,0.0,0.0,0.0,0.0,0.0,0.0,0.0,0.0,0.0,0.0,0.0,0.0,0.0,0.0,0.0,0.0,0.0,0.0,0.0,0.0,0.0,0.0,0.0,0.0,0.0,0.0,0.0,0.0,0.0,0.0,0.0,0.0,0.0,0.0,0.0,0.0,0.0,0.0,0.0,0.0,0.0,0.0,0.0,0.0,0.0,0.0,0.0,0.0,0.0,0.0,0.0,0.0,0.0,1.1288,1.021,0.7847,0.5976,0.5063,0.443,0.3001,0.0474,0.0,0.0,0.0,0.0,0.0,0.0,0.0,0.0,0.0,0.0,0.0,0.0,0.0,0.0,0.0,0.0,0.0,0.0,0.0,0.0,0.0,0.0,0.0,0.0,0.0,0.0,0.0,0.0,0.0,0.0,0.0,0.0,0.0,0.0,0.0,0.0,0.0,0.0,0.0,0.0,0.0,0.0,0.0,0.0,0.0,0.0,0.0,0.0,0.0,0.0,0.0,0.0,0.0,0.0,0.0,0.0,0.0,0.0,0.0,0.0,0.0,0.0,0.0,0.0,0.0,0.0,0.0,0.0,0.0,0.0,0.0,0.0,0.0,0.0,0.0,0.0,0.0,0.0,0.0,0.0,0.0,0.0,0.0,0.0,0.0,0.0,0.0,0.0,0.0,0.0,0.0,0.0,0.0,0.0,0.0,0.0,0.0,0.0,0.0,0.0,0.0,0.0,0.0,0.0,1.0516,0.7377,0.6546,0.5721,0.4435,0.3944,0.2747,0.0521,0.0,0.0,0.0,0.0,0.0,0.0,0.0,0.0,0.0,0.0,0.0,0.0,0.0,0.0,0.0,0.0,0.0,0.0,0.0,0.0,0.0,0.0,0.0,0.0,0.0,0.0,0.0,0.0,0.0,0.0,0.0,0.0,0.0,0.0,0.0,0.0,0.0,0.0,0.0,0.0,0.0,0.0,0.0,0.0,0.0,0.0,0.0,0.0,0.0,0.0,0.0,0.0,0.0,0.0,0.0,0.0,0.0,0.0,0.0,0.0,0.0,0.0,0.0,0.0,0.0,0.0,0.0,0.0,0.0,0.0,0.0,0.0,0.0,0.0,0.0,0.0,0.0,0.0,0.0,0.0,0.0,0.0,0.0,0.0,0.0,0.0,0.0,0.0,0.0,0.0,0.0,0.0,0.0,0.0,0.0,0.0,0.0,0.0,0.0,0.0,0.0,0.0,0.0,1.1776,0.9953,0.6646,0.6222,0.5587,0.399,0.3086,0.1926,0.0275,-0.1614,0.0,0.0,0.0,0.0,0.0,0.0,0.0,0.0,0.0,0.0,0.0,0.0,0.0,0.0,0.0,0.0,0.0,0.0,0.0,0.0,0.0,0.0,0.0,0.0,0.0,0.0,0.0,0.0,0.0,0.0,0.0,0.0,0.0,0.0,0.0,0.0,0.0,0.0,0.0,0.0,0.0,0.0,0.0,0.0,0.0,0.0,0.0,0.0,0.0,0.0,0.0,0.0,0.0,0.0,0.0,0.0,0.0,0.0,0.0,0.0,0.0,0.0,0.0,0.0,0.0,0.0,0.0,0.0,0.0,0.0,0.0,0.0,0.0,0.0,0.0,0.0,0.0,0.0,0.0,0.0,0.0,0.0,0.0,0.0,0.0,0.0,0.0,0.0,0.0,0.0,0.0,0.0,0.0,0.0,0.0,0.0,0.0,0.0,0.0,0.0,0.0,0.0,1.18,0.9857,0.6773,0.6299,0.551,0.3739,0.2251,0.0735,-0.0754,-0.3715,0.0,0.0,0.0,0.0,0.0,0.0,0.0,0.0,0.0,0.0,0.0,0.0,0.0,0.0,0.0,0.0,0.0,0.0,0.0,0.0,0.0,0.0,0.0,0.0,0.0,0.0,0.0,0.0,0.0,0.0,0.0,0.0,0.0,0.0,0.0,0.0,0.0,0.0,0.0,0.0,0.0,0.0,0.0,0.0,0.0,0.0,0.0,0.0,0.0,0.0,0.0,0.0,0.0,0.0,0.0,0.0,0.0,0.0,0.0,0.0,0.0,0.0,0.0,0.0,0.0,0.0,0.0,0.0,0.0,0.0,0.0,0.0,0.0,0.0,0.0,0.0,0.0,0.0,0.0,0.0,0.0,0.0,0.0,0.0,0.0,0.0,0.0,0.0,0.0,0.0,0.0,0.0,0.0,0.0,0.0,0.0,0.0,0.0,0.0,0.0,0.0,0.0,1.2483,1.0507,0.7456,0.6571,0.5514,0.3753,0.1471,-0.0843,-0.3111,-0.4912,0.0,0.0,0.0,0.0,0.0,0.0,0.0,0.0,0.0,0.0,0.0,0.0,0.0,0.0,0.0,0.0,0.0,0.0,0.0,0.0,0.0,0.0,0.0,0.0,0.0,0.0,0.0,0.0,0.0,0.0,0.0,0.0,0.0,0.0,0.0,0.0,0.0,0.0,0.0,0.0,0.0,0.0,0.0,0.0,0.0,0.0,0.0,0.0,0.0,0.0,0.0,0.0,0.0,0.0,0.0,0.0,0.0,0.0,0.0,0.0,0.0,0.0,0.0,0.0,0.0,0.0,0.0,0.0,0.0,0.0,0.0,0.0,0.0,0.0,0.0,0.0,0.0,0.0,0.0,0.0,0.0,0.0,0.0,0.0,0.0,0.0,0.0,0.0,0.0,0.0,0.0,0.0,0.0,0.0,0.0,0.0,0.0,0.0,0.0,0.0,0.0,0.0,1.2602,1.0505,0.8024,0.6625,0.5264,0.3714,0.2089,0.0,-0.2607,0.0,0.0,0.0,0.0,0.0,0.0,0.0,0.0,0.0,0.0,0.0,0.0,0.0,0.0,0.0,0.0,0.0,0.0,0.0,0.0,0.0,0.0,0.0,0.0,0.0,0.0,0.0,0.0,0.0,0.0,0.0,0.0,0.0,0.0,0.0,0.0,0.0,0.0,0.0,0.0,0.0,0.0,0.0,0.0,0.0,0.0,0.0,0.0,0.0,0.0,0.0,0.0,0.0,0.0,0.0,0.0,0.0,0.0,0.0,0.0,0.0,0.0,0.0,0.0,0.0,0.0,0.0,0.0,0.0,0.0,0.0,0.0,0.0,0.0,0.0,0.0,0.0,0.0,0.0,0.0,0.0,0.0,0.0,0.0,0.0,0.0,0.0,0.0,0.0,0.0,0.0,0.0,0.0,0.0,0.0,0.0,0.0,0.0,0.0,0.0,0.0,0.0,1.4852,1.3086,1.0956,0.8665,0.6948,0.5316,0.3659,0.2337,0.0484,-0.2246,0.0,0.0,0.0,0.0,0.0,0.0,0.0,0.0,0.0,0.0,0.0,0.0,0.0,0.0,0.0,0.0,0.0,0.0,0.0,0.0,0.0,0.0,0.0,0.0,0.0,0.0,0.0,0.0,0.0,0.0,0.0,0.0,0.0,0.0,0.0,0.0,0.0,0.0,0.0,0.0,0.0,0.0,0.0,0.0,0.0,0.0,0.0,0.0,0.0,0.0,0.0,0.0,0.0,0.0,0.0,0.0,0.0,0.0,0.0,0.0,0.0,0.0,0.0,0.0,0.0,0.0,0.0,0.0,0.0,0.0,0.0,0.0,0.0,0.0,0.0,0.0,0.0,0.0,0.0,0.0,0.0,0.0,0.0,0.0,0.0,0.0,0.0,0.0,0.0,0.0,0.0,0.0,0.0,0.0,0.0,0.0,0.0,0.0,0.0,0.0,0.0,0.0,1.5579,1.4027,1.2029,0.9388,0.7607,0.5717,0.3502,0.2029,0.013,0.0,0.0,0.0,0.0,0.0,0.0,0.0,0.0,0.0,0.0,0.0,0.0,0.0,0.0,0.0,0.0,0.0,0.0,0.0,0.0,0.0,0.0,0.0,0.0,0.0,0.0,0.0,0.0,0.0,0.0,0.0,0.0,0.0,0.0,0.0,0.0,0.0,0.0,0.0,0.0,0.0,0.0,0.0,0.0,0.0,0.0,0.0,0.0,0.0,0.0,0.0,0.0,0.0,0.0,0.0,0.0,0.0,0.0,0.0,0.0,0.0,0.0,0.0,0.0,0.0,0.0,0.0,0.0,0.0,0.0,0.0,0.0,0.0,0.0,0.0,0.0,0.0,0.0,0.0,0.0,0.0,0.0,0.0,0.0,0.0,0.0,0.0,0.0,0.0,0.0,0.0,0.0,0.0,0.0,0.0,0.0,0.0,0.0,0.0,0.0,0.0,0.0,0.0,1.6128,1.4427,1.251,1.0535,0.8238,0.6403,0.5246,0.3554,0.1382,-0.1357,0.0,0.0,0.0,0.0,0.0,0.0,0.0,0.0,0.0,0.0,0.0,0.0,0.0,0.0,0.0,0.0,0.0,0.0,0.0,0.0,0.0,0.0,0.0,0.0,0.0,0.0,0.0,0.0,0.0,0.0,0.0,0.0,0.0,0.0,0.0,0.0,0.0,0.0,0.0,0.0,0.0,0.0,0.0,0.0,0.0,0.0,0.0,0.0,0.0,0.0,0.0,0.0,0.0,0.0,0.0,0.0,0.0,0.0,0.0,0.0,0.0,0.0,0.0,0.0,0.0,0.0,0.0,0.0,0.0,0.0,0.0,0.0,0.0,0.0,0.0,0.0,0.0,0.0,0.0,0.0,0.0,0.0,0.0,0.0,0.0,0.0,0.0,0.0,0.0,0.0,0.0,0.0,0.0,0.0,0.0,0.0,0.0,0.0,0.0,0.0,0.0,0.0,1.6682,1.5089,1.3276,1.1373,0.903,0.7111,0.5937,0.4124,0.2052,-0.0281,0.0,0.0,0.0,0.0,0.0,0.0,0.0,0.0,0.0,0.0,0.0,0.0,0.0,0.0,0.0,0.0,0.0,0.0,0.0,0.0,0.0,0.0,0.0,0.0,0.0,0.0,0.0,0.0,0.0,0.0,0.0,0.0,0.0,0.0,0.0,0.0,0.0,0.0,0.0,0.0,0.0,0.0,0.0,0.0,0.0,0.0,0.0,0.0,0.0,0.0,0.0,0.0,0.0,0.0,0.0,0.0,0.0,0.0,0.0,0.0,0.0,0.0,0.0,0.0,0.0,0.0,0.0,0.0,0.0,0.0,0.0,0.0,0.0,0.0,0.0,0.0,0.0,0.0,0.0,0.0,0.0,0.0,0.0,0.0,0.0,0.0,0.0,0.0,0.0,0.0,0.0,0.0,0.0,0.0,0.0,0.0,0.0,0.0,0.0,0.0,0.0,0.0,1.7223,1.5919,1.4132,1.1982,0.9858,0.7866,0.6028,0.4182,0.2462,0.0855,0.0,0.0,0.0,0.0,0.0,0.0,0.0,0.0,0.0,0.0,0.0,0.0,0.0,0.0,0.0,0.0,0.0,0.0,0.0,0.0,0.0,0.0,0.0,0.0,0.0,0.0,0.0,0.0,0.0,0.0,0.0,0.0,0.0,0.0,0.0,0.0,0.0,0.0,0.0,0.0,0.0,0.0,0.0,0.0,0.0,0.0,0.0,0.0,0.0,0.0,0.0,0.0,0.0,0.0,0.0,0.0,0.0,0.0,0.0,0.0,2.2163,2.1979,0.0,0.0,0.0,0.0,0.0,0.0,0.0,0.0,0.0,0.0,0.0,0.0,0.0,0.0,0.0,0.0,0.0,0.0,0.0,0.0,0.0,0.0,0.0,0.0,0.0,0.0,0.0,0.0,0.0,0.0,0.0,0.0,0.0,0.0,0.0,0.0,0.0,0.0,0.0,0.0,1.7705,1.6382,1.4651,1.2406,1.0492,0.8785,0.7392,0.5319,0.3475,0.203,-0.1075,0.0,0.0,0.0,0.0,0.0,0.0,0.0,0.0,0.0,0.0,0.0,0.0,0.0,0.0,0.0,0.0,0.0,0.0,0.0,0.0,0.0,0.0,0.0,0.0,0.0,0.0,0.0,0.0,0.0,0.0,0.0,0.0,0.0,0.0,0.0,0.0,0.0,0.0,0.0,0.0,0.0,0.0,0.0,0.0,0.0,0.0,0.0,0.0,0.0,0.0,0.0,0.0,0.0,0.0,0.0,0.0,0.0,0.0,0.0,2.3358,2.3334,0.0,0.0,0.0,0.0,0.0,0.0,0.0,0.0,0.0,0.0,0.0,0.0,0.0,0.0,0.0,0.0,0.0,0.0,0.0,0.0,0.0,0.0,0.0,0.0,0.0,0.0,0.0,0.0,0.0,0.0,0.0,0.0,0.0,0.0,0.0,0.0,0.0,0.0,0.0,0.0,1.7934,1.6944,1.5555,1.3334,1.1541,0.985,0.8225,0.6523,0.4895,0.3422,0.0461,0.0,0.0,0.0,0.0,0.0,0.0,0.0,0.0,0.0,0.0,0.0,0.0,0.0,0.0,0.0,0.0,0.0,0.0,0.0,0.0,0.0,0.0,0.0,0.0,0.0,0.0,0.0,0.0,0.0,0.0,0.0,0.0,0.0,0.0,0.0,0.0,0.0,0.0,0.0,0.0,0.0,0.0,0.0,0.0,0.0,0.0,0.0,0.0,0.0,0.0,0.0,0.0,0.0,2.5494,2.5042,2.4864,2.4312,2.4408,2.4981,2.3765,2.4047,2.5287,2.3879,0.0,0.0,0.0,0.0,0.0,0.0,0.0,0.0,0.0,0.0,0.0,0.0,0.0,0.0,0.0,0.0,0.0,0.0,0.0,0.0,0.0,0.0,2.4548,2.5159,2.5967,2.6337,2.5336,0.0,0.0,0.0,0.0,0.0,0.0,0.0,0.0,0.0,0.0,0.0,1.8401,1.7568,1.636,1.4466,1.2647,1.0879,0.9057,0.7709,0.6376,0.5035,0.2233,0.031,0.0,0.0,0.0,0.0,0.0,0.0,0.0,0.0,0.0,0.0,0.0,0.0,0.0,0.0,0.0,0.0,0.0,0.0,0.0,0.0,0.0,0.0,0.0,0.0,0.0,0.0,0.0,0.0,0.0,0.0,0.0,0.0,2.2726,2.3886,0.0,0.0,0.0,0.0,0.0,0.0,0.0,0.0,0.0,0.0,0.0,0.0,0.0,2.6185,2.7195,2.7342,2.7052,2.6308,2.6351,2.5973,2.5233,2.5138,2.5168,2.5244,2.5053,0.0,2.5293,2.5082,0.0,0.0,0.0,0.0,0.0,0.0,0.0,0.0,0.0,0.0,0.0,0.0,0.0,0.0,0.0,0.0,0.0,0.0,0.0,0.0,0.0,0.0,2.5178,2.5274,2.5967,2.6553,2.6406,2.6821,2.7115,2.6669,2.6469,2.593,0.0,0.0,0.0,0.0,0.0,0.0,1.9845,1.8175,1.6613,1.5338,1.3316,1.1619,1.0677,0.8756,0.7434,0.7095,0.4638,0.3424,0.3841,0.2688,0.0,0.0,0.0,0.0,0.0,0.0,0.0,0.0,0.0,0.0,0.0,0.0,0.0,0.0,0.0,0.0,0.0,0.0,0.0,0.0,0.0,0.0,0.0,0.0,0.0,0.0,0.0,0.0,0.0,2.2549,2.4451,2.4244,2.5083,2.5414,0.0,0.0,0.0,0.0,0.0,0.0,0.0,0.0,0.0,2.6873,2.6752,2.6986,2.7625,2.7719,2.734,2.6466,2.6551,2.614,2.5303,2.5303,2.5303,2.5303,2.5303,2.5303,2.5303,2.5303,2.5542,2.5902,0.0,0.0,0.0,0.0,2.7342,2.7548,2.845,2.8533,2.8279,2.8301,0.0,0.0,0.0,0.0,0.0,0.0,0.0,2.6162,2.5609,2.5441,2.5394,2.5371,2.5996,2.6601,2.6601,2.7231,2.7504,2.6569,2.6378,2.5946,2.4493,2.4064,0.0,0.0,0.0,2.0959,1.9292,1.8377,1.7171,1.5407,1.4078,1.2853,1.1682,1.0423,0.9376,0.8511,0.7749,0.7545,0.7992,1.0288,1.2456,0.0,0.0,0.0,0.0,0.0,0.0,0.0,0.0,0.0,0.0,0.0,0.0,0.0,0.0,0.0,0.0,0.0,0.0,0.0,0.0,0.0,0.0,0.0,0.0,0.0,0.0,0.0,0.0,2.3898,2.5373,2.4568,2.6046,2.6689,0.0,0.0,0.0,0.0,0.0,0.0,2.7346,2.7191,2.7255,2.7669,2.748,2.7554,2.789,2.789,2.7467,2.6601,2.6601,2.614,2.5303,2.5303,2.5303,2.5313,2.5322,2.534,2.5312,2.5303,2.5658,2.6184,2.6184,2.6589,2.7208,2.746,2.7721,2.8086,2.8977,2.9207,2.9162,2.965,2.9562,2.9179,2.8704,0.0,0.0,0.0,0.0,2.648,2.5754,2.5511,2.5451,2.5408,2.5848,2.6274,2.6274,2.6774,2.7052,2.6427,2.6314,2.5841,2.4379,2.3938,0.0,2.2521,2.2096,2.1118,1.9073,1.8562,1.767,1.5709,1.4848,1.3954,1.2758,1.2075,1.1181,1.0026,1.0398,1.0985,1.1606,1.533,1.8665,2.1451,0.0,0.0,0.0,0.0,0.0,0.0,0.0,0.0,0.0,0.0,0.0,0.0,0.0,0.0,0.0,0.0,0.0,0.0,0.0,0.0,0.0,0.0,0.0,0.0,0.0,0.0,0.0,0.0,0.0,2.5435,2.6962,0.0,0.0,0.0,0.0,2.7529,2.7338,2.7327,2.7573,2.7573,2.7669,2.7879,2.7879,2.7879,2.789,2.789,2.7467,2.6601,2.6601,2.614,2.5303,2.5303,2.5303,2.5293,2.5371,2.5398,2.5398,2.5321,2.5212,2.508,2.508,2.5141,2.5351,2.6235,2.7213,2.8226,2.9168,2.8951,2.8522,3.0127,2.9601,2.8516,2.9297,2.7793,0.0,0.0,2.6308,2.5634,2.5531,2.5465,2.5401,2.5394,2.5385,2.536,2.536,2.5399,2.5776,2.6923,2.7148,2.6754,2.5537,0.0,2.4793,2.3342,2.2803,2.1905,2.0148,1.9027,1.7946,1.6757,1.5517,1.4631,1.4225,1.3275,1.2509,1.1983,1.1995,1.2764,1.4418,1.6076,1.8464,2.1721,2.16,0.0,0.0,0.0,0.0,0.0,0.0,0.0,0.0,0.0,0.0,0.0,0.0,0.0,0.0,0.0,0.0,0.0,0.0,0.0,0.0,0.0,0.0,0.0,0.0,0.0,0.0,0.0,0.0,2.7129,2.819,0.0,2.7388,2.7593,2.7961,2.8338,2.7944,2.7936,2.8533,2.7905,2.765,2.789,2.7731,2.7462,2.7063,2.7063,2.664,2.5774,2.5774,2.562,2.5352,2.5363,2.5383,2.5428,2.5459,2.5451,2.5451,2.5441,2.5718,2.6165,2.6165,2.6517,2.707,2.7414,2.777,2.8143,2.8481,2.842,2.8313,2.8958,2.8768,2.8359,2.8672,2.8105,2.7324,2.7049,2.6735,2.6361,2.5729,2.5503,2.544,2.5408,2.5346,2.5303,2.5303,2.5303,2.5373,2.5598,2.5657,2.544,2.4745,2.4254,2.3804,2.3289,2.2738,2.1938,2.0566,1.9646,1.8623,1.7282,1.632,1.5545,1.4996,1.4406,1.3934,1.3601,1.4112,1.4852,1.5822,1.7331,1.9136,2.1309,2.1427,2.148,0.0,0.0,0.0,0.0,0.0,0.0,0.0,0.0,0.0,0.0,0.0,0.0,0.0,0.0,0.0,0.0,0.0,0.0,0.0,0.0,0.0,0.0,0.0,0.0,0.0,2.7765,2.8437,2.768,2.8679,2.8877,2.7445,2.793,2.8497,2.8868,2.8537,2.8544,2.9063,2.8171,2.7585,2.7467,2.729,2.6857,2.6178,2.6159,2.587,2.5303,2.5331,2.5354,2.5406,2.5415,2.5465,2.5493,2.5511,2.552,2.5543,2.5558,2.5912,2.6428,2.6374,2.6739,2.7259,2.7259,2.7435,2.7702,2.7702,2.7928,2.8159,2.7947,2.7851,2.793,2.8203,2.787,2.7322,2.7048,2.6733,2.6353,2.5726,2.5526,2.5459,2.5401,2.5337,2.5303,2.5303,2.5303,2.5212,2.4874,2.4804,2.467,2.4266,2.3753,2.3346,2.323,2.2755,2.2,2.0754,1.9954,1.8996,1.7709,1.6799,1.6115,1.5692,1.5423,1.5228,1.5046,1.5862,1.6729,1.7483,1.8476,1.9851,2.1565,2.1738,2.1826,2.1864,0.0,0.0,0.0,0.0,0.0,0.0,0.0,0.0,0.0,0.0,0.0,0.0,0.0,0.0,0.0,0.0,0.0,0.0,0.0,0.0,0.0,0.0,0.0,2.8244,2.8964,2.8856,2.7089,2.8427,2.8766,2.6912,2.8205,2.9148,2.9066,2.9036,2.9036,2.9036,2.8266,2.7439,2.6582,2.6554,2.6169,2.5322,2.5322,2.5322,2.5303,2.5379,2.5406,2.5413,2.5463,2.5493,2.5498,2.5567,2.5603,2.5605,2.5662,2.5703,2.5683,2.5558,2.5551,2.5603,2.5603,2.6147,2.6866,2.6866,2.7413,2.7986,2.7206,2.6953,2.7109,2.7969,2.6986,2.5776,2.6615,2.6197,2.5489,2.5508,2.5453,2.5398,2.5398,2.5357,2.5303,2.5284,2.5284,2.5182,2.4861,2.479,2.467,2.4266,2.3917,2.3566,2.3236,2.2923,0.0,2.0827,2.0014,1.9137,1.8044,1.6995,1.6344,1.6328,1.6301,1.6328,1.6359,1.7215,1.8267,1.9491,1.9578,2.0536,2.2605,2.2617,2.28,2.3203,0.0,0.0,0.0,0.0,0.0,0.0,0.0,0.0,0.0,0.0,0.0,0.0,0.0,0.0,0.0,0.0,0.0,0.0,0.0,0.0,0.0,2.8516,2.9238,2.9218,2.9412,2.9368,2.8811,2.9205,2.9032,2.7822,2.812,2.8378,2.8376,2.7733,2.7361,2.7361,2.655,2.5978,2.5735,2.5783,2.5699,2.5447,2.5447,2.5447,2.5447,2.5451,2.5508,2.5547,2.5561,2.5601,2.5657,2.5661,2.5662,2.5662,2.5683,2.5703,2.5703,2.566,2.5659,2.5662,2.5662,2.5818,2.6033,2.6033,2.6189,2.6347,2.6068,2.5984,2.6019,2.6211,2.5917,2.5574,2.5827,2.5702,2.5498,2.5441,2.5408,2.5391,2.5339,2.5313,2.5264,2.5111,2.5088,2.4974,2.4654,2.4575,2.4495,2.4247,2.3714,2.3323,2.3212,2.2747,2.2275,2.1877,2.1177,2.0298,1.917,1.8103,1.7252,1.6707,1.6448,1.6732,1.7773,1.8235,1.9142,2.0616,2.1034,2.202,2.367,2.3021,2.2931,0.0,0.0,0.0,0.0,0.0,0.0,0.0,0.0,0.0,0.0,0.0,0.0,0.0,0.0,0.0,0.0,0.0,0.0,0.0,0.0,0.0,0.0,2.957,3.0019,2.9648,2.9609,2.9452,2.9054,2.8662,2.8084,2.7136,2.7381,2.7586,2.7554,2.7045,2.6727,2.6727,2.5919,2.5441,2.5447,2.5473,2.5493,2.5493,2.5493,2.5493,2.5493,2.5535,2.5561,2.5601,2.5633,2.5661,2.5703,2.5703,2.5683,2.566,2.566,2.5637,2.5611,0.0,0.0,0.0,0.0,2.566,2.5659,2.5631,2.5629,2.5605,2.5567,2.5558,2.5554,2.5503,2.5488,2.5465,2.5465,2.5441,2.5413,2.5371,2.5354,2.5329,2.5205,2.5173,2.513,2.4956,2.4917,2.4836,2.4559,2.4495,0.0,2.4056,2.3544,2.3141,2.3021,2.2581,2.231,2.231,2.1651,2.0955,2.0281,1.894,1.7945,1.7529,1.7299,0.0,0.0,0.0,1.9995,2.1223,2.2137,0.0,0.0,0.0,0.0,0.0,0.0,0.0,0.0,2.2846,2.272,0.0,0.0,0.0,0.0,0.0,0.0,0.0,0.0,0.0,0.0,0.0,0.0,0.0,0.0,0.0,0.0,3.0254,3.0488,2.9707,2.9434,2.9023,2.8242,2.7461,2.664,2.5707,2.6305,2.6737,2.669,2.668,2.6656,2.6656,2.5926,0.0,0.0,0.0,2.55,2.55,2.5508,2.5508,2.55,2.5564,2.5595,2.5595,2.5644,2.5683,2.5683,2.5683,2.5637,2.5595,2.5595,2.5554,2.5503,2.5633,2.5683,2.5662,2.5605,2.5595,2.557,2.5531,0.0,0.0,2.5484,2.5498,2.5498,2.5488,2.5434,2.5383,2.5391,2.5357,2.5284,2.5274,2.5264,2.5214,2.501,2.4974,2.4937,2.4785,2.4727,2.4651,2.4459,2.4391,2.4192,2.3692,2.3369,2.3093,2.2746,2.2463,2.231,2.231,2.1735,2.1305,2.1221,1.9567,0.0,1.8541,1.8407,1.8423,1.8656,1.9955,2.1031,2.1698,2.3032,2.3831,2.4019,2.4235,2.4724,2.5508,2.5321,2.5335,2.5474,2.3759,2.347,0.0,0.0,0.0,0.0,0.0,0.0,0.0,0.0,0.0,0.0,0.0,0.0,0.0,0.0,0.0,2.957,2.9746,2.9785,2.9629,2.8398,2.7441,2.7266,2.7109,2.664,2.5761,2.5839,2.5935,2.5914,2.5859,2.5824,2.5824,2.5668,2.5564,2.5504,2.5546,2.5582,2.5582,2.5525,2.5525,2.5582,2.5537,0.0,2.5519,2.5527,2.5543,2.5543,2.5543,2.5539,2.5526,2.5526,2.5503,2.5493,2.5535,2.5543,2.5543,2.5511,2.5526,2.5526,2.5493,2.5493,2.5484,2.5441,2.5421,2.5401,2.5354,2.5321,0.0,2.5322,2.5303,2.5264,2.5099,2.5065,2.501,2.4883,2.4842,2.4785,2.4591,2.4352,2.41,2.3903,2.3635,2.3351,2.3025,2.3105,2.3093,2.2746,2.2463,2.231,2.231,2.2192,2.1854,2.1271,1.9794,1.8979,1.9267,1.8486,1.8621,2.0075,2.1754,2.2802,2.3084,2.4043,2.4632,2.479,2.5043,2.5274,2.5492,2.5469,2.5492,2.5567,2.4808,2.4764,0.0,0.0,0.0,0.0,0.0,0.0,0.0,0.0,0.0,0.0,0.0,2.793,2.8789,0.0,2.9609,2.9609,2.9609,2.9277,2.8375,2.7495,2.6969,2.6992,2.6602,2.6171,2.5698,2.5658,2.5634,2.5603,2.5574,2.5541,2.5541,2.5541,2.5537,2.5503,2.5525,2.5551,2.5551,2.5526,2.5526,2.5551,2.5526,2.5493,2.5493,2.5493,2.5493,2.5493,2.5493,2.5468,2.5447,2.5408,2.5406,2.5406,2.5406,2.5441,2.5508,2.5451,2.5459,2.5453,2.5401,2.5406,2.5398,2.5363,2.5346,2.5329,2.5194,2.5152,2.5141,2.508,2.5056,2.5043,2.4917,2.4904,2.485,2.47,2.4654,2.4591,2.4393,2.4211,2.402,2.3756,2.3566,2.33,2.2832,2.2865,2.2865,2.2554,2.2388,2.231,2.231,2.231,2.2175,2.1786,2.0755,2.0179,2.0331,1.9864,2.015,2.1559,2.2621,2.331,2.3584,2.4366,2.4831,2.4903,2.5224,2.5434,2.5493,2.5506,2.5512,2.5542,2.5305,2.5308,0.0,0.0,0.0,0.0,0.0,0.0,0.0,0.0,2.7432,2.8359,2.8555,2.8808,2.9667,2.9686,2.9589,2.9567,2.9274,2.8548,2.7081,2.6724,2.6657,2.6694,2.609,2.5636,2.5595,2.557,2.5558,2.5493,2.5493,2.5493,2.5493,2.5493,2.5484,2.5473,2.5473,2.5473,2.5473,2.5477,2.5477,2.5488,2.5477,2.5471,2.5471,2.5471,2.5471,2.5465,2.5414,2.5362,2.5316,2.5244,2.5192,2.5192,2.5192,2.5263,2.5376,2.5379,2.5383,2.5368,2.5322,2.5274,2.5234,2.5234,2.5214,2.5171,2.5018,2.4962,2.4937,2.4828,2.4804,2.479,2.4746,2.4746,2.4666,2.4408,2.4355,2.4284,2.4037,2.3937,2.3816,2.3566,2.3455,2.3271,2.273,2.2608,2.2537,2.2321,2.231,2.231,2.231,2.231,2.231,2.231,2.1562,2.108,2.108,2.1285,2.1752,2.2574,2.2972,2.3323,2.3588,2.4335,2.4757,2.4797,2.5139,2.5374,2.5488,2.5488,2.5498,2.5493,2.5493,2.549,2.6759,2.6205,2.5798,2.6564,2.6889,2.7187,0.0,0.0,2.8398,2.9277,2.9453,2.9686,3.0433,2.9982,2.9486,2.944,2.8126,2.7035,2.6836,2.615,2.5663,2.5667,2.5589,2.5526,2.5503,2.5503,2.5517,2.5493,2.5493,2.5493,2.5493,2.5493,2.5463,2.5408,2.5408,2.5408,2.5408,2.5346,2.5346,2.5413,2.5346,2.5312,2.5312,2.5312,2.5312,2.5303,2.5135,2.505,2.5027,2.4923,2.4861,2.4861,2.4861,2.4869,2.4898,2.5194,2.5313,2.5303,2.5293,2.5173,2.5034,2.5034,2.4956,2.4861,2.4832,2.4814,2.4832,2.4804,2.4804,2.476,2.4575,2.4526,2.4408,2.3921,2.3798,2.3696,2.3392,2.3069,2.2873,2.2822,2.2634,2.2415,2.2349,2.2349,2.2321,2.231,2.231,2.231,2.231,2.231,2.231,2.231,2.1306,2.0671,2.0671,2.1603,2.2209,2.2349,2.2883,2.323,2.3236,2.408,2.4623,2.4814,2.4974,2.5168,2.5413,2.5413,2.5441,2.5493,2.5493,2.5507,2.6015,2.6509,2.685,0.0,2.6867,2.755,2.7446,2.78,2.8236,2.8639,2.9127,2.9413,2.9223,2.8911,2.8513,0.0,2.7269,2.6612,2.6055,2.5674,2.5421,2.5383,2.5376,2.5406,2.5434,2.5447,2.5428,2.5383,2.5376,2.5376,2.5376,2.5376,2.5379,2.5329,2.5329,2.5329,2.5329,2.5313,2.5313,2.5339,2.5186,2.5141,2.5111,2.5037,2.5019,2.5,2.4923,2.4877,2.4877,2.4814,2.4804,2.4804,2.4804,2.4804,2.4818,2.4968,2.5019,2.5019,2.5019,2.4949,2.4877,2.4877,2.4842,2.4775,2.4654,2.4623,2.4591,2.4478,2.4444,2.4426,2.4339,2.4339,2.4229,2.3798,2.3692,2.361,2.3259,2.3093,2.2947,2.2781,2.2643,2.2473,2.2338,2.231,2.231,2.231,2.231,2.231,2.231,2.231,2.231,2.231,2.1866,2.1608,2.1608,2.204,2.2377,2.2527,2.2965,2.33,2.3482,2.4136,2.4545,2.4623,2.4799,2.4974,2.5168,2.5168,2.5235,2.5376,2.5376,2.5376,2.5473,0.0,0.0,2.6135,2.6782,2.7589,2.724,2.762,2.8042,2.8087,2.8598,2.8841,2.8182,2.7871,2.7496,2.6844,2.6547,2.6152,2.5464,2.5379,2.5337,2.5234,2.5214,2.5215,2.5236,2.5262,2.5263,2.5224,2.5182,2.516,2.516,2.516,2.516,2.516,2.516,2.516,2.516,2.516,2.516,2.516,2.5018,2.4937,2.4937,2.4842,2.4804,2.4804,2.4746,2.4716,2.4716,2.4654,2.4639,2.4639,2.4639,2.4639,2.4639,2.4639,2.47,2.4804,2.4804,2.476,2.4716,2.4716,2.4685,2.4607,2.4461,2.4428,2.4375,2.4114,2.4074,2.4036,2.3955,2.3917,2.3837,2.3482,2.3414,2.3346,2.3014,2.2958,2.2883,2.2703,2.2616,2.2527,2.2321,2.231,2.231,2.231,2.231,2.231,2.231,2.231,2.231,2.231,2.231,2.231,2.231,2.231,2.2388,2.259,2.289,2.3165,2.3414,2.3964,2.4301,2.4353,2.4588,2.4799,2.4937,2.4937,2.5018,2.516,2.516,2.516,0.0,0.0,2.5665,2.6461,2.6753,2.7055,2.7863,2.8077,2.8097,2.8097,2.8116,2.8115,2.802,2.7299,2.6707,2.6612,2.59,2.5341,2.5313,2.5293,2.5224,2.5034,2.501,2.4949,2.4828,2.4943,2.5003,2.501,2.4877,2.4818,2.4818,2.4818,2.4818,2.4818,2.4818,2.4818,2.4818,2.4818,2.4818,2.4818,2.4818,2.4804,2.4804,2.4804,2.4804,2.479,2.4591,2.4512,2.4495,2.4303,2.4209,2.4209,2.4209,2.4209,2.4209,2.4209,2.4461,2.4804,2.4804,2.467,2.4512,2.4512,2.4375,2.4209,2.4209,2.4209,2.4133,2.3816,2.3714,2.3649,2.3305,2.3212,2.3141,2.2822,2.2721,2.266,2.2388,2.2338,2.2321,2.231,2.231,2.231,2.231,2.231,2.231,2.231,2.231,2.231,2.231,2.231,2.231,2.231,2.231,2.231,2.231,2.231,2.231,2.231,2.2563,2.2721,2.2721,2.3369,2.3824,2.4007,2.4336,2.4607,2.4804,2.4804,2.4818,2.4818,2.4818,2.4818,2.5235,0.0,2.6148,2.5902,2.6262,2.6577,2.6315,2.6683,2.6934,2.6354,2.6702,2.6925,2.6313,2.5976,2.5764,2.5736,2.5495,2.5253,2.5111,2.5099,2.5041,2.4896,2.5329,2.566,2.5605,2.5149,2.4869,2.4869,2.4832,2.4804,2.4804,2.4804,2.4804,2.4804,2.4804,2.4804,2.4804,2.4804,2.4804,2.4804,2.467,2.4545,2.441,2.441,2.441,2.441,2.4339,2.4303,2.4303,2.4228,2.419,2.419,2.419,2.419,2.419,2.419,2.4284,2.441,2.441,2.4357,2.4303,2.4303,2.4266,2.419,2.419,2.419,2.417,2.4074,2.3876,2.3671,2.3566,2.3369,2.3117,2.2772,2.2695,2.2634,2.2377,2.231,2.231,2.231,2.231,2.231,2.231,2.231,2.231,2.231,2.231,2.231,2.231,2.231,2.231,2.231,2.231,2.231,2.231,2.231,2.231,2.231,2.2563,2.2695,2.2695,2.3346,2.3717,2.3803,2.4135,2.441,2.4591,2.4591,2.467,2.4804,2.4804,2.4804,2.4989,2.5497,2.5885,2.5331,2.5599,2.5864,2.5271,2.5547,2.5872,2.56,2.5765,2.5872,2.56,2.5543,2.5447,2.5172,2.5363,2.5404,2.4994,2.4943,2.4977,2.5114,2.559,2.5972,2.6186,2.5755,2.5471,2.5552,2.5206,2.5005,2.5005,2.4743,2.4594,2.4594,2.4594,2.4594,2.4594,2.4594,2.4594,2.4575,2.4444,2.4339,2.419,2.419,2.419,2.419,2.419,2.419,2.419,2.419,2.4132,2.4016,2.4016,2.3955,2.3837,2.3837,2.3837,2.3876,2.4132,2.419,2.417,2.4074,2.4016,2.3996,2.3876,2.3837,2.3816,2.3692,2.354,2.3359,2.3224,2.3032,2.2807,2.2616,2.2563,2.25,2.2349,2.231,2.231,2.231,2.231,2.231,2.231,2.231,2.231,2.231,2.231,2.231,2.231,2.231,2.2237,2.2077,2.2032,2.2032,2.2032,2.2032,2.2106,2.2282,2.2463,2.2563,2.2563,2.3183,2.3522,2.3522,2.3976,2.4247,2.4393,2.4393,2.4461,2.4594,2.4594,2.4594,2.479,2.4891,2.4962,2.4828,2.4891,2.4949,2.4828,2.4842,2.5073,2.5834,2.5378,2.511,2.591,2.6042,2.5759,2.5035,2.5567,2.5797,2.502,2.4884,2.5076,0.0,0.0,0.0,0.0,0.0,2.6809,2.699,2.6001,2.5403,2.5403,2.463,2.419,2.419,2.419,2.419,2.419,2.419,2.419,2.419,2.417,2.417,2.419,2.417,2.4151,2.417,2.4151,2.4151,2.4151,2.4151,2.3958,2.3671,2.3671,2.3477,2.3189,2.3189,2.3189,2.33,2.3917,2.4151,2.4094,2.3774,2.3671,2.3628,2.33,2.3189,2.3141,2.2822,2.2755,2.273,2.2388,2.231,2.231,2.231,2.231,2.231,2.231,2.231,2.231,2.231,2.231,2.231,2.231,2.231,2.231,2.231,2.231,2.231,2.231,2.231,2.2135,2.1688,2.1658,2.1658,2.1658,2.1658,2.1823,2.2282,2.231,2.231,2.231,2.2857,2.3165,2.3165,2.3837,2.417,2.417,2.419,2.419,2.419,2.419,2.419,2.4594,2.4712,2.4842,2.4818,2.4832,2.4842,2.4818,2.5261,2.574,2.5966,2.5834,2.5929,2.6742,2.6403,0.0,2.6532,2.6761,0.0,2.6409,2.585,0.0,2.6313,0.0,2.6657,2.742,2.8044,0.0,2.8463,2.6562,2.5403,2.5403,2.463,2.419,2.419,2.419,2.419,2.419,2.419,2.419,2.4208,2.3955,2.3976,2.417,2.3692,2.3588,2.3816,2.3566,2.3437,2.3437,2.3437,2.3392,2.3323,2.3323,2.3277,2.3189,2.3189,2.3189,2.3212,2.3392,2.3437,2.3437,2.3369,2.3323,2.3323,2.323,2.3189,2.3165,2.3093,2.2898,2.2712,2.2625,2.2436,2.231,2.231,2.231,2.231,2.231,2.231,2.231,2.231,2.231,2.231,2.231,2.231,2.231,2.231,2.231,2.231,2.231,2.231,2.2237,2.2135,2.2106,2.2106,2.2106,2.2106,2.2163,2.2282,2.231,2.231,2.231,2.2643,2.2822,2.2822,2.35,2.3816,2.3816,2.4074,2.419,2.419,2.419,2.419,2.4375,2.4512,2.4639,2.4561,2.4591,2.4732,2.4991,2.5405,2.5928,2.6655,2.6525,2.6525,2.7308,2.7382,2.7345,0.0,0.0,0.0,2.7355,2.6595,2.6333,0.0,2.7126,0.0,2.8246,2.8741,2.8929,2.8749,2.6984,2.5915,2.5915,2.4832,2.419,2.419,2.419,2.419,2.419,2.4036,2.3976,2.3976,2.3649,2.3566,2.3753,2.3369,2.3282,2.3459,2.3277,2.3189,2.3189,2.3189,2.3117,2.2972,2.2972,2.2915,2.2798,2.2798,2.2798,2.2798,2.2798,2.2798,2.2807,2.2947,2.2972,2.2947,2.2832,2.2798,2.2798,2.2798,2.2669,2.251,2.251,2.2398,2.231,2.231,2.231,2.231,2.231,2.231,2.231,2.231,2.2135,2.2061,2.2254,2.2135,2.2061,2.2282,2.231,2.231,2.231,2.231,2.2209,2.2003,2.2003,2.2003,2.2003,2.2003,2.2077,2.2282,2.231,2.231,2.231,2.2563,2.2695,2.2695,2.3212,2.3544,2.3692,2.3896,2.4054,2.419,2.419,2.419,2.419,2.4339,2.4428,2.4247,2.4339,2.4632,2.5259,2.5495,2.5991,2.7475,0.0,2.7016,2.7805,2.8448,2.8686,2.8191,0.0,2.8962,2.8356,2.7493,2.7218,2.8026,2.7934,2.8117,2.892,2.8952,2.8773,2.842,2.7186,2.6447,2.6447,2.5022,2.4164,2.4074,2.4074,2.4074,2.4074,2.3774,2.3631,2.3628,2.3282,2.3165,2.3189,2.3135,2.3111,2.3117,2.3111,2.3087,2.3087,2.3087,2.2915,2.2634,2.2634,2.25,2.231,2.231,2.231,2.231,2.231,2.231,2.2349,2.2573,2.2634,2.2599,2.236,2.231,2.231,2.231,2.231,2.231,2.231,2.231,2.231,2.231,2.231,2.231,2.231,2.2237,2.218,2.2152,2.1794,2.1658,2.2049,2.1794,2.1658,2.2077,2.2123,2.2152,2.2209,2.2254,2.2135,2.1718,2.1688,2.1688,2.1688,2.1688,2.1869,2.2265,2.231,2.231,2.231,2.2527,2.2634,2.2634,2.2972,2.3277,2.3566,2.361,2.3795,2.4074,2.4074,2.4074,2.419,2.4228,2.4247,2.4209,2.4228,2.4449,2.5219,2.5897,0.0,0.0,2.7677,2.7842,2.865,2.8356,2.8393,2.9586,2.9898,3.0173,3.0687,2.9512,2.8888,0.0,2.8613,2.8117,2.892,2.8682,0.0,2.842,2.6724,2.5704,2.5704,2.4782,2.3999,2.3387,2.3369,2.3369,2.3369,2.3323,2.33,2.3282,2.2947,2.2923,2.3165,2.2686,2.2581,2.2772,2.2554,2.247,2.247,2.247,2.2415,2.236,2.236,2.2349,2.231,2.231,2.231,2.231,2.231,2.231,2.231,2.2332,2.236,2.236,2.2293,2.231,2.231,2.231,2.231,2.231,2.231,2.231,2.231,2.231,2.231,2.231,2.231,2.2003,2.1628,2.1291,2.115,2.1118,2.1197,2.115,2.1118,2.1229,2.1229,2.1354,2.1688,2.2061,2.2282,2.218,2.218,2.218,2.218,2.218,2.2209,2.2282,2.231,2.231,2.231,2.2349,2.236,2.236,2.2652,2.2822,2.2855,2.3141,2.3323,2.3369,2.3369,2.3369,2.3671,2.3671,2.3671,2.3671,2.4142,2.4775,2.5576,0.0,0.0,0.0,2.8429,2.8539,2.892,2.9035,0.0,3.0063,3.021,3.0485,3.1274,3.0184,2.9464,2.9853,2.9021,2.8422,2.843,2.8255,2.8029,2.7833,2.6957,2.6156,2.5517,2.4367,2.3554,2.3206,2.3189,2.3189,2.3189,2.3021,2.2947,2.2947,2.2643,2.2581,2.2738,2.2443,2.236,2.2473,2.2349,2.231,2.231,2.231,2.231,2.231,2.231,2.231,2.231,2.231,2.231,2.231,2.231,2.231,2.231,2.231,2.231,2.231,2.231,2.231,2.231,2.231,2.231,2.231,2.231,2.231,2.231,2.231,2.231,2.2237,2.2003,2.1764,2.1491,2.1086,2.0797,2.0715,2.0959,2.0797,2.0715,2.0959,2.0991,2.1055,2.1244,2.1477,2.1797,2.2254,2.231,2.231,2.231,2.231,2.231,2.231,2.231,2.231,2.231,2.231,2.231,2.231,2.2426,2.2563,2.2695,2.2873,2.3021,2.3189,2.3189,2.3189,2.3189,2.3189,2.3189,2.3189,2.3998,2.499,2.5805,2.6807,0.0,0.0,2.8767,2.8767,2.8767,0.0,2.9776,0.0,3.0097,3.048,3.1289,3.0586,2.995,0.0,2.9401,0.0,2.8198,2.79,2.7619,2.7317,2.7054,2.6524,2.5557,2.4059,2.3235,2.3235,2.3102,2.3014,2.3014,2.2738,2.2625,2.2625,2.2398,2.231,2.231,2.231,2.231,2.231,2.231,2.231,2.231,2.231,2.231,2.231,2.231,2.231,2.231,2.231,2.231,2.231,2.231,2.231,2.231,2.231,2.231,2.231,2.231,2.231,2.231,2.231,2.231,2.231,2.231,2.2225,2.2135,2.2049,2.202,2.1869,2.143,2.1321,2.1197,2.0797,2.0431,2.0296,2.0665,2.0431,2.0296,2.0665,2.0698,2.0764,2.0829,2.0862,2.115,2.1945,2.202,2.2049,2.2135,2.2135,2.218,2.2282,2.231,2.231,2.231,2.231,2.231,2.231,2.231,2.2398,2.2625,2.2625,2.2738,2.3014,2.3014,2.3014,2.3189,2.3189,2.3189,2.3189,2.3791,2.4569,2.5356,0.0,0.0,2.785,2.801,2.801,2.801,2.8063,2.8347,2.9069,0.0,3.048,3.1293,3.1235,3.1119,3.115,0.0,0.0,2.8912,2.7962,2.7317,2.7286,2.6339,2.5707,2.5586,2.4207,2.3391,2.3391,2.2717,2.2377,2.2377,2.2349,2.2349,2.2349,2.231,2.231,2.231,2.231,2.231,2.231,2.231,2.231,2.231,2.231,2.231,2.231,2.231,2.231,2.231,2.231,2.231,2.231,2.231,2.231,2.231,2.231,2.231,2.231,2.231,2.231,2.231,2.231,2.231,2.231,2.231,2.1974,2.1568,2.1229,2.1134,2.0991,2.0516,2.04,2.0314,1.9909,1.9782,1.9782,1.9818,1.9782,1.9782,1.9818,1.9818,1.9945,2.0314,2.0348,2.055,2.1055,2.1134,2.1291,2.1628,2.1658,2.1853,2.2265,2.231,2.231,2.231,2.231,2.231,2.231,2.231,2.231,2.2349,2.2349,2.2349,2.2377,2.2377,2.2377,2.266,2.266,2.2763,2.3212,2.4049,2.4978,2.5747,0.0,2.7497,2.7826,2.7897,2.7897,2.7897,2.7897,2.8145,2.8906,2.9296,2.9902,3.1172,3.151,3.1429,3.0991,3.0578,0.0,0.0,2.7893,2.7434,2.6973,2.652,2.6251,2.6251,2.4847,2.3849,2.341,2.3122,2.275,2.231,2.231,2.231,2.231,2.231,2.231,2.231,2.231,2.231,2.231,2.231,2.231,2.231,2.231,2.231,2.231,2.231,2.231,2.231,2.231,2.231,2.231,2.231,2.2106,2.1928,2.2209,2.2215,2.2159,2.2257,2.231,2.231,2.231,2.231,2.231,2.231,2.1957,2.1552,2.1399,2.1181,2.0973,2.0911,2.0559,2.0316,2.0287,1.9974,1.969,1.969,1.969,1.969,1.969,1.969,1.9747,1.9909,1.9929,2.0,2.0208,2.0698,2.1055,2.1213,2.1244,2.1399,2.1853,2.1899,2.2003,2.2282,2.231,2.231,2.231,2.231,2.231,2.231,2.231,2.231,2.231,2.231,2.231,2.2885,2.2953,2.3071,2.3596,2.4496,2.5372,0.0,2.6827,2.7547,2.7547,2.7547,2.7547,2.7547,2.7547,2.7704,2.8246,2.8687,2.9455,3.0747,3.151,3.186,3.1537,0.0,3.0717,2.8687,2.7892,2.7266,2.6725,2.6691,2.6691,2.6691,2.571,2.4797,2.4069,2.363,2.3139,2.2632,2.2412,2.231,2.231,2.231,2.231,2.231,2.253,2.2513,2.2327,2.2547,2.2513,2.231,2.231,2.231,2.231,2.231,2.2446,2.2632,2.2632,2.2664,2.2714,2.2714,2.241,2.2083,2.2396,2.241,2.2305,2.2468,2.2355,2.2199,2.2099,2.2106,2.2077,2.1945,2.1568,2.1276,2.1455,2.1197,2.0952,2.108,2.0732,2.0431,2.0422,2.0019,1.969,1.969,1.969,1.969,1.969,1.969,1.969,1.969,1.969,1.969,1.969,2.0243,2.0665,2.0797,2.0797,2.1007,2.1552,2.1582,2.1794,2.2282,2.231,2.231,2.231,2.231,2.231,2.231,2.231,2.231,2.231,2.231,2.231,2.4286,2.4489,2.4489,2.4506,2.5033,2.5592,0.0,2.6167,2.6725,2.6725,2.6725,2.6725,2.6725,2.6725,2.6725,2.6742,2.8012,2.9265,3.0006,3.136,3.2584,0.0,3.2713,3.1698,3.0226,2.8044,2.6708,2.6691,2.6691,2.6691,2.6691,2.6674,2.6336,2.5609,2.4154,2.3393,2.3376,2.2665,2.231,2.231,2.231,2.231,2.2327,2.3054,2.2987,2.2344,2.3071,2.297,2.231,2.231,2.231,2.231,2.231,2.275,2.3376,2.3376,2.3524,2.3704,2.3704,2.3383,2.2976,2.2976,2.2976,2.2992,2.2976,2.2537,2.1953,2.1687,2.1628,2.1538,2.1134,2.0665,2.0485,2.1166,2.1005,2.0707,2.0722,2.0707,2.0498,1.9824,1.969,1.969,1.969,1.969,1.969,1.969,1.969,1.969,1.969,1.969,1.969,1.969,1.9726,1.9874,2.028,2.0314,2.0667,2.1552,2.1582,2.1794,2.2282,2.231,2.231,2.231,2.231,2.231,2.231,2.231,2.231,2.231,2.231,2.231,2.432,2.4506,2.4611,2.5118,2.5439,2.5744,2.6234,2.6522,2.6691,2.6691,2.6691,2.6691,2.6691,2.6691,2.7199,2.8772,2.9431,0.0,3.2121,0.0,0.0,3.273,3.1546,3.0412,2.9431,2.8197,2.7249,2.6725,2.6691,2.6691,2.6691,2.6691,2.6353,2.5625,2.5152,2.4425,2.341,2.3663,2.3291,2.2327,2.3325,2.3528,2.3071,2.3816,2.4002,2.3816,2.4066,2.3714,2.3054,2.3054,2.3054,2.3054,2.3054,2.3494,2.4137,2.4137,2.3959,2.372,2.372,2.3176,2.2577,2.2885,2.292,2.2769,2.2583,2.2602,2.2681,2.2595,2.2229,2.1955,2.2266,2.1701,2.1146,2.1806,2.1683,2.138,2.138,2.1036,2.0782,2.1021,2.0707,2.0528,2.0976,2.0692,2.0393,2.0393,1.9989,1.969,1.969,1.969,1.969,1.969,1.969,1.9747,1.9874,1.9874,2.0124,2.0667,2.0699,2.1039,2.1794,2.1823,2.1957,2.2282,2.231,2.231,2.231,2.231,2.231,2.231,2.231,2.231,0.0,2.5321,2.5423,2.5896,2.6031,2.6133,2.659,2.6691,2.6691,2.6691,2.6691,2.6776,2.7063,2.7114,2.7689,2.9397,3.0159,3.1089,0.0,0.0,0.0,3.322,3.1579,3.0226,2.9482,2.845,2.7503,2.6759,2.6691,2.6624,2.6436,2.6453,2.6115,2.5476,2.553,2.5169,2.4239,2.4391,2.4036,2.3139,2.4052,2.4269,2.3833,2.4577,2.4746,2.4523,2.478,2.4492,0.0,2.3816,2.3691,2.3522,2.3522,2.3862,2.4332,2.4332,2.4176,2.3947,2.3947,2.3447,2.2851,2.3111,2.3142,2.302,2.2829,2.2755,2.2703,2.2571,2.23,2.2209,2.2613,2.2117,2.1666,2.2493,2.2382,2.2069,2.2069,2.1545,2.1201,2.162,2.1171,2.0917,2.1575,2.135,2.0991,2.0752,2.0348,1.9989,1.972,1.969,1.969,1.969,1.969,1.969,1.969,1.969,1.9874,2.028,2.0314,2.0601,2.1337,2.1368,2.1507,2.1781,2.1945,2.2032,2.2032,2.2209,2.231,2.231,2.231,2.231,0.0,2.6691,2.6691,2.6691,2.6691,2.6691,2.6691,2.6742,0.0,2.6776,2.681,2.7097,2.7806,2.7908,2.8197,2.9076,3.0362,0.0,0.0,3.3575,0.0,0.0,3.251,3.0886,3.0108,2.8738,2.7536,2.6708,2.6691,2.647,2.5961,2.5977,2.5762,2.5221,2.5441,2.5545,2.5527,2.4917,2.4577,2.4506,2.4625,2.4642,2.4594,2.5338,2.5304,2.4678,2.5357,2.5222,2.4529,2.4481,2.4163,2.3719,2.3719,2.3902,2.4201,2.4201,2.4279,2.4389,2.4389,2.4032,2.3595,2.3595,2.3595,2.3595,2.3595,2.3016,2.2317,2.1934,2.207,2.2332,2.2378,2.207,2.2039,2.3044,2.3041,2.2727,2.2724,2.2203,2.1769,2.1769,2.1276,2.1051,2.1724,2.1799,2.1545,2.0887,2.0737,2.0468,1.9779,1.969,1.969,1.969,1.969,1.969,1.969,1.969,1.9874,2.0212,2.0246,2.0483,2.0926,2.0959,2.0959,2.0991,2.1399,2.1628,2.1658,2.2106,2.231,2.231,2.231,2.231,2.6488,0.0,2.6691,2.6691,2.6691,2.6691,0.0,2.7148,2.7554,2.7554,0.0,2.867,2.9431,2.9093,2.9313,3.1207,3.1799,3.2476,3.3795,3.3795,0.0,3.366,3.2205,3.0683,2.9364,2.8924,2.8003,2.6291,2.6521,2.6315,2.5449,2.5779,2.5762,2.5221,2.525,2.5203,2.5011,2.5443,2.5263,2.4523,2.5625,2.5879,2.5372,2.6116,2.6336,2.6184,2.598,2.5476,2.4712,2.4332,2.412,2.4012,2.4012,2.4393,2.4942,2.4942,2.4729,2.4389,2.4389,2.4032,2.3595,2.3595,2.3595,2.3595,2.3595,2.3471,2.3257,2.3188,2.2885,2.2697,2.3179,2.287,2.2634,2.3348,2.3456,2.3251,2.2787,2.2604,2.2443,2.2443,2.2323,2.2413,2.3041,2.2757,2.2218,2.156,2.1036,2.0468,1.9779,1.969,1.969,1.969,1.969,1.969,1.969,1.969,1.9747,1.9854,1.9839,2.0035,2.0449,2.0449,2.0616,2.0991,2.1399,2.1794,2.2135,2.2254,2.231,2.231,2.231,2.231,2.6488,2.6945,2.7199,2.7199,2.7199,2.7199,2.7199,0.0,0.0,0.0,0.0,0.0,0.0,0.0,0.0,0.0,3.2848,0.0,0.0,0.0,3.3406,3.3406,3.2104,3.0615,2.9163,2.9011,2.8152,2.6148,2.6227,2.5944,2.491,2.5105,2.5028,2.4471,2.4471,2.4642,2.4977,2.5419,2.537,2.4809,2.5636,2.5818,2.5454,2.6062,2.6367,2.6367,2.6332,2.6064,2.5646,2.5154,2.4825,2.4585,2.4318,2.4343,2.4471,2.4471,2.4266,2.4032,2.4032,2.3837,2.3595,2.3595,2.3595,2.3595,2.3595,2.3595,2.3595,2.3595,2.3355,2.3176,2.3505,2.3355,2.3191,2.352,2.3595,2.3505,2.3176,2.2918,2.2798,2.3041,2.2877,2.2877,2.349,2.3325,2.2892,2.2248,2.1844,2.1261,2.0288,2.0154,2.0034,1.972,1.969,1.969,1.969,1.969,1.969,1.969,1.969,1.9818,2.0035,2.0019,2.0227,2.0682,2.1102,2.1538,2.1974,2.218,2.231,2.231,2.231,2.231,2.6607,2.7503,2.806,2.774,2.7705,2.7789,2.7789,0.0,0.0,0.0,0.0,0.0,0.0,3.1021,0.0,0.0,0.0,0.0,3.5368,3.4269,3.3372,3.3254,3.1938,3.0482,2.9036,2.8811,2.7898,2.5914,2.5852,2.5411,2.4348,2.4348,2.4158,2.3595,2.3595,2.4032,2.495,2.5028,2.5144,2.5221,2.5221,2.5221,2.5221,2.5689,2.5888,2.5888,2.621,2.635,2.6315,2.5835,2.5373,2.491,2.4471,2.3991,2.3595,2.3595,2.3595,2.3595,2.3595,2.3595,2.3595,2.3595,2.3595,2.3595,2.3595,2.3595,2.3595,2.3595,2.3595,2.3595,2.3595,2.3595,2.3595,2.3595,2.3595,2.3595,2.3595,2.3191,2.2981,2.349,2.3176,2.2981,2.3505,2.3595,2.3385,2.2813,2.2724,2.2233,2.1021,2.0782,2.0483,1.9899,1.975,1.969,1.969,1.969,1.969,1.969,1.969,1.969,1.969,1.969,1.9874,2.028,2.0682,2.1118,2.1582,2.2003,2.2237,2.231,2.231,2.231,2.7097,2.8687,2.9296,2.7351,2.7351,2.7789,2.7789,0.0,0.0,0.0,0.0,0.0,0.0,3.2476,3.2763,0.0,0.0,3.5267,3.4742,3.3947,3.3169,3.2527,3.1258,2.9897,2.8478,2.7882,2.6743,2.4806,2.5067,2.4855,2.3794,2.4158,2.4158,2.3595,2.3595,2.3681,2.3837,2.4307,2.4752,2.5221,2.5221,2.5221,2.5221,2.5297,2.5335,2.5297,2.4934,2.4736,2.4697,2.4199,2.3921,2.3837,2.3752,2.3681,2.3595,2.3595,2.3595,2.3595,2.3595,2.3595,2.3595,2.3595,2.3595,2.3595,2.3595,2.3595,2.3595,2.3595,2.3595,2.3595,2.3595,2.3595,2.3595,2.3595,2.3595,2.3595,2.3595,2.3535,2.349,2.358,2.352,2.349,2.358,2.3595,2.3385,2.2813,2.2724,2.2398,2.165,2.1051,2.0677,2.0572,2.0034,1.969,1.969,1.969,1.969,1.969,1.969,1.969,1.969,1.969,1.9874,2.028,2.0382,2.0797,2.1582,2.1658,2.1899,2.231,2.231,2.231,2.6234,2.8027,2.9245,2.8197,2.9093,3.0125,2.9736,0.0,0.0,0.0,0.0,0.0,0.0,0.0,3.3947,3.5385,3.5622,3.5351,3.459,3.3863,3.3136,3.2374,3.1059,2.9659,2.8351,2.7578,2.6422,2.4549,2.4632,2.443,2.3638,2.3837,2.3837,2.3595,2.3595,2.3595,2.3595,2.3837,2.4074,2.4348,2.4348,2.4348,2.4348,2.4632,2.4776,2.4776,2.4816,2.4831,2.4776,2.4266,2.4032,2.3991,2.3709,2.3595,2.3595,2.3595,2.3595,2.3595,2.3595,2.3595,2.3595,2.3595,2.3595,2.3595,2.3595,2.3595,2.3595,2.3595,2.3595,2.3595,2.3595,2.3595,2.3595,2.3595,2.3595,2.3595,2.3595,2.3595,2.3595,2.3595,2.3595,2.3595,2.3595,2.3595,2.3505,2.3221,2.3176,2.2951,2.2308,2.1964,2.15,2.0797,2.0423,2.0094,1.972,1.969,1.969,1.969,1.969,1.969,1.969,1.969,1.9782,1.9965,2.0547,2.103,2.1436,2.1907,2.2236,2.2452,2.2365,2.231,2.5609,2.7385,2.9011,2.9011,0.0,3.1495,3.1461,0.0,0.0,0.0,0.0,0.0,0.0,3.415,0.0,3.5301,3.5504,3.5301,3.437,3.3609,3.2797,3.1884,3.0651,2.9343,2.7876,2.713,2.599,2.4328,2.4184,2.4032,2.3638,2.3595,2.3595,2.3595,2.3595,2.3595,2.3595,2.3595,2.3595,2.3595,2.3595,2.3595,2.3595,2.4032,2.4184,2.4241,2.4672,2.4831,2.4776,2.4389,2.4184,2.4184,2.3752,2.3595,2.3595,2.3595,2.3595,2.3595,2.3595,2.3595,2.3595,2.3595,2.3595,2.3595,2.3595,2.3595,2.3595,2.3595,2.3595,2.3595,2.3595,2.3595,2.3595,2.3595,2.3595,2.3595,2.3595,2.3595,2.3595,2.3595,2.3595,2.3595,2.3595,2.3595,2.3595,2.3595,2.3595,2.343,2.2951,2.2813,2.2293,2.1276,2.1036,2.0737,2.0198,2.0154,2.0154,2.0154,2.0004,1.9929,1.9929,2.0064,2.0079,1.9929,2.0898,2.1439,2.1549,2.2202,2.2589,2.2688,2.2529,2.2378,2.6218,2.7774,2.9011,2.9011,0.0,0.0,3.1772,3.119,0.0,3.2899,0.0,0.0,0.0,3.4573,3.5318,3.4675,3.5165,3.5115,3.3694,3.2831,3.1833,3.0429,2.9665,2.8526,2.6607,2.5879,2.4995,2.3726,2.3681,2.3638,2.3595,2.3595,2.3595,2.3595,2.3595,2.3595,2.3595,2.3595,2.3595,2.3595,2.3595,2.3595,2.3595,2.3638,2.3681,2.3681,2.3724,2.3724,2.3724,2.3681,2.3681,2.3638,2.3595,2.3595,2.3595,2.3595,2.3595,2.3595,2.3595,2.3595,2.3595,2.3595,2.3595,2.3595,2.3595,2.3595,2.3595,2.3595,2.3595,2.3595,2.3595,2.3595,2.3595,2.3595,2.3595,2.3595,2.3595,2.3595,2.3595,2.3595,2.3595,2.3595,2.3595,2.3595,2.3595,2.3595,2.3595,2.358,2.3535,2.3041,2.2679,2.2589,2.1994,2.1605,2.156,2.156,2.156,2.156,2.0976,2.0647,2.0647,2.1231,2.1261,2.0647,2.1315,2.1864,2.2238,2.2276,2.2535,2.2984,2.2936,2.2623,2.52,2.7452,2.9685,2.9685,0.0,0.0,0.0,0.0,0.0,0.0,3.4793,0.0,0.0,0.0,3.5216,3.4015,3.4438,3.4404,3.2916,3.207,3.1145,2.9772,2.8588,2.7329,2.592,2.5165,2.4434,2.3653,2.3595,2.3595,2.3595,2.3595,2.3595,2.3595,2.3595,2.3595,2.3595,2.3595,2.3595,2.3595,2.3595,2.3595,2.3595,2.3595,2.3595,2.3595,2.3595,2.3595,2.3595,2.3595,2.3595,2.3595,2.3595,2.3595,2.3595,2.3595,2.3595,2.3595,2.3595,2.3879,2.4163,2.3744,2.3879,2.4163,2.3729,2.3595,2.3595,2.3595,2.3595,2.3595,2.3595,2.3595,2.3595,2.3595,2.3595,2.3595,2.3595,2.3595,2.3595,2.3595,2.3595,2.3595,2.3595,2.3595,2.3595,2.3595,2.3595,2.3595,2.3595,2.3385,2.3101,2.2727,2.2084,2.1695,2.1695,2.1695,2.1874,2.2278,2.168,2.1321,2.1321,2.156,2.1575,2.1335,2.1964,2.2374,2.2561,2.2808,2.3026,2.3163,2.3054,2.2646,2.5118,2.7418,2.9803,0.0,0.0,0.0,0.0,0.0,0.0,3.5013,3.5081,0.0,0.0,0.0,0.0,3.322,3.3474,3.3355,3.2121,3.1173,3.0078,2.8781,2.7541,2.6396,2.5269,2.471,2.4199,2.3638,2.3595,2.3595,2.3595,2.3595,2.3595,2.3595,2.3595,2.3595,2.3595,2.3595,2.3595,2.3595,2.3595,2.3595,2.3595,2.3595,2.3595,2.3595,2.3595,2.3595,2.3595,2.3595,2.3595,2.3595,2.3595,2.3595,2.3595,2.3595,2.3595,2.3595,2.3595,2.3909,2.4253,2.4014,2.4238,2.4522,2.4313,2.4088,2.3924,2.3924,2.3759,2.3595,2.3595,2.3595,2.3595,2.3595,2.3595,2.3595,2.3595,2.3595,2.3595,2.3595,2.3595,2.3595,2.3595,2.3595,2.3595,2.3595,2.3595,2.3595,2.3595,2.3595,2.343,2.3011,2.2562,2.2293,2.2293,2.2293,2.2488,2.2936,2.2547,2.2203,2.2009,2.2203,2.2203,2.2009,2.2637,2.2966,2.2966,2.3269,2.3402,2.3402,2.3243,2.2858,2.6488,2.7807,2.9161,0.0,0.0,0.0,0.0,0.0,0.0,3.4032,0.0,3.3406,3.3389,3.2797,0.0,3.2273,3.2273,3.2019,3.1292,3.0089,2.8718,2.7283,2.661,2.5791,2.4533,2.4389,2.4184,2.3638,2.3595,2.3595,2.3595,2.3595,2.3595,2.3595,2.3595,2.3595,2.3595,2.3595,2.3595,2.3595,2.3595,2.3595,2.3595,2.3595,2.3595,2.3595,2.3595,2.3595,2.3595,2.3595,2.3595,2.3595,2.3595,2.3595,2.3595,2.3595,2.3595,2.3595,2.3595,2.361,2.3729,2.4418,2.4597,2.4716,2.542,2.5151,2.4582,2.4582,2.4133,2.3595,2.361,2.3595,2.3595,2.3595,2.3595,2.3595,2.3595,2.361,2.361,2.3595,2.361,2.361,2.3595,2.361,2.361,2.3595,2.3595,2.3595,2.3595,2.3595,2.3595,2.3595,2.3595,2.3595,2.3595,2.3595,2.3595,2.3595,2.3595,2.3325,2.2753,2.3266,2.331,2.2739,2.3295,2.3595,2.3595,2.3595,2.3595,2.3595,2.3595,2.3266,2.6015,2.7418,0.0,2.9262,0.0,0.0,0.0,3.2324,0.0,0.0,3.3558,3.3237,3.2713,3.2865,3.273,3.1681,3.1616,3.1233,3.0019,2.8747,2.7444,2.6148,2.5406,2.4663,2.3894,2.3837,2.3752,2.3595,2.3595,2.3595,2.3595,2.3595,2.3595,2.3595,2.3595,2.3595,2.3595,2.3595,2.3595,2.3595,2.3595,2.3595,2.3595,2.3595,2.3595,2.3595,2.3595,2.3595,2.3595,2.3595,2.3595,2.3595,2.3595,2.3595,2.3595,2.3595,2.3595,2.3595,2.3595,2.4223,2.4971,2.4717,2.5255,2.5959,2.5689,2.5151,2.4582,2.4582,2.4133,2.3714,2.4193,2.3969,2.3595,2.3595,2.3595,2.3595,2.3595,2.3984,2.4178,2.3684,2.4358,2.4717,2.3759,2.3999,2.4163,2.367,2.3595,2.3595,2.3595,2.3595,2.3595,2.3595,2.3595,2.3595,2.3595,2.3595,2.3595,2.3595,2.3595,2.352,2.3325,2.3505,2.352,2.3325,2.3505,2.3595,2.3595,2.3595,2.3595,2.3595,2.3595,2.3266,2.7351,2.8602,0.0,3.0264,3.097,3.163,3.163,0.0,0.0,0.0,3.2949,3.2831,3.2357,3.2408,3.2138,3.0954,3.0633,3.0054,2.8619,2.7356,2.6194,2.517,2.4487,2.3964,2.3638,2.3595,2.3595,2.3595,2.3595,2.3595,2.3595,2.3595,2.3595,2.3595,2.3595,2.3595,2.3595,2.3595,2.3595,2.3595,2.3595,2.3595,2.3595,2.3595,2.3595,2.3595,2.3595,2.3595,2.3595,2.3595,2.3595,2.3595,2.3595,2.3595,2.3595,2.3595,2.3595,2.3595,2.3595,2.4133,2.4837,2.4971,2.5555,2.6228,2.6348,2.5929,2.536,2.5091,2.4717,2.4433,2.4537,2.4522,2.4328,2.4073,2.3789,2.3595,2.3595,2.3924,2.4088,2.3684,2.4477,2.4881,2.3789,2.4178,2.4343,2.3699,2.3595,2.3595,2.3595,2.3595,2.3595,2.3595,2.3595,2.3595,2.3595,2.3595,2.3595,2.3595,2.3595,2.3595,2.3595,2.3595,2.3595,2.3595,2.3595,2.3595,2.3595,2.3595,2.3595,2.3595,2.3595,2.34,2.955,0.0,0.0,3.1901,3.2138,0.0,3.2188,3.2138,3.2104,3.2171,0.0,3.2195,3.2087,3.1546,3.0852,3.0032,2.9476,2.8589,2.7186,2.6077,2.5164,2.4385,2.3921,2.3595,2.3595,2.3595,2.3595,2.3595,2.3595,2.3595,2.3595,2.3595,2.3595,2.3595,2.3595,2.3595,2.3595,2.3595,2.3595,2.3595,2.3595,2.3595,2.3595,2.3595,2.3595,2.3595,2.3595,2.3595,2.3595,2.3595,2.3595,2.3595,2.3595,2.3595,2.3595,2.3595,2.3595,2.3595,2.3595,2.364,2.3894,2.5121,2.5555,2.5839,2.7036,2.6931,2.6288,2.5689,2.5525,2.539,2.4806,2.5151,2.548,2.4881,2.4283,2.3774,2.3774,2.3834,2.3849,2.3789,2.4343,2.4597,2.3909,2.4298,2.4433,2.3789,2.364,2.3595,2.3595,2.3595,2.3595,2.3595,2.3595,2.3595,2.3595,2.3595,2.3595,2.3595,2.3595,2.3595,2.3595,2.3595,2.3595,2.3595,2.3595,2.3595,2.3595,2.3595,2.3595,2.3595,2.3595,2.3595,2.8383,2.8873,0.0,0.0,3.1004,3.1427,3.1427,3.0987,3.0734,3.1309,3.1427,3.1258,3.0683,3.0446,2.996,2.8826,2.811,2.7297,2.6024,2.5229,2.4535,2.3842,2.3681,2.3595,2.3595,2.3595,2.3595,2.3595,2.3595,2.3595,2.3595,2.3595,2.3595,2.3595,2.3595,2.3595,2.3595,2.3595,2.3595,2.3595,2.3595,2.3595,2.3595,2.3595,2.3595,2.3595,2.3595,2.3595,2.3595,2.3595,2.3595,2.3595,2.3595,2.3595,2.3595,2.3595,2.3595,2.3595,2.3595,2.3954,2.4403,2.4701,2.5196,2.5659,2.5944,2.557,2.5016,2.4881,2.4837,2.4881,2.53,2.5495,2.5704,2.6078,2.5659,2.5181,2.5181,2.5585,2.5794,2.527,2.5719,2.5959,2.53,2.53,2.5181,2.4507,2.3939,2.3595,2.3595,2.3595,2.3595,2.3595,2.3595,2.3595,2.3595,2.3595,2.3595,2.3595,2.3595,2.3595,2.3595,2.3595,2.3595,2.3595,2.3595,2.3595,2.3595,2.3595,2.3595,2.3595,2.3595,2.3595,2.8822,0.0,0.0,3.0446,0.0,3.119,3.119,3.0632,3.0226,3.0598,3.0378,3.0023,2.9634,2.9567,2.9147,2.7893,2.7201,2.6379,2.515,2.4496,2.3999,2.364,2.3595,2.3595,2.3595,2.3595,2.3595,2.3595,2.3595,2.3595,2.3595,2.3595,2.3595,2.3595,2.3595,2.3595,2.3595,2.3595,2.3595,2.3595,2.3595,2.3595,2.3595,2.3595,2.3595,2.3595,2.3595,2.3595,2.3595,2.3595,2.3595,2.3595,2.3595,2.3595,2.3595,2.3595,2.3595,2.3595,2.3595,2.3834,2.4193,2.4477,2.4821,2.5196,2.551,2.5585,2.5495,2.5196,2.5555,2.6033,2.6078,2.6318,2.6632,2.6976,2.6318,2.5615,2.5615,2.5869,2.6019,2.5674,2.6138,2.6378,2.5719,2.5097,2.4663,2.4581,2.3763,2.3275,2.3551,2.3595,2.3729,2.4059,2.3789,2.3729,2.4059,2.3789,2.3595,2.3595,2.3595,2.3595,2.3595,2.3595,2.3595,2.3595,2.3595,2.3595,2.3595,2.3595,2.3595,2.3595,2.3595,2.3595,2.9025,0.0,3.0125,3.097,3.119,0.0,3.119,3.0531,2.9922,2.9922,2.9414,2.8941,2.8805,2.8735,2.8263,2.6998,2.6299,2.5575,2.4426,2.3879,2.3595,2.3595,2.3595,2.3595,2.3595,2.3595,2.3595,2.3595,2.3595,2.3595,2.3595,2.3595,2.3595,2.3595,2.3595,2.3595,2.3595,2.3595,2.3595,2.3595,2.3595,2.3595,2.3595,2.3595,2.3595,2.3595,2.3595,2.3595,2.3595,2.3595,2.3595,2.3595,2.3595,2.3595,2.3595,2.3595,2.3595,2.3595,2.3595,2.3595,2.3714,2.4403,2.4582,2.4701,2.542,2.5989,2.6303,2.5764,2.6482,2.7275,2.6737,2.7081,2.7625,2.7625,2.6737,2.5959,2.5959,2.5959,2.5959,2.5959,2.6281,2.6396,2.5678,2.4611,2.4009,2.4665,2.3768,2.3254,2.3851,2.3954,2.4163,2.4732,2.4283,2.4133,2.4552,2.4103,2.3729,2.361,2.3595,2.3595,2.3595,2.3595,2.3595,2.3595,2.3595,2.3595,2.3595,2.3595,2.3595,2.3595,2.3595,2.3595,0.0,0.0,2.9465,0.0,3.119,3.119,0.0,0.0,2.9127,0.0,2.9096,2.8772,2.8095,2.7637,2.6928,2.5669,2.4997,2.4416,2.3809,2.3638,2.3595,2.3595,2.3595,2.3595,2.3595,2.3595,2.3595,2.3595,2.3595,2.3595,2.3595,2.3595,2.3595,2.3595,2.3595,2.3595,2.3595,2.3595,2.3595,2.3595,2.3595,2.3595,2.3595,2.3595,2.3595,2.3595,2.3595,2.3595,2.3595,2.3595,2.3595,2.3595,2.3595,2.3595,2.3595,2.3595,2.3595,2.3595,2.3595,2.3595,2.3714,2.4403,2.4582,2.4701,2.542,2.5674,2.5719,2.563,2.6153,2.6692,2.6617,2.7081,2.7625,2.7625,2.749,2.7305,2.7305,2.7305,2.7305,2.7305,2.6909,2.6269,2.5618,2.4841,2.4525,2.5272,2.4725,2.453,2.5237,2.533,2.5375,2.5465,2.539,2.5151,2.4627,2.4507,2.4238,2.364,2.3595,2.3595,2.3595,2.3595,2.3595,2.3595,2.3595,2.3595,2.3595,2.3595,2.3595,2.3595,2.3595,2.3595,2.659,2.8197,2.9871,0.0,3.119,3.119,3.119,3.0378,2.9617,2.9617,2.874,2.7718,2.6931,2.6637,2.6101,2.4958,2.4552,2.4184,2.3681,2.3595,2.3595,2.3595,2.3595,2.3595,2.3595,2.3595,2.3595,2.3595,2.3595,2.3595,2.3595,2.3595,2.3595,2.3595,2.3595,2.3595,2.3595,2.3595,2.3595,2.3595,2.3595,2.3595,2.3595,2.3595,2.3595,2.3595,2.3595,2.3595,2.3595,2.3595,2.3595,2.3595,2.3595,2.3595,2.3595,2.3595,2.3595,2.3655,2.4044,2.4178,2.4283,2.4956,2.5181,2.5241,2.5525,2.5869,2.6153,2.6153,2.6632,2.7141,2.7141,2.74,2.7625,2.7625,2.7625,2.7625,2.7625,2.7625,2.7625,2.7625,2.7357,2.6894,2.6174,2.5173,2.4551,2.4829,2.4376,2.4248,2.4888,2.5349,2.5749,2.6123,2.5824,2.5488,2.515,2.5141,2.4698,2.3624,2.3926,2.3999,2.361,2.3595,2.3595,2.3595,2.3595,2.3595,2.3595,2.3595,2.3595,2.3595,2.3595,2.3595,0.0,0.0,2.955,3.0869,3.119,3.1241,0.0,0.0,3.007,2.9883,2.8522,2.7087,2.6265,2.5821,2.5335,2.4552,2.4282,2.4074,2.3681,2.3595,2.3595,2.3595,2.3595,2.3595,2.3595,2.3595,2.3595,2.3595,2.3595,2.3595,2.3595,2.3595,2.3595,2.3595,2.3595,2.3595,2.3595,2.3595,2.3595,2.3595,2.3595,2.3595,2.3595,2.3595,2.3595,2.3595,2.3595,2.3595,2.3595,2.3595,2.3595,2.3595,2.3595,2.3595,2.3595,2.3595,2.3595,2.3699,2.4388,2.4582,2.4716,2.5585,2.5854,2.5899,2.6063,2.6452,2.6841,2.6841,2.7186,2.7625,2.7625,2.7625,2.7625,2.7625,2.7625,2.7625,2.7625,2.7625,2.756,2.7357,2.7188,2.6811,2.6054,2.4943,2.4204,2.4368,2.4175,2.4305,2.4919,2.5644,2.624,2.652,2.6149,2.5712,2.5539,2.556,2.5114,2.4109,2.453,2.4567,2.3879,2.3864,2.3774,2.3595,2.3595,2.3595,2.3595,2.3595,2.3595,2.3595,2.3595,2.3595,0.0,2.681,0.0,3.048,3.119,3.1376,0.0,3.1123,2.9938,2.9367,2.8613,2.7713,2.6576,2.5357,2.4471,2.4389,2.3948,2.3638,2.3595,2.3595,2.3595,2.3595,2.3595,2.3595,2.3595,2.3595,2.3595,2.3595,2.3595,2.3595,2.3595,2.3595,2.3595,2.3595,2.3595,2.3595,2.3595,2.3595,2.3595,2.3595,2.3595,2.3595,2.3595,2.3595,2.3595,2.3595,2.3595,2.3595,2.3595,2.3595,2.3595,2.3595,2.3595,2.3595,2.3595,2.3595,2.3595,2.3699,2.4388,2.4582,2.4837,2.6123,2.6542,2.6662,2.7275,2.755,2.7565,2.7565,2.7595,2.7625,2.7625,2.7625,2.7625,2.7625,2.7625,2.7625,2.7625,2.7625,2.7408,2.6669,2.6,2.5287,2.4509,2.3741,2.3433,2.4182,2.4883,2.5576,2.6304,2.7049,2.7217,2.6558,2.6477,2.6165,2.556,2.5488,2.5515,2.5491,2.5508,2.527,2.4567,2.4522,2.4268,2.361,2.3595,2.3595,2.3595,2.3595,2.3595,2.3595,2.3595,2.3595,0.0,0.0,0.0,2.8294,2.9259,3.0066,3.0316,3.0309,3.0177,2.9955,2.8763,2.7576,2.7191,2.5985,2.4945,2.4589,2.401,2.3595,2.3595,2.3595,2.3595,2.3595,2.3595,2.3595,2.3595,2.3595,2.3595,2.3595,2.3595,2.3595,2.3595,2.3595,2.3595,2.3595,2.3595,2.3595,2.3595,2.3595,2.3595,2.3595,2.3595,2.3595,2.3595,2.3595,2.3595,2.3595,2.3595,2.3595,2.3595,2.3595,2.3595,2.3595,2.3595,2.3595,2.3595,2.3595,2.3595,2.3759,2.4866,2.5255,2.548,2.6797,2.7215,2.726,2.755,2.7625,2.7625,2.7625,2.7625,2.7625,2.7625,2.7625,2.7458,2.6982,2.6878,2.6759,2.6269,2.6549,2.6669,2.596,2.5563,2.5175,2.4452,2.406,2.3767,2.3531,2.4163,2.4794,2.5063,2.5728,2.6283,2.6457,2.651,2.6409,2.6179,2.6579,2.6453,2.5593,2.5972,2.5749,2.4627,2.4582,2.4253,2.361,2.3595,2.3595,2.3595,2.3595,2.3595,2.3595,2.3595,2.3595,2.3933,0.0,0.0,0.0,2.7781,2.8567,2.9492,2.9662,2.9685,2.9713,2.8709,2.7752,2.7579,2.6581,2.5515,2.4747,2.4238,2.3864,2.3625,2.3595,2.3595,2.3595,2.3595,2.3595,2.3595,2.3595,2.3595,2.3595,2.3595,2.3595,2.3595,2.3595,2.3595,2.3595,2.3595,2.3595,2.3595,2.3595,2.3595,2.3595,2.3595,2.3595,2.3595,2.3595,2.3595,2.3595,2.3595,2.3595,2.3595,2.3595,2.3595,2.3595,2.3595,2.3595,2.3595,2.3595,2.3595,2.3789,2.5136,2.5615,2.5824,2.7141,2.7625,2.7625,2.7625,2.7625,2.7625,2.7625,2.7625,2.7625,2.7625,2.7408,2.71,2.6616,2.6283,2.596,2.5175,2.5618,2.5906,2.5175,2.5007,2.4781,2.406,2.3884,2.3721,2.3198,2.3767,2.4292,2.4292,2.4951,2.5563,2.6068,2.6122,2.6229,2.6457,2.693,2.6945,2.6236,2.6446,2.6093,2.4955,2.4701,2.4253,2.361,2.3595,2.3595,2.3595,2.3595,2.3595,2.3595,2.3595,2.3595,0.0,0.0,0.0,0.0,0.0,0.0,2.9723,2.9291,2.8363,2.8498,2.8448,2.8255,2.771,2.7051,2.6198,2.4851,2.4612,2.4343,2.3729,2.361,2.3595,2.3595,2.3595,2.3595,2.3595,2.3595,2.3595,2.3595,2.3595,2.3595,2.3595,2.3595,2.3595,2.3595,2.3595,2.3595,2.3595,2.3595,2.3595,2.3595,2.3595,2.3595,2.3595,2.3595,2.3595,2.3595,2.3595,2.3595,2.3595,2.3595,2.3595,2.3595,2.3595,2.3595,2.3595,2.3595,2.3595,2.3789,2.5121,2.56,2.5824,2.7126,2.761,2.7625,2.7625,2.7625,2.7625,2.7625,2.7625,2.7575,2.7575,2.7034,2.6457,2.6457,2.5892,2.5175,2.4394,2.4851,2.5119,2.4394,2.4292,2.4002,2.3245,2.3078,2.3078,2.3078,2.3767,2.4292,2.4292,2.4894,2.5398,2.5398,2.5398,2.5728,2.6457,2.651,2.6826,2.756,2.6961,2.6303,2.563,2.4971,2.4253,2.361,2.3595,2.3595,2.3595,2.3595,2.3595,2.3595,2.3595,2.3595,2.2236,0.0,0.0,0.0,0.0,0.0,2.6706,2.6973,2.7324,2.831,2.7758,2.7236,2.7535,2.7475,2.7021,2.6183,2.5255,2.4522,2.4373,2.3924,2.3595,2.3595,2.3595,2.3595,2.3595,2.3595,2.3595,2.3595,2.3595,2.3595,2.3595,2.3595,2.3595,2.3595,2.3595,2.3595,2.3595,2.3595,2.3595,2.3595,2.3595,2.3595,2.3595,2.3595,2.3595,2.3595,2.3595,2.3595,2.3595,2.3595,2.3595,2.3595,2.3595,2.3595,2.3595,2.3595,2.3595,2.3729,2.4597,2.5211,2.5749,2.6587,2.7186,2.7625,2.7625,2.7625,2.7625,2.7625,2.7625,2.7458,2.693,2.6283,2.5563,2.5063,2.4738,2.4394,2.359,2.359,2.3708,2.3484,2.3424,2.3365,2.3125,2.3078,2.3078,2.3078,2.3305,2.3424,2.3424,2.4105,2.4794,2.5342,2.5398,2.5892,2.7188,2.6826,2.6826,2.756,2.6961,2.6303,2.563,2.4971,2.4253,2.361,2.3595,2.3595,2.3595,2.3595,2.3595,2.3595,2.3595,2.3595,0.0,0.0,0.0,0.0,0.0,0.0,2.531,2.5647,2.6077,2.7437,2.7361,2.7126,2.755,2.7625,2.744,2.7066,2.6123,2.536,2.5076,2.4462,2.4133,2.4403,2.3939,2.3714,2.3999,2.3759,2.3595,2.3595,2.3595,2.3595,2.3595,2.3595,2.3595,2.3595,2.3595,2.3595,2.3595,2.3595,2.3595,2.3595,2.3595,2.3595,2.3595,2.3595,2.3595,2.3595,2.3595,2.3595,2.3595,2.3595,2.3595,2.3595,2.3595,2.3595,2.3595,2.3595,2.3595,2.3699,2.4388,2.5061,2.5719,2.6378,2.7036,2.7625,2.7625,2.7625,2.7625,2.7625,2.7357,2.6982,2.6229,2.5508,2.4894,2.4794,2.4279,2.3767,2.3649,2.3365,2.3078,2.3078,2.3078,2.3078,2.3078,2.3078,2.3078,2.3078,2.3078,2.3078,2.3078,2.3543,2.4105,2.4851,2.5231,2.5892,2.7034,2.6784,2.6754,2.7171,2.6288,2.56,2.5211,2.4552,2.4014,2.361,2.3595,2.3595,2.3595,2.3595,2.3595,2.3595,2.3595,2.3595,0.0,2.3284,0.0,0.0,2.2757,0.0,2.4807,2.4941,2.4956,2.6138,2.6841,2.726,2.7335,2.746,2.749,2.7415,2.6976,2.6467,2.5809,2.5151,2.491,2.554,2.4552,2.4044,2.4522,2.4073,2.3684,2.361,2.3595,2.3595,2.3595,2.3595,2.3595,2.3595,2.3595,2.3595,2.3595,2.3595,2.3595,2.3595,2.3595,2.3595,2.3595,2.3595,2.3595,2.3595,2.3595,2.3595,2.3595,2.3595,2.3595,2.3595,2.3595,2.3595,2.3595,2.3595,2.3595,2.3684,2.4298,2.4956,2.56,2.6183,2.6871,2.7505,2.7505,2.7565,2.7625,2.7625,2.6982,2.6229,2.5673,2.4851,2.4337,2.5119,2.415,2.3305,2.4002,2.359,2.3078,2.3078,2.3078,2.3078,2.3078,2.3078,2.3078,2.3078,2.3078,2.3078,2.3078,2.3245,2.3649,2.435,2.5063,2.5837,2.6563,2.6621,2.6613,2.6602,2.542,2.4657,2.4582,2.3969,2.3595,2.3595,2.3595,2.3595,2.3595,2.3595,2.3595,2.3595,2.3595,2.3595,2.2674,2.3386,2.401,2.2469,2.3475,0.0,2.349,2.3969,2.4657,2.4956,2.506,2.536,2.5899,2.6422,2.6602,2.6078,2.6782,2.7156,2.6497,2.5839,2.5465,2.56,2.5375,2.5061,2.4627,2.4462,2.4193,2.364,2.3595,2.3595,2.3595,2.3595,2.3595,2.3595,2.3595,2.3595,2.3595,2.3595,2.3595,2.3595,2.3595,2.3595,2.3595,2.3595,2.3595,2.3595,2.3595,2.3595,2.3595,2.3595,2.3595,2.3595,2.3595,2.3595,2.3595,2.3595,2.3595,2.3625,2.3744,2.4238,2.4837,2.4971,2.5809,2.6782,2.6782,2.7156,2.7625,2.7625,2.6654,2.5728,2.6176,2.4824,2.3531,2.4337,2.3767,2.3125,2.3305,2.3185,2.3078,2.3078,2.3078,2.3078,2.3078,2.3078,2.3078,2.3078,2.3078,2.3078,2.3078,2.4208,2.5007,2.5175,2.5837,2.6602,2.7306,2.6865,2.6521,2.6583,2.5854,2.5181,2.4612,2.3969,2.3595,2.3595,2.3595,2.3595,2.3595,2.3595,2.3595,2.3595,2.3595,2.3595,2.3436,2.3705,2.3969,2.3325,2.3655,0.0,0.0,2.3894,2.4298,2.4971,2.4806,2.473,2.5136,2.5411,2.5401,2.4811,2.6069,2.6743,2.5766,2.5886,2.6213,2.6557,2.6019,2.5615,2.5615,2.5315,2.4971,2.4627,2.4597,2.4462,2.4133,2.4118,2.3954,2.361,2.3595,2.3595,2.3595,2.3595,2.3595,2.3595,2.3595,2.3595,2.3595,2.3595,2.3595,2.3595,2.3595,2.3595,2.3595,2.3595,2.3595,2.3595,2.3595,2.3595,2.3595,2.3595,2.3595,2.3595,2.3595,2.4059,2.4582,2.4582,2.5525,2.6587,2.6587,2.7051,2.7509,2.7152,2.6496,2.5837,2.5508,2.4553,2.3826,2.4176,2.3708,2.3185,2.359,2.3365,2.3078,2.3078,2.3078,2.3078,2.3078,2.3078,2.3078,2.3078,2.3078,2.3245,2.3662,2.4394,2.5007,2.5342,2.6068,2.6669,2.7034,2.674,2.6583,2.6617,2.5674,2.4971,2.4597,2.3969,2.3595,2.3595,2.3595,2.3595,2.3595,2.3595,2.3595,2.3595,2.3595,2.3595,2.4225,2.4013,2.3894,2.4313,2.3834,2.3415,0.0,0.0,0.0,2.4866,2.4717,2.4447,2.4564,2.4488,2.4283,2.3844,2.5124,2.5812,2.4675,2.5511,2.6485,2.714,2.6508,2.6153,2.6557,2.5989,2.5615,2.5615,2.5615,2.5375,2.4806,2.4657,2.4328,2.3819,2.367,2.3595,2.3595,2.3595,2.3595,2.3595,2.3595,2.3595,2.3595,2.3595,2.3595,2.3595,2.3595,2.3595,2.3595,2.3595,2.3595,2.3595,2.3595,2.3595,2.3595,2.3595,2.3595,2.3595,2.3595,2.3969,2.4388,2.4388,2.5241,2.6258,2.6512,2.6961,2.7294,2.6849,2.651,2.6068,2.5007,2.4394,2.4118,2.4292,2.3708,2.3245,2.3943,2.3543,2.3078,2.3078,2.3078,2.3078,2.3078,2.3078,2.3078,2.3078,2.3245,2.3603,2.4234,2.4567,2.4951,2.5563,2.6283,2.6721,2.6721,2.6766,2.6677,2.6422,2.5405,2.4657,2.4403,2.3894,2.3595,2.3595,2.3595,2.3595,2.3595,2.3595,2.3595,2.3595,2.3595,2.3595,0.0,0.0,2.4343,2.3849,2.4507,2.4866,2.3266,0.0,2.4223,2.3221,0.0,2.3744,2.3717,0.0,0.0,2.3612,2.4298,2.4578,2.3902,2.4438,2.5125,2.5763,2.6751,2.7156,2.6632,2.5989,2.5615,2.5615,2.5615,2.557,2.5495,2.4896,2.4552,2.4462,2.3924,2.3595,2.3595,2.3595,2.3595,2.3595,2.3595,2.3595,2.3595,2.3595,2.3595,2.3595,2.3595,2.3595,2.3595,2.3595,2.3595,2.3595,2.3595,2.3595,2.3595,2.3595,2.3595,2.3595,2.3595,2.3655,2.3714,2.3714,2.4238,2.5076,2.6243,2.6632,2.6826,2.736,2.6534,2.5618,2.6122,2.4768,2.3424,2.4118,2.3708,2.3138,2.3185,2.3125,2.3078,2.3078,2.3078,2.3078,2.3078,2.3078,2.3078,2.3078,2.3708,2.4176,2.4292,2.5453,2.6283,2.6336,2.7034,2.7473,2.7473,2.75,2.6961,2.5794,2.5585,2.4956,2.3759,2.364,2.3595,2.3595,2.3595,2.3595,2.3595,2.3595,2.3595,2.3595,2.3595,2.3595,0.0,2.3804,2.4059,2.4163,2.4328,2.4328,2.3909,2.3924,2.3984,2.3834,0.0,0.0,0.0,0.0,0.0,0.0,2.2844,2.3169,2.218,2.3252,2.4204,2.4473,2.5365,2.6096,2.6587,2.6348,2.6333,2.6722,2.6393,2.6183,2.6183,2.5914,2.542,2.4612,2.4343,2.3999,2.3595,2.3595,2.3595,2.3595,2.3595,2.3595,2.3595,2.3595,2.3595,2.3595,2.3595,2.3595,2.3595,2.3595,2.3595,2.3595,2.3595,2.3595,2.3595,2.3595,2.3595,2.3595,2.3595,2.3595,2.367,2.4059,2.4388,2.4821,2.6183,2.6318,2.6132,2.6806,2.6222,2.5427,2.5246,2.4509,2.3767,2.3649,2.3365,2.3078,2.3078,2.3078,2.3078,2.3078,2.3078,2.3078,2.3078,2.3078,2.3078,2.3078,2.3365,2.3767,2.4234,2.5231,2.6014,2.6457,2.7152,2.7625,2.7625,2.7625,2.7171,2.6243,2.5465,2.4597,2.364,2.3595,2.3595,2.3595,2.3595,2.3595,2.3595,2.3595,2.3595,2.3595,2.3595,2.3595,2.3595,2.3595,2.3729,2.4223,2.3969,2.3684,2.4029,2.3834,2.3641,2.3778,2.2819,0.0,0.0,0.0,0.0,0.0,0.0,2.1876,2.0934,2.188,2.2839,2.3169,2.4212,2.5389,2.6494,2.6587,2.6856,2.7565,2.6961,2.6662,2.6841,2.6692,2.6153,2.5196,2.4761,2.4388,2.3879,2.3684,2.3595,2.3595,2.3595,2.3595,2.3595,2.3595,2.3595,2.3595,2.3595,2.3595,2.3595,2.3595,2.3595,2.3595,2.3595,2.3595,2.3595,2.3595,2.3595,2.3595,2.3595,2.3595,2.3684,2.4178,2.4343,2.4552,2.5704,2.5625,2.5224,2.5828,2.5488,2.4769,2.4193,2.3987,2.3826,2.3245,2.3078,2.3078,2.3078,2.3078,2.3078,2.3078,2.3078,2.3078,2.3078,2.3078,2.3078,2.3078,2.3305,2.3708,2.4509,2.5231,2.6,2.6721,2.7306,2.7625,2.7625,2.741,2.6946,2.6108,2.4986,2.4118,2.3625,2.3595,2.3595,2.3595,2.3595,2.3595,2.3595,2.3595,2.3595,2.3595,2.3595,2.3595,2.3595,2.3595,2.361,2.3625,2.361,2.3445,2.2877,2.3191,2.3243,2.2019,2.2277,2.2483,2.1838,0.0,0.0,0.0,0.0,0.0,0.0,2.0395,2.0523,2.1701,2.4072,2.5821,2.6523,2.6587,2.6856,2.7565,2.6961,2.6871,2.75,2.6931,2.6572,2.6527,2.53,2.4567,2.4552,2.3924,2.3595,2.3595,2.3595,2.3595,2.3595,2.3595,2.3595,2.3595,2.3595,2.3595,2.3595,2.3595,2.3595,2.3595,2.3595,2.3595,2.3595,2.3595,2.3595,2.3595,2.3595,2.3595,2.3595,2.3625,2.3625,2.3759,2.4477,2.4231,2.3912,2.4563,2.4121,2.3437,2.3464,2.3283,2.3138,2.3138,2.3078,2.3078,2.3078,2.3078,2.3078,2.3078,2.3078,2.3078,2.3078,2.3078,2.3078,2.3078,2.3767,2.4509,2.5287,2.6014,2.6774,2.7509,2.7575,2.7625,2.7625,2.6991,2.6078,2.4731,2.4029,2.3625,2.3595,2.3595,2.3595,2.3595,2.3595,2.3595,2.3595,2.3595,2.3595,2.3595,2.3595,2.3595,2.2338,2.2338,2.2443,2.2877,2.2652,2.2398,2.2664,2.2847,2.2753,2.1888,2.1875,2.1946,2.1744,0.0,0.0,0.0,0.0,0.0,0.0,1.9147,1.9249,2.0475,2.282,0.0,2.4674,2.5423,2.6213,2.6871,2.6722,2.6871,2.758,2.7799,2.7515,2.6617,2.5734,2.5076,2.4582,2.3939,2.3595,2.3595,2.3595,2.3595,2.3595,2.3595,2.3595,2.3595,2.3595,2.3595,2.3595,2.3595,2.3595,2.3595,2.3595,2.3595,2.3595,2.3595,2.3595,2.3595,2.3595,2.3595,2.3595,2.3595,2.3595,2.3729,2.4373,2.3878,2.3227,2.4293,2.3764,2.2839,2.2763,2.2972,2.3129,2.2703,2.2874,2.3078,2.3078,2.3078,2.3078,2.3078,2.3078,2.3078,2.3078,2.3078,2.3078,2.3078,2.3767,2.4408,2.4624,2.5364,2.6124,2.6782,2.692,2.6916,2.6916,2.5914,2.5106,2.4612,2.3984,2.3595,2.3595,2.3595,2.3595,2.3595,2.3595,2.3595,2.3595,2.3595,2.3595,2.3595,2.3595,2.3595,2.1695,2.1695,2.1799,2.2218,2.2009,2.1799,2.2233,2.2322,2.2175,2.1525,2.1356,2.1293,2.1086,0.0,0.0,0.0,0.0,0.0,0.0,1.8756,1.8902,1.9318,2.1559,0.0,0.0,2.4796,2.5734,2.6856,2.6722,2.6991,2.7889,2.8368,2.8203,2.7335,2.6198,2.5405,2.4986,2.4059,2.3595,2.3595,2.3595,2.3595,2.3595,2.3595,2.3595,2.3595,2.337,2.3266,2.3266,2.3266,2.3266,2.3295,2.352,2.3595,2.3595,2.3595,2.3595,2.3595,2.3595,2.3595,2.3595,2.3595,2.3595,2.3684,2.4118,2.354,2.2867,2.3626,2.3084,2.2245,2.2115,2.2385,2.2549,2.2122,2.2447,2.2836,2.2836,2.3,2.3078,2.3078,2.3078,2.3015,2.2874,2.3238,2.3543,2.3543,2.3761,2.4133,2.4681,2.5188,2.5654,2.6127,2.6446,2.6408,2.5929,2.5121,2.4477,2.4283,2.3849,2.3595,2.3595,2.3595,2.3595,2.3595,2.3595,2.3595,2.3595,2.3595,2.3595,2.3595,2.3595,2.3595]}]]